[[{"header":{"parameterUnit":"m.s-1","parameterCategory":1,"la1":30.6,"la2":29.2853,"lo1":-89.7004,"lo2":-87.6739,"dy":0.0162,"dx":0.0183,"nx":112,"ny":82,"refTime":"2024-06-20T12:00:00:Z","depth":0,"parameterNumber":2,"parameterNumberName":"U-component_of_WINDS"},"data":[0.0,0.0,0.0,0.0,0.0,0.0,0.0,0.0,0.0,0.0,0.0,0.0,0.0,0.0,0.0,0.0,0.0,0.0,0.0,0.0,0.0,0.0,0.0,0.0,0.0,0.0,0.0,0.0,0.0,0.0,0.0,0.0,0.0,0.0,0.0,0.0,0.0,0.0,0.0,0.0,0.0,0.0,0.0,0.0,0.0,0.0,0.0,0.0,0.0,0.0,0.0,0.0,0.0,0.0,0.0,0.0,0.0,0.0,0.0,0.0,0.0,0.0,0.0,0.0,0.0,0.0,0.0,0.0,0.0,0.0,0.0,0.0,0.0,0.0,0.0,0.0,0.0,0.0,0.0,0.0,0.0,0.0,0.0,0.0,0.0,0.0,0.0,0.0,0.0,0.0,0.0,1.3634,1.6167,1.7531,1.6937,1.6343,1.4862,1.2296,0.0,0.0,0.0,0.0,0.0,0.0,0.0,0.0,0.0,0.0,0.0,0.0,0.0,0.0,0.0,0.0,0.0,0.0,0.0,0.0,0.0,0.0,0.0,0.0,0.0,0.0,0.0,0.0,0.0,0.0,0.0,0.0,0.0,0.0,0.0,0.0,0.0,0.0,0.0,0.0,0.0,0.0,0.0,0.0,0.0,0.0,0.0,0.0,0.0,0.0,0.0,0.0,0.0,0.0,0.0,0.0,0.0,0.0,0.0,0.0,0.0,0.0,0.0,0.0,0.0,0.0,0.0,0.0,0.0,0.0,0.0,0.0,0.0,0.0,0.0,0.0,0.0,0.0,0.0,0.0,0.0,0.0,0.0,0.0,0.0,0.0,0.0,0.0,0.0,0.0,0.0,0.0,0.0,0.0,0.0,0.0,0.0,0.0,0.0,0.0,0.0,0.0,0.0,0.0,1.1964,1.5389,1.687,1.7533,1.7316,1.6402,1.4928,1.2806,0.0,0.0,0.0,0.0,0.0,0.0,0.0,0.0,0.0,0.0,0.0,0.0,0.0,0.0,0.0,0.0,0.0,0.0,0.0,0.0,0.0,0.0,0.0,0.0,0.0,0.0,0.0,0.0,0.0,0.0,0.0,0.0,0.0,0.0,0.0,0.0,0.0,0.0,0.0,0.0,0.0,0.0,0.0,0.0,0.0,0.0,0.0,0.0,0.0,0.0,0.0,0.0,0.0,0.0,0.0,0.0,0.0,0.0,0.0,0.0,0.0,0.0,0.0,0.0,0.0,0.0,0.0,0.0,0.0,0.0,0.0,0.0,0.0,0.0,0.0,0.0,0.0,0.0,0.0,0.0,0.0,0.0,0.0,0.0,0.0,0.0,0.0,0.0,0.0,0.0,0.0,0.0,0.0,0.0,0.0,0.0,0.0,0.0,0.0,0.0,0.0,0.0,0.0,1.1939,1.3368,1.6713,1.7581,1.7774,1.7424,1.6151,1.4612,1.2866,1.1993,0.0,0.0,0.0,0.0,0.0,0.0,0.0,0.0,0.0,0.0,0.0,0.0,0.0,0.0,0.0,0.0,0.0,0.0,0.0,0.0,0.0,0.0,0.0,0.0,0.0,0.0,0.0,0.0,0.0,0.0,0.0,0.0,0.0,0.0,0.0,0.0,0.0,0.0,0.0,0.0,0.0,0.0,0.0,0.0,0.0,0.0,0.0,0.0,0.0,0.0,0.0,0.0,0.0,0.0,0.0,0.0,0.0,0.0,0.0,0.0,0.0,0.0,0.0,0.0,0.0,0.0,0.0,0.0,0.0,0.0,0.0,0.0,0.0,0.0,0.0,0.0,0.0,0.0,0.0,0.0,0.0,0.0,0.0,0.0,0.0,0.0,0.0,0.0,0.0,0.0,0.0,0.0,0.0,0.0,0.0,0.0,0.0,0.0,0.0,0.0,0.0,0.0,1.3238,1.4685,1.6943,1.7668,1.7787,1.7216,1.5629,1.4083,1.2773,1.1017,0.0,0.0,0.0,0.0,0.0,0.0,0.0,0.0,0.0,0.0,0.0,0.0,0.0,0.0,0.0,0.0,0.0,0.0,0.0,0.0,0.0,0.0,0.0,0.0,0.0,0.0,0.0,0.0,0.0,0.0,0.0,0.0,0.0,0.0,0.0,0.0,0.0,0.0,0.0,0.0,0.0,0.0,0.0,0.0,0.0,0.0,0.0,0.0,0.0,0.0,0.0,0.0,0.0,0.0,0.0,0.0,0.0,0.0,0.0,0.0,0.0,0.0,0.0,0.0,0.0,0.0,0.0,0.0,0.0,0.0,0.0,0.0,0.0,0.0,0.0,0.0,0.0,0.0,0.0,0.0,0.0,0.0,0.0,0.0,0.0,0.0,0.0,0.0,0.0,0.0,0.0,0.0,0.0,0.0,0.0,0.0,0.0,0.0,0.0,0.0,0.0,0.0,1.2708,1.4755,1.5327,1.6573,1.7164,1.6598,1.4746,1.336,1.2749,0.9917,0.0,0.0,0.0,0.0,0.0,0.0,0.0,0.0,0.0,0.0,0.0,0.0,0.0,0.0,0.0,0.0,0.0,0.0,0.0,0.0,0.0,0.0,0.0,0.0,0.0,0.0,0.0,0.0,0.0,0.0,0.0,0.0,0.0,0.0,0.0,0.0,0.0,0.0,0.0,0.0,0.0,0.0,0.0,0.0,0.0,0.0,0.0,0.0,0.0,0.0,0.0,0.0,0.0,0.0,0.0,0.0,0.0,0.0,0.0,0.0,0.0,0.0,0.0,0.0,0.0,0.0,0.0,0.0,0.0,0.0,0.0,0.0,0.0,0.0,0.0,0.0,0.0,0.0,0.0,0.0,0.0,0.0,0.0,0.0,0.0,0.0,0.0,0.0,0.0,0.0,0.0,0.0,0.0,0.0,0.0,0.0,0.0,0.0,0.0,0.0,0.0,0.0,1.2348,1.4147,0.0,1.6313,1.6675,1.6498,1.4923,1.3445,1.2281,0.0,0.0,0.0,0.0,0.0,0.0,0.0,0.0,0.0,0.0,0.0,0.0,0.0,0.0,0.0,0.0,0.0,0.0,0.0,0.0,0.0,0.0,0.0,0.0,0.0,0.0,0.0,0.0,0.0,0.0,0.0,0.0,0.0,0.0,0.0,0.0,0.0,0.0,0.0,0.0,0.0,0.0,0.0,0.0,0.0,0.0,0.0,0.0,0.0,0.0,0.0,0.0,0.0,0.0,0.0,0.0,0.0,0.0,0.0,0.0,0.0,0.0,0.0,0.0,0.0,0.0,0.0,0.0,0.0,0.0,0.0,0.0,0.0,0.0,0.0,0.0,0.0,0.0,0.0,0.0,0.0,0.0,0.0,0.0,0.0,0.0,0.0,0.0,0.0,0.0,0.0,0.0,0.0,0.0,0.0,0.0,0.0,0.0,0.0,0.0,0.0,0.0,1.069,1.2035,1.3656,0.0,1.644,1.6772,1.7094,1.5913,1.4403,1.2705,0.0,0.0,0.0,0.0,0.0,0.0,0.0,0.0,0.0,0.0,0.0,0.0,0.0,0.0,0.0,0.0,0.0,0.0,0.0,0.0,0.0,0.0,0.0,0.0,0.0,0.0,0.0,0.0,0.0,0.0,0.0,0.0,0.0,0.0,0.0,0.0,0.0,0.0,0.0,0.0,0.0,0.0,0.0,0.0,0.0,0.0,0.0,0.0,0.0,0.0,0.0,0.0,0.0,0.0,0.0,0.0,0.0,0.0,0.0,0.0,0.0,0.0,0.0,0.0,0.0,0.0,0.0,0.0,0.0,0.0,0.0,0.0,0.0,0.0,0.0,0.0,0.0,0.0,0.0,0.0,0.0,0.0,0.0,0.0,0.0,0.0,0.0,0.0,0.0,0.0,0.0,0.0,0.0,0.0,0.0,0.0,0.0,0.0,0.0,0.0,0.0,0.0,1.0623,1.1779,1.3447,1.6027,1.6854,1.7558,1.8423,1.7631,1.6226,0.0,0.0,0.0,0.0,0.0,0.0,0.0,0.0,0.0,0.0,0.0,0.0,0.0,0.0,0.0,0.0,0.0,0.0,0.0,0.0,0.0,0.0,0.0,0.0,0.0,0.0,0.0,0.0,0.0,0.0,0.0,0.0,0.0,0.0,0.0,0.0,0.0,0.0,0.0,0.0,0.0,0.0,0.0,0.0,0.0,0.0,0.0,0.0,0.0,0.0,0.0,0.0,0.0,0.0,0.0,0.0,0.0,0.0,0.0,0.0,0.0,0.0,0.0,0.0,0.0,0.0,0.0,0.0,0.0,0.0,0.0,0.0,0.0,0.0,0.0,0.0,0.0,0.0,0.0,0.0,0.0,0.0,0.0,0.0,0.0,0.0,0.0,0.0,0.0,0.0,0.0,0.0,0.0,0.0,0.0,0.0,0.0,0.0,0.0,0.0,0.0,0.0,0.0,1.1697,1.3882,1.5674,1.6686,1.7207,1.7609,1.7913,1.7339,1.5749,1.2877,0.0,0.0,0.0,0.0,0.0,0.0,0.0,0.0,0.0,0.0,0.0,0.0,0.0,0.0,0.0,0.0,0.0,0.0,0.0,0.0,0.0,0.0,0.0,0.0,0.0,0.0,0.0,0.0,0.0,0.0,0.0,0.0,0.0,0.0,0.0,0.0,0.0,0.0,0.0,0.0,0.0,0.0,0.0,0.0,0.0,0.0,0.0,0.0,0.0,0.0,0.0,0.0,0.0,0.0,0.0,0.0,0.0,0.0,0.0,0.0,0.0,0.0,0.0,0.0,0.0,0.0,0.0,0.0,0.0,0.0,0.0,0.0,0.0,0.0,0.0,0.0,0.0,0.0,0.0,0.0,0.0,0.0,0.0,0.0,0.0,0.0,0.0,0.0,0.0,0.0,0.0,0.0,0.0,0.0,0.0,0.0,0.0,0.0,0.0,0.0,0.0,0.0,1.2296,1.4494,1.6385,1.7545,1.7742,1.803,1.8648,1.8396,1.7066,1.4377,0.0,0.0,0.0,0.0,0.0,0.0,0.0,0.0,0.0,0.0,0.0,0.0,0.0,0.0,0.0,0.0,0.0,0.0,0.0,0.0,0.0,0.0,0.0,0.0,0.0,0.0,0.0,0.0,0.0,0.0,0.0,0.0,0.0,0.0,0.0,0.0,0.0,0.0,0.0,0.0,0.0,0.0,0.0,0.0,0.0,0.0,0.0,0.0,0.0,0.0,0.0,0.0,0.0,0.0,0.0,0.0,0.0,0.0,0.0,0.0,0.0,0.0,0.0,0.0,0.0,0.0,0.0,0.0,0.0,0.0,0.0,0.0,0.0,0.0,0.0,0.0,0.0,0.0,0.0,0.0,0.0,0.0,0.0,0.0,0.0,0.0,0.0,0.0,0.0,0.0,0.0,0.0,0.0,0.0,0.0,0.0,0.0,0.0,0.0,0.0,0.0,0.0,1.258,1.4395,1.6365,1.8568,1.8479,1.8797,2.0053,2.0181,1.9383,1.748,0.0,0.0,0.0,0.0,0.0,0.0,0.0,0.0,0.0,0.0,0.0,0.0,0.0,0.0,0.0,0.0,0.0,0.0,0.0,0.0,0.0,0.0,0.0,0.0,0.0,0.0,0.0,0.0,0.0,0.0,0.0,0.0,0.0,0.0,0.0,0.0,0.0,0.0,0.0,0.0,0.0,0.0,0.0,0.0,0.0,0.0,0.0,0.0,0.0,0.0,0.0,0.0,0.0,0.0,0.0,0.0,0.0,0.0,0.0,0.0,0.5281,0.0,0.0,0.0,0.0,0.0,0.0,0.0,0.0,0.0,0.0,0.0,0.0,0.0,0.0,0.0,0.0,0.0,0.0,0.0,0.0,0.0,0.0,0.0,0.0,0.0,0.0,0.0,0.0,0.0,0.0,0.0,0.0,0.0,0.0,0.0,0.0,0.0,0.0,0.0,0.0,0.0,1.3421,1.6583,1.8919,1.9442,1.9544,1.9729,2.0008,2.0155,1.9278,1.7132,1.6904,0.0,0.0,0.0,0.0,0.0,0.0,0.0,0.0,0.0,0.0,0.0,0.0,0.0,0.0,0.0,0.0,0.0,0.0,0.0,0.0,0.0,0.0,0.0,0.0,0.0,0.0,0.0,0.0,0.0,0.0,0.0,0.0,0.0,0.0,0.0,0.0,0.0,0.0,0.0,0.0,0.0,0.0,0.0,0.0,0.0,0.0,0.0,0.0,0.0,0.0,0.0,0.0,0.0,0.0,0.0,0.0,0.0,0.0,0.0,0.0,0.5992,0.0,0.0,0.0,0.0,0.0,0.0,0.0,0.0,0.0,0.0,0.0,0.0,0.0,0.0,0.0,0.0,0.0,0.0,0.0,0.0,0.0,0.0,0.0,0.0,0.0,0.0,0.0,0.0,0.0,0.0,0.0,0.0,0.0,0.0,0.0,0.0,0.0,0.0,0.0,0.0,1.3893,1.7033,1.9209,1.9334,1.9461,1.952,1.952,1.9675,1.931,1.822,1.7654,0.0,0.0,0.0,0.0,0.0,0.0,0.0,0.0,0.0,0.0,0.0,0.0,0.0,0.0,0.0,0.0,0.0,0.0,0.0,0.0,0.0,0.0,0.0,0.0,0.0,0.0,0.0,0.0,0.0,0.0,0.0,0.0,0.0,0.0,0.0,0.0,0.0,0.0,0.0,0.0,0.0,0.0,0.0,0.0,0.0,0.0,0.0,0.0,0.0,0.0,0.0,0.0,0.0,0.4251,0.4297,0.4325,0.4041,0.4384,0.5173,0.4844,0.5758,0.7422,0.6595,0.0,0.0,0.0,0.0,0.0,0.0,0.0,0.0,0.0,0.0,0.0,0.0,0.0,0.0,0.0,0.0,0.0,0.0,0.0,0.0,0.0,0.0,0.0,0.0,1.2102,1.259,1.1769,0.0,0.0,0.0,0.0,0.0,0.0,0.0,0.0,0.0,0.0,0.0,1.4258,1.6856,1.8677,1.8895,1.8971,1.9017,1.9047,1.9243,1.941,1.9554,1.8431,1.7546,0.0,0.0,0.0,0.0,0.0,0.0,0.0,0.0,0.0,0.0,0.0,0.0,0.0,0.0,0.0,0.0,0.0,0.0,0.0,0.0,0.0,0.0,0.0,0.0,0.0,0.0,0.0,0.0,0.0,0.0,0.0,0.0,0.4238,0.5515,0.0,0.0,0.0,0.0,0.0,0.0,0.0,0.0,0.0,0.0,0.0,0.0,0.0,0.4506,0.4717,0.3834,0.3414,0.3437,0.2299,0.1892,0.2123,0.2018,0.2249,0.2764,0.2704,0.0,0.6581,0.5666,0.0,0.0,0.0,0.0,0.0,0.0,0.0,0.0,0.0,0.0,0.0,0.0,0.0,0.0,0.0,0.0,0.0,0.0,0.0,0.0,0.0,0.0,1.1917,1.2725,1.328,1.3777,0.0,1.2468,1.0713,1.055,1.0496,0.0,0.0,0.0,0.0,0.0,0.0,0.0,1.4689,1.7021,1.8527,1.856,1.8878,1.9125,1.9261,1.944,1.9652,1.9846,1.9928,1.9207,1.7484,1.7133,0.0,0.0,0.0,0.0,0.0,0.0,0.0,0.0,0.0,0.0,0.0,0.0,0.0,0.0,0.0,0.0,0.0,0.0,0.0,0.0,0.0,0.0,0.0,0.0,0.0,0.0,0.0,0.0,0.0,0.4171,0.4316,0.5993,0.4727,0.4473,0.0,0.0,0.0,0.0,0.0,0.0,0.0,0.0,0.0,0.227,0.2481,0.2388,0.1927,0.1457,0.127,0.1375,0.0952,0.0802,0.0916,0.1202,0.1424,0.165,0.1898,0.2809,0.413,0.4606,0.5398,0.6318,0.0,0.0,0.0,0.0,0.8396,0.823,0.8537,0.8474,0.8114,0.727,0.0,0.0,0.0,0.0,0.0,0.0,0.0,0.0,0.0,0.0,1.167,1.232,1.2742,1.3121,1.3533,1.2746,1.1993,0.0,1.2117,1.1597,0.9597,0.0,0.0,0.0,0.0,1.4284,1.5522,1.7166,1.8337,1.8691,1.8688,1.8722,1.8894,1.8957,1.9011,1.911,1.9528,1.9415,1.8542,1.767,1.6535,0.0,0.0,0.0,0.0,0.0,0.0,0.0,0.0,0.0,0.0,0.0,0.0,0.0,0.0,0.0,0.0,0.0,0.0,0.0,0.0,0.0,0.0,0.0,0.0,0.0,0.0,0.0,0.0,0.3889,0.3674,0.5586,0.4181,0.3711,0.0,0.0,0.0,0.0,0.0,0.0,0.1262,0.1387,0.1016,0.0,0.0296,0.0044,-0.0792,-0.0676,-0.054,-0.0381,-0.0119,0.0048,0.0143,0.0524,0.0787,0.0906,0.1263,0.1597,0.2031,0.3493,0.4731,0.575,0.6035,0.615,0.6303,0.7537,0.7758,0.7504,0.7902,0.7779,0.7346,0.6789,0.6818,0.7126,0.7324,0.0,0.0,0.0,0.0,0.911,0.9587,1.0222,1.0874,1.1409,1.1734,1.2024,1.2388,1.2596,1.2804,0.0,1.3357,1.279,1.0389,0.0,0.0,0.0,0.0,1.495,1.5999,1.7044,1.7858,1.8323,1.8226,1.8237,1.8415,1.8344,1.833,1.8452,1.8775,1.8998,1.9081,1.8085,1.7492,1.7385,0.0,0.0,0.0,0.0,0.0,0.0,0.0,0.0,0.0,0.0,0.0,0.0,0.0,0.0,0.0,0.0,0.0,0.0,0.0,0.0,0.0,0.0,0.0,0.0,0.0,0.0,0.0,0.0,0.0,0.3729,0.2725,0.0,0.0,0.0,0.0,0.1395,0.0061,-0.0766,-0.1024,-0.1907,-0.2449,-0.2527,-0.2082,-0.1873,-0.1929,-0.1405,-0.1143,-0.1144,-0.0882,-0.062,-0.0358,-0.0334,-0.0072,0.0334,0.0358,0.0668,0.1237,0.2271,0.3074,0.3648,0.3592,0.4046,0.4843,0.5919,0.6502,0.6813,0.7209,0.7209,0.6984,0.6683,0.7042,0.7531,0.7355,0.7516,0.0,0.0,0.761,0.7998,0.8538,0.8943,0.9442,1.0337,1.0586,1.0889,1.1895,1.2051,1.2244,0.0,1.3554,1.3521,1.2979,0.0,1.2793,1.3666,1.3791,1.4281,1.5724,1.6453,1.6882,1.6901,1.7393,1.7822,1.8008,1.7842,1.7906,1.8296,1.8151,1.8206,1.8526,1.8649,1.8033,1.6595,1.6623,0.0,0.0,0.0,0.0,0.0,0.0,0.0,0.0,0.0,0.0,0.0,0.0,0.0,0.0,0.0,0.0,0.0,0.0,0.0,0.0,0.0,0.0,0.0,0.0,0.0,0.0,0.0,0.0,0.2997,0.0585,0.0,0.0993,0.0312,-0.0276,-0.0424,-0.1941,-0.2904,-0.3,-0.3249,-0.3312,-0.3092,-0.2796,-0.2549,-0.2324,-0.2126,-0.2003,-0.1978,-0.1706,-0.1434,-0.1163,-0.099,-0.0718,-0.0396,-0.0223,0.0049,0.0444,0.0956,0.1759,0.2679,0.2821,0.3325,0.3998,0.4379,0.4929,0.551,0.5634,0.5674,0.5644,0.5682,0.6158,0.6713,0.6821,0.7045,0.7265,0.7337,0.7489,0.7684,0.7994,0.8506,0.9018,0.9492,0.9698,1.0052,1.0942,1.1098,1.1295,1.2086,1.2862,1.3107,1.2218,1.2983,1.3596,1.3273,1.4018,1.4954,1.5916,1.6224,1.6505,1.6888,1.689,1.7009,1.7377,1.7239,1.7235,1.7494,1.7824,1.7926,1.7785,1.8224,1.8158,1.7488,1.7663,1.6351,0.0,0.0,0.0,0.0,0.0,0.0,0.0,0.0,0.0,0.0,0.0,0.0,0.0,0.0,0.0,0.0,0.0,0.0,0.0,0.0,0.0,0.0,0.0,0.0,0.0,0.0,-0.083,0.0569,-0.1565,-0.2736,-0.1637,-0.2342,-0.287,-0.2891,-0.3992,-0.4663,-0.4663,-0.4514,-0.4263,-0.3959,-0.3699,-0.3417,-0.3109,-0.293,-0.2825,-0.2773,-0.2391,-0.2108,-0.193,-0.1738,-0.1503,-0.1223,-0.0937,-0.0656,-0.0378,-0.0025,0.0656,0.1502,0.2006,0.2569,0.3138,0.3206,0.3649,0.423,0.4342,0.4449,0.4599,0.4779,0.5205,0.57,0.5951,0.6218,0.6485,0.673,0.6861,0.7029,0.7324,0.778,0.823,0.8531,0.87,0.8988,0.9755,0.9989,1.0198,1.0801,1.1935,1.2575,1.1878,1.2856,1.3575,1.3149,1.3911,1.4775,1.5503,1.5619,1.5824,1.6304,1.6321,1.6421,1.6741,1.6515,1.6511,1.6845,1.7073,1.7189,1.7205,1.7429,1.7545,1.7486,1.7604,1.6437,1.3862,0.0,0.0,0.0,0.0,0.0,0.0,0.0,0.0,0.0,0.0,0.0,0.0,0.0,0.0,0.0,0.0,0.0,0.0,0.0,0.0,0.0,0.0,0.0,-0.0944,-0.2544,-0.3764,-0.3584,-0.3722,-0.4477,-0.6169,-0.4743,-0.4344,-0.5907,-0.6018,-0.6018,-0.6023,-0.5784,-0.5519,-0.5231,-0.4912,-0.4589,-0.4326,-0.3787,-0.3518,-0.3515,-0.293,-0.2637,-0.2635,-0.2565,-0.2388,-0.21,-0.1785,-0.1467,-0.1163,-0.0657,-0.0278,0.0075,0.0998,0.1687,0.2181,0.2383,0.2726,0.3126,0.3389,0.3646,0.3886,0.4011,0.4299,0.4604,0.4803,0.5037,0.5309,0.5485,0.5693,0.5969,0.6426,0.6695,0.6978,0.7439,0.7542,0.7733,0.8421,0.8717,0.9003,0.9475,1.0838,1.1993,1.2226,1.2328,1.2647,1.3448,1.3469,0.0,1.4465,1.4635,1.4776,1.5048,1.5658,1.6051,1.6051,1.5705,1.5755,1.6356,1.5915,1.5964,1.6735,1.634,1.6249,1.6497,1.6467,1.5955,1.4977,0.0,0.0,0.0,0.0,0.0,0.0,0.0,0.0,0.0,0.0,0.0,0.0,0.0,0.0,0.0,0.0,0.0,0.0,0.0,0.0,0.0,-0.3992,-0.4656,-0.2586,-0.3705,-0.4765,-0.4787,-0.5858,-0.6703,-0.7008,-0.6348,-0.6059,-0.641,-0.63,-0.6268,-0.6344,-0.6337,-0.6208,-0.5919,-0.561,-0.5269,-0.4953,-0.4474,-0.42,-0.4151,-0.3939,-0.3621,-0.3247,-0.3231,-0.2933,-0.2458,-0.2369,-0.2033,-0.1543,-0.1397,-0.1052,-0.0494,0.0344,0.0962,0.1431,0.1688,0.2156,0.267,0.2759,0.2944,0.3172,0.3213,0.3515,0.3864,0.3822,0.4103,0.4432,0.4378,0.4652,0.5012,0.5298,0.5651,0.6025,0.6301,0.6523,0.6826,0.7389,0.7869,0.8282,0.8649,0.948,1.0374,1.1211,1.1484,1.1916,1.2814,1.2918,0.0,1.3922,1.3991,1.4102,1.4474,1.4689,1.4909,1.5214,1.5132,1.5291,1.5848,1.5943,1.5992,1.6063,1.6427,1.6634,1.6721,1.567,1.4841,0.0,0.0,0.0,0.0,0.0,0.0,0.0,0.0,0.0,0.0,0.0,0.0,0.0,0.0,0.0,0.0,0.0,0.0,0.0,0.0,0.0,0.0,-0.6363,-0.7186,-0.6002,-0.6302,-0.674,-0.7033,-0.8035,-0.8573,-0.8222,-0.8008,-0.7763,-0.7421,-0.7291,-0.7248,-0.7347,-0.7388,-0.7221,-0.6813,-0.6613,-0.6206,-0.5573,-0.5201,-0.4924,-0.4739,-0.4582,-0.4335,-0.4055,-0.4027,-0.3726,-0.3211,-0.308,-0.2719,-0.2227,-0.2127,-0.172,0.0,0.0,0.0,0.0,0.0,0.1577,0.193,0.2003,0.213,0.2285,0.2397,0.269,0.302,0.3027,0.3301,0.3572,0.3506,0.3818,0.4209,0.4334,0.4698,0.5127,0.5448,0.5641,0.5895,0.6398,0.6922,0.7344,0.7586,0.812,0.0,0.9826,1.0452,1.1109,1.2022,1.211,1.237,1.3149,1.3268,1.3405,1.3717,1.396,1.4177,1.4378,1.4313,0.0,0.0,0.0,1.5298,1.5345,1.5753,0.0,0.0,0.0,0.0,0.0,0.0,0.0,0.0,1.4612,1.463,0.0,0.0,0.0,0.0,0.0,0.0,0.0,0.0,0.0,0.0,0.0,0.0,0.0,0.0,0.0,0.0,-0.852,-0.95,-0.9975,-0.9496,-0.9235,-0.9542,-0.9904,-0.9966,-0.9541,-0.9453,-0.9204,-0.8692,-0.8588,-0.8577,-0.8589,0.0,0.0,0.0,0.0,-0.7276,-0.6359,-0.6042,-0.5705,-0.5326,-0.5068,-0.4914,-0.4852,-0.4781,-0.4544,-0.417,-0.3855,-0.3491,-0.3056,-0.2815,-0.2352,-0.172,-0.0815,-0.0288,0.0048,0.0725,0.0975,0.0996,0.1205,0.0,0.0,0.1598,0.1865,0.211,0.2289,0.2533,0.2735,0.274,0.3082,0.3445,0.3474,0.3837,0.4306,0.4755,0.4889,0.5024,0.5472,0.5941,0.6306,0.643,0.6834,0.7432,0.8278,0.9265,1.0246,1.1146,1.1197,1.1418,1.226,1.2485,1.2643,1.2837,0.0,0.0,1.3605,1.3451,1.3622,1.4279,1.4175,1.428,1.4676,1.481,1.4925,1.5046,1.5006,1.5311,1.5962,1.5739,1.572,1.586,1.4864,1.4688,0.0,0.0,0.0,0.0,0.0,0.0,0.0,0.0,0.0,0.0,0.0,0.0,0.0,0.0,0.0,-0.7784,-0.9483,-1.0818,-1.0926,-1.0981,-1.0757,-1.0219,-1.0205,-1.0235,-1.0127,-0.9776,-0.9568,-0.9546,-0.9202,-0.9038,-0.9149,-0.9155,-0.9099,-0.8973,-0.8723,-0.8346,-0.788,-0.7383,-0.6836,-0.6163,0.0,0.0,-0.5119,-0.5104,-0.494,-0.4664,-0.4589,-0.4195,-0.3553,-0.3498,-0.306,-0.2309,-0.122,-0.0619,-0.0268,0.0072,0.019,0.0166,0.0425,0.0513,0.0552,0.0828,0.1091,0.1323,0.1368,0.1525,0.0,0.1761,0.2116,0.2516,0.2743,0.3178,0.3648,0.3879,0.4114,0.4352,0.4657,0.5101,0.5434,0.5458,0.5984,0.6594,0.7197,0.8196,0.9268,1.0412,1.0563,1.0766,1.138,1.1667,1.1867,1.2025,1.2316,1.2648,1.3021,1.3017,1.3228,1.3796,1.3999,1.4282,1.4668,1.4729,1.4911,1.5315,1.5056,1.4987,1.5126,1.5138,1.5162,1.5211,1.5392,1.5641,0.0,0.0,0.0,0.0,0.0,0.0,0.0,0.0,0.0,0.0,0.0,-0.555,-0.686,0.0,-0.8743,-0.9605,-1.0694,-1.1504,-1.1798,-1.1939,-1.1791,-1.1224,-1.1091,-1.0999,-1.0905,-1.068,-1.0555,-1.0566,-1.0183,-0.9974,-1.0047,-0.9895,-0.9729,-0.957,-0.9379,-0.906,-0.8556,-0.8274,-0.7801,-0.7108,-0.6919,-0.6514,-0.5908,-0.5832,-0.5514,-0.506,-0.506,-0.4757,-0.422,-0.3845,-0.3367,-0.2777,-0.2039,-0.1474,-0.1007,-0.0741,-0.0659,-0.0628,-0.0502,-0.045,-0.0376,0.0023,0.0232,0.0364,0.0501,0.061,0.0743,0.0896,0.118,0.1511,0.1778,0.2216,0.2668,0.2904,0.3165,0.345,0.3857,0.4213,0.451,0.4698,0.5233,0.5791,0.6211,0.6867,0.7827,0.9353,0.9591,0.9789,1.0339,1.0739,1.1024,1.1101,1.1583,1.1982,1.2242,1.2586,1.2922,1.319,1.3455,1.378,1.4175,1.4093,1.4279,1.4741,1.467,1.4661,1.4661,1.4738,1.481,1.4816,1.5112,1.5565,0.0,0.0,0.0,0.0,0.0,0.0,0.0,-0.498,-0.5452,-0.642,-0.6866,-0.7543,-0.905,-0.9377,-0.9951,-1.1512,-1.1862,-1.2131,-1.2703,-1.2743,-1.2661,-1.2518,-1.2157,-1.1882,-1.1703,-1.1627,-1.1533,-1.1425,-1.1143,-1.1005,-1.1005,-1.0653,-1.0365,-1.0063,-0.9999,-0.9684,-0.9074,-0.905,-0.868,-0.8039,-0.7886,-0.7509,-0.6894,-0.6712,-0.6285,-0.5712,-0.5542,-0.535,-0.5046,-0.4341,-0.3847,-0.3451,-0.3109,-0.264,-0.2091,-0.1644,-0.1463,-0.1437,-0.1389,-0.1376,-0.1295,-0.0863,-0.0686,-0.0582,-0.0372,-0.0276,-0.0182,0.0093,0.0328,0.0564,0.0888,0.1278,0.1664,0.1951,0.224,0.2601,0.3036,0.3346,0.3626,0.3957,0.4434,0.4921,0.5222,0.5561,0.6387,0.8205,0.8478,0.8701,0.9303,0.9797,1.0117,1.0167,1.083,1.1327,1.1441,1.209,1.2481,1.2481,1.2732,1.3083,1.3479,1.3296,1.3438,1.3949,1.4074,1.416,1.4216,1.4344,1.4438,1.4424,1.4513,1.5048,-0.0095,-0.1001,-0.2864,-0.3792,-0.469,-0.5507,0.0,-0.7267,-0.8473,-0.9063,-1.014,-1.1159,-1.176,-1.1996,-1.2144,-1.2355,-1.2862,-1.3335,-1.3684,-1.3651,-1.3721,-1.4175,-1.3154,-1.2412,-1.2398,-1.2123,-1.1929,-1.192,-1.1773,-1.1691,-1.1691,-1.1296,-1.1066,-1.1033,-1.0736,-1.0406,-1.0042,-0.9915,-0.9532,-0.885,-0.8718,-0.8408,-0.7926,-0.7598,-0.7346,-0.7118,-0.6473,-0.6159,-0.6107,-0.5607,-0.5186,-0.485,-0.4438,-0.4058,-0.3607,-0.2504,-0.2199,-0.2319,-0.2082,-0.1962,-0.1909,-0.1835,-0.1667,-0.145,-0.1425,-0.1258,-0.0999,-0.0752,-0.0488,-0.0172,0.035,0.0703,0.0979,0.1255,0.1705,0.2081,0.2156,0.2556,0.2909,0.2967,0.3394,0.3845,0.4131,0.4609,0.5486,0.7135,0.7385,0.7658,0.8428,0.88,0.9072,0.9311,0.9846,1.0379,1.0843,1.1403,1.1735,1.1735,1.1973,1.2325,1.2802,1.2561,1.2753,1.3464,1.3326,1.3328,1.3519,1.3704,1.3797,1.3805,1.3933,1.4408,-0.322,-0.3567,-0.4654,-0.6727,-0.7677,-0.8392,-0.9421,-1.0272,-1.0949,-1.1314,-1.1843,-1.2379,-1.2856,-1.3103,-1.3327,-1.3521,-1.3932,-1.429,-1.451,-1.448,-1.4588,-1.4991,-1.4435,-1.3852,-1.3474,-1.3146,-1.2992,-1.3093,-1.266,-1.2371,-1.2371,-1.1843,-1.1545,-1.1545,-1.1413,-1.1148,-1.0784,-1.0722,-1.0366,-0.9707,-0.9565,-0.9182,-0.861,-0.83,-0.7893,-0.7383,-0.6881,-0.6522,-0.6278,-0.608,-0.5776,-0.5365,-0.5212,-0.4893,-0.4426,-0.351,-0.3236,-0.3286,-0.3148,-0.3079,-0.301,-0.2779,-0.2611,-0.2496,-0.2351,-0.2188,-0.1985,-0.1611,-0.1425,-0.1232,-0.0854,-0.0483,-0.0154,-0.0051,0.0387,0.0833,0.0989,0.1343,0.1691,0.1845,0.2439,0.2924,0.305,0.3654,0.4383,0.5211,0.6012,0.6742,0.7391,0.7708,0.8155,0.8882,0.9171,0.9525,1.0068,1.0578,1.0896,1.0896,1.1295,1.1693,1.2043,1.1947,1.2114,1.258,1.2629,1.276,1.2988,1.3222,1.3413,1.3519,1.3684,1.3959,-0.5609,-0.6177,-0.7259,-0.9461,-1.0398,-1.1049,-1.2248,-1.2633,-1.281,-1.3086,-1.3257,-1.3477,-1.3877,-1.4166,-1.4431,-1.4742,-1.4986,-1.5165,-1.5349,-1.537,-1.5453,-1.5721,-1.5539,-1.5214,-1.4782,-1.4189,-1.3896,-1.403,-1.3457,-1.3095,-1.3095,-1.2568,-1.2173,-1.2074,-1.1975,-1.1743,-1.138,-1.138,-1.1082,-1.0452,-1.0379,-1.0012,-0.9415,-0.9046,-0.8505,-0.7859,-0.7465,-0.716,-0.6869,-0.675,-0.6439,-0.6074,-0.6014,-0.572,-0.5262,-0.4869,-0.448,-0.4146,-0.4093,-0.4116,-0.4112,-0.3706,-0.3575,-0.3533,-0.3317,-0.3155,-0.2985,-0.2636,-0.2497,-0.2357,-0.2011,-0.1713,-0.1425,-0.1269,-0.0893,-0.0506,-0.0239,0.0158,0.0496,0.0705,0.1395,0.1968,0.1958,0.2693,0.3347,0.3531,0.4583,0.5611,0.6367,0.6842,0.7409,0.828,0.8428,0.8676,0.9229,0.9698,0.9994,1.0068,1.0572,1.0996,1.1259,1.1328,1.1531,1.1875,1.2024,1.2248,1.2518,1.269,1.2869,1.3021,1.3243,1.337,-0.6692,-0.8943,-1.1395,-1.1721,-1.2597,-1.3474,-1.3769,-1.3846,-1.3923,-1.4216,-1.4673,-1.5098,-1.5295,-1.5513,-1.5725,-1.6009,-1.6014,-1.6041,-1.6217,-1.6249,-1.6377,-1.6624,-1.6297,-1.6169,-1.6398,-1.5183,-1.4366,-1.4366,-1.4071,-1.3875,-1.3875,-1.3547,-1.3153,-1.2766,-1.2444,-1.2114,-1.1776,-1.1776,-1.1578,-1.1181,-1.1181,-1.0899,-1.0415,-0.9841,-0.9368,-0.9013,-0.8547,-0.8336,-0.8294,-0.7837,-0.7484,-0.7224,-0.7111,-0.6768,-0.6389,-0.6702,-0.5949,-0.4773,-0.4769,-0.4936,-0.5088,-0.4683,-0.4549,-0.4534,-0.4383,-0.4157,-0.3952,-0.3952,-0.3751,-0.3425,-0.2901,-0.2836,-0.2796,-0.2203,-0.1892,-0.1677,-0.1411,-0.0878,-0.0452,-0.0452,0.0266,0.0846,0.0857,0.1735,0.2446,0.2452,0.3151,0.4157,0.5461,0.6317,0.6917,0.721,0.7484,0.7857,0.8379,0.8701,0.8949,0.9212,0.9747,1.0158,1.0429,1.0702,1.1067,1.1613,1.1613,1.175,1.2015,1.2037,1.2036,1.2037,1.2326,1.2528,-0.9996,-1.1276,-1.2264,-1.3258,-1.4047,-1.4577,-1.4674,-1.5134,-1.552,-1.5391,-1.4801,-1.4281,-1.4224,-1.4677,-1.503,-1.4995,-1.6216,-1.7184,-1.7227,-1.7229,-1.7224,-1.7225,-1.7118,-1.699,-1.6839,-1.6006,0.0,-1.5443,-1.4898,-1.4627,-1.4756,-1.4234,-1.3929,-1.3924,-1.3561,-1.3189,-1.2851,-1.2497,-1.2134,-1.1732,-1.1629,-1.1326,-1.0811,-1.0392,-0.9919,-0.9399,-0.9044,-0.8817,-0.8732,-0.8563,-0.8401,-0.823,-0.8183,-0.7879,-0.7471,-0.7481,-0.7195,-0.6713,-0.6183,-0.5899,-0.5773,-0.5593,-0.5591,-0.5609,-0.5397,-0.5213,-0.5035,-0.4839,-0.4609,-0.4358,-0.4182,-0.3972,-0.3745,-0.3537,-0.3237,-0.2921,-0.2588,-0.2237,-0.1895,-0.168,-0.0913,-0.0319,-0.0317,0.0607,0.1573,0.2292,0.3228,0.4157,0.496,0.5466,0.5917,0.6367,0.6637,0.6996,0.7433,0.781,0.8147,0.8516,0.8967,0.932,0.9599,1.0033,1.0376,1.0591,1.0905,1.1215,1.1465,1.1647,1.1733,1.1729,1.2014,1.2099,-1.2608,-1.3514,-1.4118,-1.5103,-1.5668,-1.598,-1.5992,-1.6444,-1.6752,-1.6542,-1.53,-1.4175,-1.4056,-1.3878,-1.3974,-1.4677,-1.6104,-1.7333,-1.7938,-1.8108,-1.8029,-1.7711,-1.769,-1.7595,-1.7347,-1.6935,0.0,-1.6357,-1.5735,-1.5503,-1.5706,-1.5179,-1.4873,-1.4898,-1.4498,-1.4122,-1.3814,-1.3322,-1.2785,-1.221,-1.1917,-1.1626,-1.1286,-1.1001,-1.0674,-1.0303,-0.9872,-0.9642,-0.9511,-0.9389,-0.9238,-0.908,-0.908,-0.8813,-0.8418,-0.8443,-0.8267,-0.7932,-0.721,-0.6882,-0.6751,-0.6583,-0.66,-0.661,-0.6412,-0.6236,-0.6098,-0.5921,-0.564,-0.5361,-0.5261,-0.5047,-0.4816,-0.4684,-0.4453,-0.4145,-0.381,-0.3442,-0.3088,-0.2895,-0.2131,-0.1542,-0.1532,-0.0588,0.0557,0.1652,0.2486,0.3326,0.4264,0.4612,0.4939,0.5391,0.5762,0.6118,0.6464,0.6948,0.7396,0.7744,0.8192,0.8564,0.8829,0.9309,0.969,0.9905,1.0325,1.0657,1.0912,1.1099,1.1244,1.1339,1.1446,1.1563,-1.4494,-1.5642,-1.681,-1.7129,-1.7421,-1.7629,-1.7629,-1.7657,-1.7682,-1.7667,-1.6089,-1.4751,-1.4878,-1.334,-1.2841,-1.5197,-1.5847,-1.6677,-1.8381,-1.8859,-1.8788,-1.8166,-1.8068,-1.8029,-1.7972,-1.795,0.0,-1.7035,0.0,-1.6462,-1.6719,-1.6346,-1.6016,-1.5695,-1.531,-1.4935,-1.4593,-1.4173,-1.3525,-1.2689,-1.2165,-1.1891,-1.1843,-1.171,-1.1635,-1.1588,-1.1072,-1.0762,-1.0619,-1.0301,-1.0026,-0.9859,-0.9852,-0.9613,-0.9308,-0.9568,-0.9209,-0.8559,-0.7961,-0.7872,-0.798,-0.7683,-0.7582,-0.7552,-0.7428,-0.7293,-0.7186,-0.7186,-0.685,-0.6433,-0.6183,-0.6092,-0.5991,-0.5669,-0.5515,-0.5373,-0.5011,-0.4484,-0.4064,-0.4036,-0.3334,-0.2732,-0.2713,-0.1725,-0.056,0.0533,0.0959,0.1709,0.3321,0.3786,0.4038,0.434,0.4839,0.524,0.5516,0.6139,0.6636,0.693,0.7437,0.7853,0.8141,0.8521,0.8989,0.9501,0.9797,1.0081,1.0356,1.038,1.0532,1.0852,1.0658,1.0965,-1.6456,-1.7058,-1.7393,-1.7477,-1.7728,-1.7978,-1.7978,-1.8287,-1.8553,-1.8563,-1.5955,-1.421,-1.5898,-1.4367,-1.366,-1.6215,-1.7565,-1.8522,-1.9184,-1.9168,-1.9075,-1.9066,-1.8872,-1.8798,-1.8868,-1.8676,0.0,0.0,-1.743,-1.7068,-1.7286,-1.6953,-1.6782,-1.6857,-1.6463,-1.6113,-1.5772,-1.4963,-1.4302,-1.3805,-1.3386,-1.2995,-1.2536,-1.2258,-1.1944,-1.1595,-1.1454,-1.1278,-1.1099,-1.0911,-1.08,-1.0749,-1.0594,-1.0491,-1.038,-1.0354,-1.0377,-1.0399,-1.0076,-0.9333,-0.8536,-0.8533,-0.8607,-0.8676,-0.8662,-0.8566,-0.8529,-0.8529,-0.8112,-0.7644,-0.7593,-0.7299,-0.6958,-0.6695,-0.6503,-0.6209,-0.568,-0.529,-0.4955,-0.4707,-0.3977,-0.3217,-0.2785,-0.2059,-0.1331,-0.057,-0.0081,0.0818,0.2504,0.2986,0.3329,0.3761,0.4106,0.4459,0.4826,0.5277,0.5746,0.6218,0.6671,0.7032,0.7295,0.7788,0.8172,0.8418,0.8874,0.9329,0.9804,1.0,1.0173,1.0314,1.0401,1.0571,-1.7897,-1.8179,-1.8213,-1.8355,-1.8525,-1.8418,-1.7446,-1.7453,-1.7378,-1.6402,-1.3734,-1.2348,-1.4738,-1.3365,-1.3006,-1.6382,-1.7711,-1.8608,-1.9378,-1.9576,-1.9594,-1.9456,-1.9507,-1.9539,-1.9426,-1.9288,-1.9141,0.0,-1.8287,-1.7855,-1.7871,-1.7569,-1.7446,-1.7545,-1.7157,-1.677,-1.6426,-1.5656,-1.5089,-1.4692,-1.4152,-1.3687,-1.3178,-1.2906,-1.2554,-1.2132,0.0,-1.2031,-1.1868,-1.1799,-1.1643,-1.1495,-1.1363,-1.1278,-1.1231,-1.1138,-1.1256,-1.1411,-1.1352,-1.0817,-1.009,-0.9763,-0.9605,-0.9545,-0.9615,-0.9529,-0.9482,-0.9614,-0.9271,-0.882,-0.8689,-0.8435,-0.8089,-0.7684,-0.7429,-0.716,-0.6687,-0.6265,-0.5791,-0.5234,-0.4732,-0.4145,-0.339,-0.2892,-0.2377,-0.1768,-0.1206,-0.0406,0.0798,0.1793,0.25,0.2864,0.3267,0.3652,0.3968,0.4471,0.4992,0.554,0.5948,0.6334,0.6724,0.7139,0.7493,0.7737,0.8259,0.8707,0.908,0.9352,0.9551,0.9697,0.9854,1.0061,-1.8886,-1.8957,-1.9026,-1.933,-1.9401,-1.8824,-1.6602,-1.6088,-1.5418,-1.3191,-1.0972,-1.0331,-1.3187,-1.2089,-1.2201,-1.6611,-1.7482,-1.8076,-1.9429,-1.995,-2.0083,-1.9745,-2.0071,-2.0179,-1.9943,-1.9862,-1.9806,-1.9669,-1.914,-1.8702,-1.8493,-1.8153,-1.7966,-1.7966,-1.759,-1.7193,-1.6875,-1.6339,-1.5886,-1.5536,-1.4758,-1.4234,-1.3897,-1.3617,-1.3268,-1.2931,-1.2931,-1.2873,-1.2758,-1.2733,-1.2544,-1.2217,-1.2137,-1.2053,-1.1974,-1.1919,-1.1941,-1.2006,-1.2124,-1.2153,-1.2005,-1.111,-1.0622,-1.0393,-1.0481,-1.0397,-1.0296,-1.0568,-1.0312,-0.9928,-0.9692,-0.9488,-0.9196,-0.8622,-0.8339,-0.8103,-0.7826,-0.7271,-0.6571,-0.5736,-0.5509,-0.5178,-0.4344,-0.3952,-0.3558,-0.2912,-0.2326,-0.1757,-0.1154,0.0405,0.1566,0.1825,0.2362,0.2808,0.3017,0.3667,0.4265,0.4763,0.5226,0.5699,0.6215,0.6484,0.6857,0.7319,0.7782,0.8119,0.8314,0.8556,0.8822,0.9105,0.9146,0.9485,-1.9225,-1.929,-1.933,-1.9401,-1.9401,-1.8824,-1.6602,-1.5955,-1.5286,-1.3351,-1.0919,-1.0672,-1.5522,-1.4354,-1.4294,-1.9386,-1.9628,-1.9427,-2.0059,-1.9866,-1.9926,-2.0724,-2.0519,-2.0533,-2.1137,-2.0801,0.0,0.0,-1.9901,-1.9576,-1.8924,-1.8538,-1.8293,-1.8293,-1.7966,-1.7756,-1.7685,-1.7268,-1.6947,-1.6678,-1.5792,-1.5244,-1.5,-1.417,-1.3777,-1.3711,-1.3711,0.0,-1.365,-1.3503,-1.3398,-1.3303,-1.2959,-1.2812,-1.276,-1.2604,-1.2724,-1.2955,-1.2988,-1.3009,-1.2877,-1.2165,-1.1891,-1.1799,-1.1675,-1.1597,-1.1564,-1.1427,-1.114,-1.087,-1.0816,-1.0459,-1.0018,-0.9634,-0.9354,-0.9071,-0.8733,-0.8036,-0.726,-0.6599,-0.607,-0.5596,-0.5234,-0.4899,-0.44,-0.3558,-0.311,-0.266,-0.204,-0.066,0.0486,0.0956,0.1491,0.1941,0.2194,0.2936,0.3471,0.3655,0.4364,0.4948,0.5316,0.5633,0.6157,0.69,0.701,0.7333,0.7916,0.796,0.8179,0.8535,0.8555,0.896,-1.8821,-1.8892,-1.8894,-1.8894,-1.8894,-1.8033,-1.4856,-1.3997,-1.2987,-0.9836,-0.8146,-0.8434,-1.2386,-1.2214,-1.2713,-1.645,-1.675,-1.6954,-1.8239,-1.8338,-1.8913,-2.0691,-2.0918,-2.1027,-2.1268,-2.1063,-2.0775,-2.0434,-2.0214,-1.9761,-1.9028,-1.8608,-1.8398,-1.8398,-1.8258,-1.8072,-1.7896,-1.752,-1.7142,-1.6857,-1.6086,-1.5534,-1.5125,-1.4554,-1.4178,-1.3908,-1.3908,-1.3908,-1.3899,-1.3811,-1.369,-1.3576,-1.3392,-1.3292,-1.326,-1.3161,-1.3265,-1.3444,-1.3444,-1.3564,-1.3655,-1.3133,-1.2781,-1.2519,-1.233,-1.2308,-1.2339,-1.2247,-1.2009,-1.1728,-1.1591,-1.1373,-1.1025,-1.0414,-0.9926,-0.9513,-0.923,-0.8706,-0.8063,-0.7321,-0.6821,-0.632,-0.5708,-0.5346,-0.4955,-0.4369,-0.3868,-0.3418,-0.2973,-0.1893,-0.088,-0.0162,0.0562,0.1088,0.1342,0.1991,0.2517,0.285,0.3578,0.4112,0.4407,0.5075,0.5585,0.5902,0.6408,0.6781,0.7021,0.7267,0.7489,0.7674,0.8022,0.8485,-1.8197,-1.8304,-1.8339,-1.8373,-1.8386,-1.7346,-1.3237,-1.2161,-1.0798,-0.6528,-0.5534,-0.6247,-0.8863,-0.9641,-1.0673,-1.3086,-1.3547,-1.4351,-1.6475,-1.6957,-1.7972,-2.0446,-2.1054,-2.1198,-2.1019,-2.0911,0.0,-2.0518,-2.011,-1.9622,-1.9028,-1.8714,-1.8503,-1.8398,-1.8328,-1.8188,-1.7896,-1.752,-1.7132,-1.684,-1.6275,-1.5753,-1.5239,-1.4934,-1.4566,-1.4104,-1.4104,-1.4104,-1.4104,-1.4104,-1.4015,-1.3881,-1.3836,-1.3771,-1.3661,-1.3625,-1.366,-1.3693,-1.3693,-1.3873,-1.4052,-1.3783,-1.3452,-1.3127,-1.2846,-1.2842,-1.2918,-1.2814,-1.2644,-1.242,-1.2155,-1.2028,-1.1782,-1.0989,-1.0394,-0.9926,-0.9651,-0.9285,-0.8782,-0.8036,-0.7571,-0.7043,-0.6237,-0.5819,-0.5457,-0.5067,-0.4484,-0.4008,-0.3729,-0.2917,-0.2121,-0.1376,-0.0383,0.0326,0.0616,0.1132,0.164,0.2101,0.2749,0.3241,0.3523,0.4422,0.4905,0.495,0.58,0.6204,0.6143,0.6642,0.6909,0.693,0.756,0.8065,-1.7578,-1.8049,-1.811,-1.8322,-1.8386,-1.7346,-1.3237,-1.2014,-1.0547,-0.6392,-0.5361,-0.6041,-0.8726,-0.9344,-1.0337,-1.3065,-1.3402,-1.4202,-1.6722,-1.699,-1.7884,-2.0591,-2.071,0.0,-2.0741,-2.03,-1.9989,-1.9966,-1.9432,-1.9063,-1.8993,-1.8947,-1.8784,-1.8398,-1.8117,-1.7931,-1.7896,-1.752,-1.7273,-1.7238,-1.6624,-1.6235,-1.5977,-1.5395,-1.5021,-1.48,-1.48,-1.48,0.0,-1.48,-1.4791,-1.4754,-1.4576,-1.4392,-1.4198,-1.4019,-1.3842,-1.3693,-1.3693,-1.3723,-1.3753,-1.3723,-1.3854,-1.3984,-1.3478,-1.3343,-1.3278,-1.2899,-1.2776,-1.2691,-1.2438,-1.2191,-1.1837,-1.1208,-1.0825,-1.0531,-1.0284,-0.9761,-0.9237,-0.8871,-0.8125,-0.7465,-0.7127,-0.6604,-0.6019,-0.5429,-0.4843,-0.4341,-0.4008,-0.3418,-0.2884,-0.2574,-0.1269,-0.0273,0.0055,0.0563,0.1003,0.1299,0.1816,0.2307,0.2697,0.3278,0.3859,0.4463,0.5076,0.5483,0.566,0.6246,0.6568,0.6647,0.72,0.7788,-1.6747,-1.7347,-1.749,-1.7601,-1.7749,-1.6822,-1.2783,-1.1636,-1.0287,-0.6323,-0.5334,-0.5568,-0.6753,-0.7089,-0.759,-0.8837,-0.9072,-1.0469,-1.4427,-1.494,-1.6401,-2.0436,-2.0827,-2.0717,0.0,0.0,-2.0249,-1.9916,-1.9584,-1.9262,-1.9028,-1.8784,-1.8573,-1.8398,-1.8258,-1.8117,-1.7896,-1.752,-1.7168,-1.6946,-1.648,-1.6119,-1.5793,-1.5537,-1.5252,-1.4898,-1.4898,-1.4898,0.0,-1.4898,-1.4898,-1.4889,-1.4814,-1.4653,-1.4446,-1.4238,-1.4062,-1.3863,-1.3731,-1.3843,-1.3963,-1.3783,-1.3933,-1.4122,-1.3718,-1.3633,-1.3635,-1.3269,-1.2994,-1.2776,-1.2663,-1.2211,-1.1646,-1.1208,-1.0907,-1.0669,-1.0559,-1.0064,-0.9541,-0.9265,-0.8629,-0.7937,-0.7321,-0.6988,-0.6576,-0.5764,-0.5334,-0.4899,-0.4375,-0.3816,-0.3261,-0.2753,-0.184,-0.1083,-0.0583,0.0,0.0432,0.0697,0.1406,0.1862,0.1998,0.2907,0.3551,0.3844,0.4619,0.5049,0.5182,0.5895,0.6285,0.6329,0.705,0.7642,-1.5888,-1.6534,-1.6632,-1.6798,-1.6644,-1.5558,-1.2204,-1.0911,-0.9461,-0.618,-0.5334,-0.5262,-0.5464,-0.5578,-0.5746,-0.604,-0.6789,-0.8582,-1.2185,-1.3298,-1.5033,-1.8501,0.0,-1.9726,-1.957,-2.0029,-2.0137,-1.9607,-1.9508,-1.9312,-1.8964,-1.8747,-1.8549,-1.8409,-1.8293,-1.8153,-1.7896,-1.752,-1.7168,-1.6875,-1.6638,-1.6279,-1.582,-1.5788,-1.5534,-1.5147,-1.509,-1.5127,0.0,-1.5127,-1.5071,-1.5062,-1.4964,-1.4776,-1.4587,-1.4427,-1.421,-1.3986,-1.3835,-1.3891,-1.4022,-1.3783,-1.3873,-1.4022,-1.3783,-1.3767,-1.378,-1.3488,-1.3031,-1.2655,-1.2655,-1.2054,-1.14,-1.1154,-1.0907,-1.0688,-1.0688,-1.0229,-0.9734,-0.9541,-0.8961,-0.8263,-0.7571,-0.7293,-0.6932,-0.6181,-0.5736,-0.5302,-0.4823,-0.4274,-0.3692,-0.3033,-0.258,-0.1934,-0.0981,-0.0499,-0.011,0.0246,0.1027,0.1438,0.1386,0.2525,0.3176,0.322,0.4176,0.4675,0.4755,0.5602,0.5977,0.5972,0.6859,0.7496,-1.4997,-1.5665,-1.5544,-1.6075,-1.5067,-1.3436,-1.1534,-0.9763,-0.7947,-0.5927,-0.5334,-0.5262,-0.5464,-0.5508,-0.5626,-0.6029,-0.8169,-0.9948,-1.0457,-1.2586,-1.4141,-1.4256,-1.5955,-1.7086,-1.6946,-1.8513,-1.9331,-1.8857,-1.9004,0.0,-1.8824,-1.8978,-1.8892,-1.8409,-1.8072,-1.7896,-1.7896,-1.752,-1.7308,-1.7273,-1.7273,-1.6977,-1.6377,-1.6187,-1.5971,-1.5799,-1.5594,-1.5691,0.0,-1.5626,-1.5495,-1.543,-1.5062,-1.4776,-1.4606,-1.4597,-1.4333,-1.4014,-1.4005,-1.3863,-1.3693,-1.3693,-1.3693,-1.3693,-1.3693,-1.3684,-1.3676,-1.3477,-1.2859,-1.232,-1.232,-1.1713,-1.1099,-1.1099,-1.0907,-1.0688,-1.0688,-1.0229,-0.9789,-0.9789,-0.9092,-0.8401,-0.8042,-0.7543,-0.7071,-0.6743,-0.5959,-0.5401,-0.5397,-0.4871,-0.4257,-0.3642,-0.3586,-0.2858,-0.1065,-0.0897,-0.064,-0.0027,0.0574,0.0895,0.0908,0.1939,0.2537,0.2611,0.3728,0.4327,0.4402,0.5333,0.5743,0.5619,0.6487,0.7355,-1.1829,-1.2533,-1.2684,-1.2763,-1.2607,-1.1928,-0.9929,-0.8973,-0.7953,-0.6041,-0.548,-0.5408,-0.561,-0.5632,-0.6253,-0.8183,-0.9146,-1.0405,-1.253,-1.364,-1.4304,-1.444,-1.6158,-1.7736,0.0,0.0,-1.9435,-1.9284,-1.9161,-1.9075,-1.9,-1.9075,-1.8968,-1.8681,-1.8564,-1.8418,-1.8223,-1.7907,-1.7721,-1.7721,-1.7414,-1.7117,-1.6827,-1.6756,-1.6526,-1.6142,-1.584,-1.5698,-1.5626,-1.5267,-1.5104,-1.5071,-1.4964,-1.4861,-1.4785,-1.4653,-1.4521,-1.4361,-1.4109,-1.3967,-1.3882,-1.374,-1.3843,-1.4052,-1.4052,-1.4052,-1.4004,-1.379,-1.3403,-1.2954,-1.2412,-1.1986,-1.1545,-1.1188,-1.0907,-1.0688,-1.0688,-1.0229,-0.9789,-0.9789,-0.9237,-0.8602,-0.8103,-0.7848,-0.7515,-0.6798,-0.6355,-0.5923,-0.5461,-0.5117,-0.457,-0.3703,-0.3589,-0.3026,-0.1626,-0.1514,-0.1147,-0.0334,0.0083,0.0469,0.0896,0.1591,0.2065,0.2318,0.3259,0.3775,0.3799,0.4969,0.5854,0.6492,0.7007,0.7487,-0.9499,-1.0483,-1.0872,-1.0853,-1.0611,-1.0028,-0.8799,-0.7923,-0.706,-0.593,-0.554,-0.5463,-0.5664,-0.5691,-0.627,-0.7993,-0.9776,-1.1084,-1.1434,-1.318,-1.449,-1.4665,-1.561,0.0,0.0,-1.9827,-1.9596,-1.951,-1.9445,-1.937,-1.9247,-1.937,-1.9262,-1.8928,-1.8832,-1.867,-1.8398,-1.8188,-1.8072,-1.8072,-1.7836,-1.7508,-1.7121,-1.704,-1.6704,-1.6205,-1.5915,-1.5758,0.0,-1.53,-1.5137,-1.5094,-1.4964,-1.4898,-1.4889,-1.4757,-1.4663,-1.455,-1.4241,-1.4163,-1.415,-1.394,-1.4112,-1.4381,-1.45,-1.4441,-1.4292,-1.4065,-1.3732,-1.3266,-1.2688,-1.2257,-1.1924,-1.15,-1.1181,-1.0943,-1.0869,-1.0312,-0.9789,-0.9789,-0.932,-0.8712,-0.8103,-0.7992,-0.7743,-0.6993,-0.6575,-0.62,-0.58,-0.5426,-0.4874,-0.4039,-0.3949,-0.3446,-0.2244,-0.1936,-0.1458,-0.0645,-0.0224,0.0167,0.0552,0.1289,0.1795,0.2018,0.297,0.3474,0.3496,0.4664,0.5705,0.6668,0.6948,0.7273,0.0,-0.9092,-0.9714,-0.9913,-0.8884,-0.7852,-0.7965,-0.6688,0.0,-0.5664,-0.5529,-0.5468,-0.5675,-0.5724,-0.5856,-0.6306,-1.019,-1.1906,-0.8248,-1.1602,0.0,0.0,-1.4805,0.0,-2.0106,-2.0145,-1.9795,-1.9542,-1.9763,-1.9784,-1.9531,-1.9763,-1.9676,-1.915,-1.8939,-1.8692,-1.8398,-1.8398,-1.8398,-1.8363,-1.8363,-1.7977,-1.7298,-1.7121,-1.6702,0.0,-1.5927,-1.5876,-1.5962,-1.5603,-1.5463,-1.543,-1.5039,-1.4898,-1.4898,-1.4898,-1.4818,-1.4619,-1.4443,-1.4442,-1.4536,-1.431,-1.4411,-1.465,-1.4967,-1.4818,-1.453,-1.4291,-1.3848,-1.3361,-1.301,-1.2601,-1.2203,-1.1989,-1.1684,-1.1363,-1.1158,-1.0449,-0.9871,-0.9844,-0.9348,-0.874,-0.8159,-0.8042,-0.7848,-0.7321,-0.6743,-0.6358,-0.6302,-0.58,-0.521,-0.4592,-0.4508,-0.4033,-0.2861,-0.2216,-0.1598,-0.0981,-0.0393,-0.0056,0.0,0.1049,0.1642,0.1667,0.277,0.3415,0.3529,0.4446,0.535,0.6242,0.6416,0.6823,-0.3529,0.0,-0.6558,-0.6549,-0.6326,-0.6089,0.0,-0.5725,-0.5441,-0.5468,-0.543,-0.549,-0.5801,-0.586,-0.6561,-0.8739,-1.1243,-1.2228,-1.0352,-1.1648,0.0,-1.6547,-1.7018,-1.8028,-2.0274,-2.0145,-1.986,-1.9806,-1.9849,-1.986,-1.9806,-1.986,-1.9752,-1.9424,-1.915,-1.8828,-1.8398,-1.8398,-1.8258,-1.8002,-1.8002,-1.7756,-1.7308,-1.7258,-1.7071,-1.6756,-1.6244,-1.596,-1.582,-1.526,-1.5039,-1.5029,-1.4931,-1.4898,-1.4898,-1.4898,-1.5066,-1.5258,-1.5003,-1.5,-1.5042,-1.463,-1.456,-1.462,-1.4679,-1.453,-1.4321,-1.4471,-1.4073,-1.358,-1.334,-1.2993,-1.2678,-1.247,-1.2109,-1.1714,-1.1391,-1.0904,-1.0421,-1.0229,-0.9706,-0.9154,-0.8761,-0.8512,-0.818,-0.7604,-0.7215,-0.6826,-0.6358,-0.5963,-0.5489,-0.4871,-0.462,-0.4201,-0.3449,-0.2833,-0.2132,-0.1262,-0.0869,-0.0477,-0.0028,0.0698,0.1191,0.1394,0.2314,0.3151,0.3873,0.4362,0.4955,0.5624,0.6324,0.6793,-0.2691,-0.4077,-0.5416,-0.5405,-0.5539,-0.567,-0.5627,-0.5529,-0.5469,-0.5523,-0.5491,-0.5545,-0.5844,-0.5996,-0.6591,-0.8177,-1.0341,-1.1971,-1.2394,-1.2209,-1.3389,-1.7073,-1.7629,-1.8461,0.0,-2.0145,-1.9881,-1.9881,-1.9881,-1.9881,-1.9881,-1.9881,-1.9698,-1.925,-1.898,-1.8683,-1.8322,-1.8206,-1.8012,-1.7615,-1.7615,-1.7414,-1.7017,-1.7017,-1.6837,-1.6481,-1.605,-1.5736,-1.549,-1.5082,-1.4898,-1.4898,-1.4898,-1.4996,-1.5169,-1.5169,-1.5398,-1.5651,-1.5241,-1.5041,-1.493,-1.4821,-1.47,-1.459,-1.459,-1.4411,-1.4232,-1.4381,-1.4172,-1.3874,-1.362,-1.3405,-1.3201,-1.2997,-1.2666,-1.2252,-1.1813,-1.1257,-1.0735,-1.0457,-0.9841,-0.9292,-0.8954,-0.8678,-0.8346,-0.7854,-0.746,-0.7071,-0.6743,-0.6325,-0.5796,-0.5206,-0.5011,-0.4564,-0.367,-0.3309,-0.272,-0.1767,-0.1318,-0.0869,-0.0421,0.0168,0.0807,0.1477,0.1984,0.2741,0.3769,0.399,0.4536,0.5425,0.6014,0.6458,-0.3347,-0.4443,-0.535,-0.5396,-0.5644,-0.5877,-0.5877,-0.5702,-0.5567,-0.5669,-0.5621,-0.5642,-0.5964,-0.6222,-0.6542,-0.7049,-0.9323,-1.1957,-1.4578,-1.3621,-1.3926,-1.7421,-1.7854,0.0,-2.0323,-2.0145,-1.9881,-1.9881,-1.9881,-1.9881,-1.9881,-1.9881,-1.9607,-1.8968,-1.8733,-1.843,-1.8088,-1.7891,-1.7615,-1.7203,-1.7203,-1.6991,-1.6628,-1.6628,-1.6391,-1.593,-1.5731,0.0,-1.5238,-1.503,-1.4927,-1.4898,-1.4964,-1.5202,-1.5495,-1.5495,-1.5724,-1.5911,-1.5359,-1.4949,-1.4696,-1.4881,-1.4761,-1.458,-1.4481,-1.4291,-1.4112,-1.4112,-1.4112,-1.4052,-1.3783,-1.3693,-1.3646,-1.3417,-1.3116,-1.275,-1.2194,-1.1554,-1.1005,-1.0666,-1.0021,-0.9411,-0.9127,-0.8802,-0.8429,-0.8042,-0.7598,-0.7265,-0.7154,-0.6631,-0.6075,-0.5513,-0.5346,-0.4843,-0.381,-0.3614,-0.3169,-0.2328,-0.1711,-0.1206,-0.0785,-0.028,0.0529,0.1702,0.1782,0.2338,0.3427,0.3589,0.4201,0.5262,0.568,0.6158,-0.3233,-0.4466,-0.5462,-0.5405,-0.5572,-0.5735,-0.5735,-0.5708,-0.5664,-0.5708,-0.5773,-0.5986,-0.6401,-0.6627,-0.7321,-0.9186,-1.1256,-1.3861,-1.7284,0.0,-1.7185,-1.9137,0.0,-2.0135,-2.0484,-2.0145,-1.9881,-1.9881,-1.9881,-1.9881,-1.9881,-1.9881,-1.9682,-1.916,-1.878,-1.8248,-1.7514,-1.7439,-1.7203,-1.6805,-1.6805,-1.6593,-1.6285,-1.6285,-1.623,-1.6157,0.0,-1.5731,-1.5523,-1.5271,-1.5049,-1.4931,-1.5267,-1.543,-1.5495,-1.5495,-1.5724,-1.5944,-1.5625,-1.5473,-1.5352,-1.4756,-1.4557,-1.4427,-1.3981,-1.3813,-1.3783,-1.3783,-1.3783,-1.3753,-1.3723,-1.3693,-1.3624,-1.3317,-1.3061,-1.2727,-1.2143,-1.1777,-1.1499,-1.1155,-1.0498,-0.9989,-0.9926,-0.9321,-0.8657,-0.8076,-0.7931,-0.7604,-0.6882,-0.6492,-0.6163,-0.5764,-0.5067,-0.4564,-0.4369,-0.3642,-0.3026,-0.2638,-0.2048,-0.1234,-0.0168,-0.0056,0.056,0.1759,0.1793,0.2241,0.3154,0.3695,0.4176,0.4676,0.574,0.6274,-0.3757,-0.4783,-0.5599,-0.6228,-0.6334,-0.6287,-0.6287,-0.6233,-0.6206,-0.6271,-0.635,-0.6475,-0.6763,-0.7638,-0.9047,-1.1263,-1.2483,-1.407,-1.6728,-1.701,-1.7559,0.0,0.0,-2.0183,-2.0183,-1.9995,-1.9881,-1.9881,-1.9881,-1.9881,-1.9881,-1.9881,-1.9693,-1.9201,-1.8616,-1.7976,-1.7417,-1.6924,-1.6603,-1.6426,-1.6426,-1.6355,-1.6178,-1.6178,-1.6178,-1.6204,0.0,-1.5845,-1.5765,-1.5577,-1.5485,-1.5422,-1.5665,-1.5779,-1.5779,-1.5779,-1.5756,-1.5704,-1.5604,-1.5334,-1.5015,-1.4654,-1.4402,-1.417,-1.3952,-1.3778,-1.3663,-1.3474,-1.3564,-1.3663,-1.3474,-1.3414,-1.3354,-1.3024,-1.2863,-1.2681,-1.2205,-1.1854,-1.1487,-1.1166,-1.0474,-0.9902,-0.9843,-0.9265,-0.8665,-0.8331,-0.7992,-0.7576,-0.7043,-0.6715,-0.627,-0.5652,-0.5234,-0.4787,-0.4288,-0.3698,-0.311,-0.2468,-0.1739,-0.1065,-0.0505,-0.0028,0.0561,0.129,0.1627,0.2158,0.2889,0.3309,0.382,0.4422,0.519,0.5766,-0.4429,-0.5214,-0.583,-0.6987,-0.721,-0.7202,-0.7443,-0.7448,-0.7463,-0.7621,-0.7436,-0.7332,-0.7549,-0.9171,-1.1057,-1.2816,-1.3881,-1.4992,-1.6362,-1.6958,-1.7737,-1.894,-1.9564,-1.9881,-1.9881,-1.9881,-1.9881,-1.9881,-1.9881,-1.9881,-1.9881,-1.9881,-1.9693,-1.9201,-1.8556,-1.799,-1.7526,-1.6793,-1.6342,-1.6178,-1.6178,-1.6178,-1.6178,-1.6178,-1.6178,-1.6169,-1.6043,-1.5974,-1.6011,-1.5958,-1.5931,-1.5932,-1.6027,-1.5992,-1.5876,-1.5876,-1.5658,-1.5365,-1.5365,-1.5064,-1.4663,-1.4616,-1.4352,-1.404,-1.3932,-1.3733,-1.3504,-1.3174,-1.3264,-1.3414,-1.3144,-1.3084,-1.2994,-1.2664,-1.2565,-1.2475,-1.2083,-1.1714,-1.1349,-1.1023,-1.0296,-0.9707,-0.9617,-0.9054,-0.8533,-0.8248,-0.7812,-0.7388,-0.7049,-0.6626,-0.6154,-0.5481,-0.5206,-0.4732,-0.3868,-0.3418,-0.2861,-0.216,-0.1491,-0.0985,-0.0701,-0.0056,0.0535,0.0981,0.1514,0.2104,0.2694,0.3054,0.362,0.4347,0.4818,0.5374,-0.5048,-0.574,-0.6269,-0.7248,-0.7846,-0.8434,-0.937,-0.9733,-0.9911,-1.0097,-0.9342,-0.8797,-0.9234,-1.1369,-1.3144,-1.3424,-1.6027,-1.8089,-1.8226,-1.8642,-1.8987,-1.9082,-1.9564,-1.9881,-1.9881,-1.9881,-1.9881,-1.9881,-1.9881,-1.9881,-1.9881,-1.9881,-1.9693,-1.9201,-1.8962,-1.8548,-1.7939,-1.7346,-1.6735,-1.6178,-1.6178,-1.6178,-1.6178,-1.6178,-1.6178,-1.6178,-1.6169,-1.6257,-1.6352,-1.6348,-1.6308,-1.6251,-1.6264,-1.5969,-1.5528,-1.5528,-1.5267,-1.4931,-1.4931,-1.4922,-1.4851,-1.4663,-1.4446,-1.4188,-1.3692,-1.3399,-1.3174,-1.2844,-1.2754,-1.2784,-1.2754,-1.2754,-1.2664,-1.2324,-1.2234,-1.2083,-1.148,-1.1352,-1.1223,-1.0891,-1.0158,-0.9601,-0.9594,-0.8958,-0.8188,-0.7482,-0.7351,-0.7087,-0.6451,-0.5847,-0.5481,-0.5397,-0.462,-0.3841,-0.3222,-0.241,-0.1906,-0.1823,-0.1764,-0.1226,-0.0112,0.0,0.0427,0.1263,0.1626,0.2104,0.2694,0.3281,0.3894,0.4498,0.5091,0.5624,-0.4753,-0.5451,-0.6206,-0.763,-0.8647,-0.9405,-0.9778,-0.9973,-1.0251,-1.0718,-1.0502,-1.0407,-1.1001,-1.214,-1.3402,-1.4606,-1.6649,-1.8153,-1.8363,-1.8807,-1.9118,-1.9118,-1.9564,-1.9881,-1.9881,-1.9881,-1.9881,-1.9881,-1.9881,-1.9881,-1.9881,-1.9881,-1.9806,-1.9655,-1.9159,-1.8743,-1.8378,-1.7789,-1.7281,-1.6885,-1.6426,-1.6178,-1.6178,-1.6178,-1.632,-1.6523,-1.6523,-1.6695,-1.6967,-1.6827,-1.6746,-1.6678,-1.6185,-1.5781,-1.5473,-1.5234,-1.5029,-1.4898,-1.4898,-1.4898,-1.4856,-1.4577,-1.4355,-1.4088,-1.3533,-1.3243,-1.2973,-1.2518,-1.2384,-1.2384,-1.2384,-1.2384,-1.2264,-1.1752,-1.1631,-1.1511,-1.1088,-1.0815,-1.0573,-1.0247,-0.9774,-0.9316,-0.9016,-0.8426,-0.7849,-0.747,-0.7072,-0.657,-0.5897,-0.5601,-0.5209,-0.4599,-0.3866,-0.3138,-0.2354,-0.1992,-0.1549,-0.0968,-0.0774,-0.0487,-0.0028,0.0573,0.1032,0.1367,0.1805,0.2272,0.2694,0.3082,0.365,0.4388,0.4877,0.5433,-0.4813,-0.5492,-0.6372,-0.788,-0.9082,-0.9996,-1.0376,-1.0776,-1.1251,-1.1843,-1.1877,-1.183,-1.1974,-1.2722,-1.3747,-1.5041,-1.6728,-1.7966,-1.8223,-1.8735,-1.9118,-1.9118,-1.9564,-1.9881,-1.9881,-1.9881,-1.9881,-1.9881,-1.9881,-1.9881,-1.9881,-1.9881,-1.9881,-1.9881,-1.9457,-1.9117,-1.8885,-1.829,-1.7847,-1.7597,-1.688,-1.6532,-1.6532,-1.6532,-1.6673,-1.6875,-1.6875,-1.7052,-1.7298,-1.7147,-1.6936,-1.6662,-1.6057,-1.5616,-1.5267,-1.4996,-1.4898,-1.4898,-1.4898,-1.4833,-1.4702,-1.4473,-1.4174,-1.3865,-1.3372,-1.3103,-1.2819,-1.2286,-1.2054,-1.1977,-1.1919,-1.1933,-1.1782,-1.1269,-1.1148,-1.1057,-1.0702,-1.0391,-1.0035,-0.97,-0.9305,-0.8885,-0.8456,-0.7957,-0.7499,-0.7177,-0.6631,-0.6066,-0.5479,-0.5232,-0.4743,-0.3847,-0.3221,-0.2572,-0.1866,-0.1619,-0.1203,-0.0434,-0.0058,0.0204,0.029,0.0902,0.1337,0.1524,0.2076,0.2481,0.2694,0.3169,0.3734,0.4381,0.4845,0.5406,-0.5375,-0.6047,-0.6942,-0.7968,-0.9067,-1.0219,-1.1411,-1.2475,-1.3323,-1.3724,-1.3538,-1.3013,-1.1992,-1.3276,-1.4489,-1.4489,-1.6416,-1.7896,-1.7896,-1.8591,-1.9118,-1.9118,-1.9564,-1.9881,-1.9881,-1.9881,-1.9881,-1.9881,-1.9881,-1.9881,-1.9881,-1.9881,-1.9881,-1.9881,-1.9881,-1.9774,-1.9499,-1.8896,-1.8482,-1.8216,-1.7597,-1.7308,-1.7308,-1.7308,-1.7308,-1.7308,-1.7308,-1.7308,-1.7308,-1.7308,-1.6837,-1.6069,-1.5897,-1.5418,-1.4898,-1.4898,-1.4898,-1.4898,-1.4898,-1.467,-1.4408,-1.4408,-1.4044,-1.3538,-1.3208,-1.2953,-1.2681,-1.2147,-1.175,-1.1464,-1.1323,-1.1307,-1.1209,-1.0883,-1.0785,-1.0694,-1.0368,-1.0035,-0.97,-0.9366,-0.8793,-0.8275,-0.7964,-0.7627,-0.7134,-0.642,-0.6022,-0.5664,-0.5252,-0.4591,-0.3948,-0.3253,-0.2645,-0.2158,-0.1812,-0.1255,-0.0766,-0.0413,0.0179,0.0629,0.0885,0.0897,0.1189,0.1784,0.2388,0.2711,0.2723,0.3589,0.4176,0.4536,0.5118,0.5656,-0.5625,-0.6309,-0.7225,-0.8242,-0.9416,-1.0498,-1.1187,-1.1929,-1.2738,-1.363,-1.3538,-1.321,-1.2914,-1.3545,-1.4216,-1.4455,-1.593,-1.7263,-1.7826,-1.8376,-1.8852,-1.9082,-1.9564,-1.9881,-1.9881,-1.9881,-1.9881,-1.9881,-1.9881,-1.9881,-1.9881,-1.9881,-1.9881,-1.9881,-1.9881,-1.9774,-1.9499,-1.9152,-1.8844,-1.8599,-1.8259,-1.7801,-1.7308,-1.7308,-1.7449,-1.7721,-1.7414,-1.7449,-1.7685,-1.7122,-1.6533,-1.595,-1.5749,-1.5438,-1.5096,-1.4955,-1.4898,-1.4866,-1.4637,-1.4473,-1.431,-1.386,-1.3587,-1.3355,-1.2896,-1.2724,-1.2546,-1.202,-1.1697,-1.1364,-1.0856,-1.0661,-1.0581,-1.0459,-1.0459,-1.0308,-0.9731,-0.9518,-0.9305,-0.8763,-0.8336,-0.7933,-0.7597,-0.7077,-0.6547,-0.6093,-0.5775,-0.5277,-0.4453,-0.3949,-0.3386,-0.2707,-0.2466,-0.213,-0.1581,-0.1146,-0.0769,-0.0479,0.015,0.0632,0.0959,0.1143,0.1561,0.22,0.2412,0.2786,0.3395,0.3651,0.4252,0.515,0.5513,0.5973,-0.6111,-0.6811,-0.7641,-0.8605,-0.959,-1.0528,-1.1272,-1.208,-1.2891,-1.3626,-1.3868,-1.394,-1.394,-1.4325,-1.4694,-1.4907,-1.593,-1.6875,-1.7369,-1.8006,-1.8565,-1.8842,-1.9404,-1.9784,-1.9881,-1.9881,-1.9881,-1.9881,-1.9881,-1.9881,-1.9881,-1.9881,-1.9881,-1.9881,-1.9881,-1.9817,-1.9676,-1.9279,-1.9043,-1.8928,-1.8559,-1.8153,-1.7731,-1.7731,-1.7872,-1.8082,-1.752,-1.7344,-1.7369,-1.677,-1.6257,-1.5882,-1.5759,-1.5498,-1.5181,-1.5068,-1.4866,-1.467,-1.4473,-1.4244,-1.3949,-1.3531,-1.3301,-1.3112,-1.2767,-1.2572,-1.241,-1.1978,-1.16,-1.1171,-1.064,-1.0256,-0.9988,-0.9927,-0.9913,-0.9761,-0.9244,-0.9037,-0.8793,-0.8305,-0.7933,-0.7566,-0.7077,-0.6556,-0.6096,-0.5763,-0.5243,-0.4633,-0.391,-0.3349,-0.2884,-0.2488,-0.2333,-0.1983,-0.1293,-0.1057,-0.0698,-0.0152,0.0274,0.0761,0.1369,0.1553,0.1881,0.2381,0.2657,0.3097,0.3743,0.3975,0.4513,0.5286,0.5684,0.6111,-0.6745,-0.7419,-0.8138,-0.9023,-0.973,-1.049,-1.1581,-1.2639,-1.3461,-1.3712,-1.4382,-1.4898,-1.4898,-1.5281,-1.5598,-1.5598,-1.6183,-1.6664,-1.6699,-1.749,-1.8181,-1.8461,-1.9059,-1.9527,-1.979,-1.9849,-1.986,-1.9881,-1.9881,-1.9881,-1.9881,-1.9844,-1.9844,-1.9844,-1.9844,-1.9844,-1.9844,-1.9344,-1.9118,-1.9107,-1.8624,-1.8398,-1.8398,-1.8398,-1.8363,-1.8258,-1.7555,-1.7017,-1.6628,-1.632,-1.61,-1.592,-1.5901,-1.563,-1.5247,-1.521,-1.4879,-1.4426,-1.4375,-1.3949,-1.34,-1.3367,-1.3104,-1.2807,-1.2774,-1.2536,-1.2241,-1.2013,-1.1473,-1.0909,-1.0538,-1.0042,-0.9522,-0.9295,-0.9257,-0.9183,-0.8915,-0.858,-0.8244,-0.7933,-0.7566,-0.7108,-0.6464,-0.607,-0.5732,-0.534,-0.453,-0.382,-0.3454,-0.2884,-0.2502,-0.247,-0.2154,-0.17,-0.1086,-0.0973,-0.0503,0.0403,0.0526,0.102,0.1946,0.2005,0.2144,0.2507,0.311,0.3597,0.3894,0.4483,0.4911,0.5209,0.5782,0.6166,-0.6875,-0.7634,-0.8421,-0.9302,-1.0237,-1.1131,-1.1819,-1.2671,-1.3367,-1.3461,-1.4221,-1.4898,-1.4898,-1.5281,-1.5598,-1.5598,-1.6009,-1.6391,-1.6664,-1.7073,-1.7483,-1.7847,-1.8415,-1.8864,-1.9096,-1.9378,-1.9687,-1.9871,-1.9881,-1.9881,-1.9881,-1.9542,-1.9353,-1.9353,-1.9353,-1.9353,-1.9353,-1.9159,-1.9118,-1.9107,-1.8624,-1.8398,-1.8398,-1.8398,-1.8082,-1.752,-1.7052,-1.6628,-1.6285,-1.6214,-1.615,-1.6129,-1.5958,-1.5835,-1.5687,-1.5356,-1.4948,-1.4594,-1.4167,-1.3752,-1.3334,-1.3038,-1.2873,-1.2741,-1.2503,-1.2379,-1.2165,-1.1534,-1.1203,-1.0862,-1.0251,-0.9849,-0.9455,-0.8827,-0.8836,-0.8885,-0.858,-0.8244,-0.7903,-0.7566,-0.7016,-0.6495,-0.607,-0.5728,-0.5228,-0.4415,-0.3902,-0.3406,-0.2866,-0.2677,-0.2482,-0.222,-0.1894,-0.159,-0.1408,-0.0673,-0.0128,0.0096,0.0853,0.1507,0.1977,0.1986,0.2401,0.3255,0.362,0.4048,0.4588,0.4973,0.5408,0.5881,0.6289,0.6594,-0.6962,-0.7689,-0.8472,-0.9656,-1.056,-1.1333,-1.1876,-1.254,-1.3132,-1.3458,-1.423,-1.4898,-1.4898,-1.5281,-1.5598,-1.5598,-1.5949,-1.6249,-1.6426,-1.6726,-1.7021,-1.7371,-1.7852,-1.8259,-1.8449,-1.8758,-1.8984,-1.911,-1.9225,-1.9287,-1.9287,-1.906,-1.8909,-1.8909,-1.8909,-1.8909,-1.8909,-1.8679,-1.856,-1.856,-1.8091,-1.7872,-1.7872,-1.8082,-1.7836,-1.7273,-1.6875,-1.6523,-1.6178,-1.6178,-1.6178,-1.6204,-1.6091,-1.5987,-1.5829,-1.5416,-1.4907,-1.4399,-1.3918,-1.3467,-1.3071,-1.2873,-1.27,-1.2536,-1.2338,-1.2041,-1.1677,-1.1314,-1.1026,-1.0713,-1.0156,-0.9768,-0.9374,-0.8674,-0.8582,-0.8519,-0.803,-0.7786,-0.7505,-0.7016,-0.6495,-0.607,-0.5728,-0.5237,-0.4666,-0.3865,-0.3556,-0.3215,-0.2716,-0.2503,-0.2231,-0.1798,-0.1665,-0.139,-0.0815,-0.0293,0.0227,0.0742,0.1408,0.2002,0.2462,0.263,0.3014,0.3669,0.3822,0.4208,0.4845,0.5024,0.5316,0.5738,0.6212,0.6572,-0.6966,-0.7788,-0.8662,-0.9973,-1.0763,-1.1341,-1.1916,-1.2441,-1.2954,-1.3529,-1.4257,-1.4833,-1.4898,-1.5281,-1.5598,-1.5598,-1.5949,-1.6178,-1.6178,-1.6452,-1.6696,-1.6917,-1.7295,-1.759,-1.7832,-1.805,-1.8198,-1.8239,-1.8423,-1.8555,-1.8555,-1.8509,-1.8491,-1.8491,-1.8491,-1.8491,-1.8491,-1.8161,-1.8012,-1.7976,-1.7521,-1.7308,-1.7308,-1.758,-1.751,-1.7168,-1.677,-1.6461,-1.6178,-1.6178,-1.6178,-1.6178,-1.6178,-1.611,-1.5914,-1.5468,-1.4895,-1.4237,-1.3755,-1.3269,-1.284,-1.2815,-1.2576,-1.2272,-1.2239,-1.1743,-1.1181,-1.1115,-1.0883,-1.0492,-1.0077,-0.9667,-0.9236,-0.8635,-0.8381,-0.8089,-0.7516,-0.7296,-0.7046,-0.6434,-0.5947,-0.5548,-0.5268,-0.4684,-0.4071,-0.3548,-0.3316,-0.3036,-0.2623,-0.2353,-0.1976,-0.1446,-0.1414,-0.1038,-0.0066,0.0132,0.0625,0.1625,0.201,0.248,0.3086,0.3363,0.3679,0.3993,0.3985,0.429,0.4902,0.4964,0.5174,0.5497,0.6133,0.6538,-0.6677,-0.8143,-0.9551,-1.0145,-1.0763,-1.1381,-1.2109,-1.2532,-1.2988,-1.3696,-1.4184,-1.4572,-1.4833,-1.5281,-1.5598,-1.5598,-1.5949,-1.6178,-1.6178,-1.6249,-1.6259,-1.6323,-1.6606,-1.6933,-1.7204,-1.7569,-1.784,-1.8043,-1.8229,-1.835,-1.835,-1.8192,-1.8063,-1.8063,-1.8063,-1.8063,-1.8063,-1.8013,-1.8012,-1.7976,-1.7521,-1.7308,-1.7273,-1.6981,-1.684,-1.677,-1.6426,-1.6249,-1.6178,-1.6178,-1.6178,-1.6178,-1.6178,-1.6169,-1.6087,-1.5523,-1.504,-1.4596,-1.3849,-1.3344,-1.3035,-1.2856,-1.2576,-1.2239,-1.1942,-1.1545,-1.1148,-1.085,-1.0518,-1.0187,-0.9836,-0.9348,-0.8894,-0.8508,-0.8039,-0.7666,-0.7439,-0.6954,-0.6434,-0.6039,-0.5237,-0.4592,-0.453,-0.4041,-0.3548,-0.3363,-0.2968,-0.2539,-0.2138,-0.2102,-0.1933,-0.1444,-0.1043,-0.0605,-0.0034,0.057,0.1274,0.2076,0.2383,0.2857,0.357,0.359,0.3862,0.4401,0.4376,0.4533,0.4902,0.5176,0.5659,0.6263,0.663,0.6991,-0.6702,-0.8244,-0.9631,-1.0159,-1.0763,-1.1381,-1.2142,-1.2399,-1.2783,-1.3698,-1.4006,-1.4268,-1.48,-1.5281,-1.5598,-1.5598,-1.5949,-1.6178,-1.6178,-1.6178,-1.6178,-1.6178,-1.632,-1.6464,-1.6596,-1.6845,-1.706,-1.7158,-1.7336,-1.7453,-1.7453,-1.747,-1.7501,-1.7501,-1.7625,-1.7645,-1.7645,-1.7535,-1.7433,-1.7316,-1.6995,-1.6849,-1.6849,-1.6545,-1.6523,-1.6699,-1.6355,-1.6178,-1.6178,-1.6178,-1.6178,-1.6178,-1.6178,-1.6178,-1.6098,-1.5415,-1.4991,-1.4692,-1.3871,-1.3365,-1.305,-1.2769,-1.2383,-1.1942,-1.1578,-1.1214,-1.085,-1.0525,-1.0326,-1.006,-0.9522,-0.9182,-0.8914,-0.8497,-0.793,-0.7392,-0.7038,-0.6648,-0.6188,-0.5486,-0.4841,-0.4346,-0.4164,-0.3887,-0.3579,-0.3178,-0.324,-0.2993,-0.21,-0.1736,-0.1294,-0.0672,-0.0438,-0.0067,0.0572,0.1077,0.1683,0.2425,0.2777,0.3156,0.3689,0.3861,0.405,0.4279,0.4404,0.4602,0.4902,0.5237,0.5636,0.6131,0.6653,0.7082,-0.6481,-0.784,-0.9042,-0.9664,-1.0402,-1.115,-1.1876,-1.2178,-1.2569,-1.3576,-1.3842,-1.4071,-1.467,-1.5238,-1.5598,-1.5598,-1.5949,-1.6178,-1.6178,-1.6178,-1.6178,-1.6178,-1.6178,-1.6178,-1.6178,-1.6356,-1.6405,-1.6405,-1.6604,-1.6727,-1.6727,-1.6916,-1.7029,-1.7029,-1.719,-1.7265,-1.7265,-1.7105,-1.6953,-1.6802,-1.6642,-1.6538,-1.6481,-1.633,-1.6368,-1.6558,-1.632,-1.6178,-1.6178,-1.6178,-1.6178,-1.6178,-1.6178,-1.6143,-1.5966,-1.5257,-1.4885,-1.4614,-1.3871,-1.3431,-1.3162,-1.2775,-1.2306,-1.177,-1.1378,-1.1017,-1.0618,-1.0293,-1.0127,-0.9927,-0.9283,-0.8984,-0.8756,-0.8405,-0.779,-0.7094,-0.6469,-0.6175,-0.5759,-0.4933,-0.4441,-0.4102,-0.392,-0.3704,-0.3486,-0.3271,-0.3332,-0.2962,-0.1667,-0.126,-0.08,-0.0067,0.0101,0.0438,0.1043,0.1515,0.2053,0.2795,0.3163,0.3515,0.3843,0.4108,0.4243,0.4279,0.4555,0.4772,0.4929,0.5248,0.5667,0.6162,0.6653,0.7112,-0.5723,-0.6672,-0.7669,-0.8342,-0.9389,-1.0451,-1.1184,-1.1854,-1.2505,-1.3258,-1.3687,-1.4006,-1.4375,-1.5071,-1.5598,-1.5598,-1.5949,-1.6178,-1.6178,-1.6178,-1.6178,-1.6178,-1.6178,-1.6178,-1.6178,-1.6188,-1.6233,-1.6233,-1.6386,-1.6536,-1.6536,-1.6698,-1.6821,-1.6821,-1.6831,-1.684,-1.684,-1.6831,-1.6812,-1.6802,-1.6793,-1.6679,-1.6517,-1.6507,-1.6394,-1.6214,-1.6214,-1.6178,-1.6178,-1.6178,-1.6178,-1.6178,-1.6178,-1.5966,-1.5567,-1.515,-1.4795,-1.4441,-1.3806,-1.3593,-1.3483,-1.2961,-1.2448,-1.1933,-1.1576,-1.1101,-1.0618,-1.0293,-0.996,-0.9628,-0.9217,-0.8617,-0.8156,-0.8112,-0.7507,-0.6695,-0.5831,-0.5295,-0.4872,-0.4499,-0.3948,-0.3609,-0.3859,-0.3209,-0.2929,-0.3735,-0.2841,-0.1606,-0.0278,-0.0634,-0.0746,-0.0065,0.04,0.0774,0.1077,0.175,0.2457,0.3127,0.3533,0.3936,0.4269,0.4303,0.4442,0.4741,0.503,0.5117,0.5004,0.5273,0.5912,0.6841,0.6867,0.7266,-0.5525,-0.6426,-0.7533,-0.858,-0.9724,-1.081,-1.1687,-1.2415,-1.3037,-1.3356,-1.3498,-1.3687,-1.4006,-1.4904,-1.5598,-1.5598,-1.5949,-1.6178,-1.6178,-1.6178,-1.6178,-1.6178,-1.6178,-1.6178,-1.6178,-1.6178,-1.6178,-1.6178,-1.629,-1.6328,-1.6328,-1.649,-1.6594,-1.6594,-1.6736,-1.6868,-1.7001,-1.7001,-1.7067,-1.7161,-1.7067,-1.6953,-1.6868,-1.6604,-1.6479,-1.6403,-1.6271,-1.6178,-1.6178,-1.6178,-1.6178,-1.6178,-1.6178,-1.5966,-1.5532,-1.515,-1.4803,-1.443,-1.3973,-1.3557,-1.3208,-1.2761,-1.2244,-1.1734,-1.1392,-1.0981,-1.054,-1.0145,-0.975,-0.9328,-0.8906,-0.8456,-0.7989,-0.7522,-0.67,-0.5954,-0.5487,-0.4995,-0.4536,-0.4221,-0.3787,-0.3455,-0.3332,-0.3055,-0.2806,-0.2687,-0.1574,-0.0556,-0.0062,-0.0223,-0.0163,0.0393,0.0765,0.1178,0.175,0.2256,0.2827,0.3533,0.3734,0.3936,0.4274,0.4308,0.4465,0.4806,0.506,0.5281,0.5464,0.5886,0.6403,0.6962,0.7142,0.748,-0.5099,-0.5794,-0.6725,-0.7885,-0.916,-1.0379,-1.1366,-1.2347,-1.3047,-1.3183,-1.3301,-1.3465,-1.3687,-1.4481,-1.5174,-1.5375,-1.5778,-1.6138,-1.6169,-1.6178,-1.6178,-1.6178,-1.6178,-1.6143,-1.6001,-1.6001,-1.5931,-1.5798,-1.5789,-1.5789,-1.5789,-1.5918,-1.6054,-1.6198,-1.6338,-1.6543,-1.6897,-1.6963,-1.7105,-1.7312,-1.7246,-1.7171,-1.7095,-1.6821,-1.6613,-1.6471,-1.6375,-1.6245,-1.6178,-1.6178,-1.6178,-1.6178,-1.6178,-1.586,-1.5363,-1.5088,-1.4697,-1.4261,-1.3975,-1.3574,-1.3091,-1.2702,-1.2239,-1.1726,-1.1379,-1.0963,-1.0517,-1.0085,-0.9685,-0.9251,-0.8663,-0.8143,-0.7564,-0.6824,-0.6058,-0.5452,-0.5202,-0.4732,-0.425,-0.3915,-0.3474,-0.3134,-0.3026,-0.2808,-0.25,-0.2069,-0.0654,0.0281,0.0031,0.0,0.0162,0.0586,0.1026,0.1507,0.2154,0.2625,0.3129,0.3768,0.3902,0.407,0.4308,0.4406,0.4641,0.501,0.5295,0.5675,0.6141,0.6441,0.6724,0.7066,0.7375,0.7681,0.0,0.0,0.0,-0.6076,-0.757,-0.9082,-1.0151,-1.1491,-1.2539,-1.2718,-1.3087,-1.3334,-1.3334,-1.3776,-1.4336,-1.4828,-1.544,-1.5923,-1.6141,-1.6169,-1.6178,-1.6143,-1.6143,-1.6001,-1.5603,-1.5567,-1.5434,-1.5017,-1.5017,-1.5017,-1.5017,-1.5017,-1.5186,-1.5567,-1.5567,-1.5881,-1.6445,-1.6652,-1.6897,-1.7067,-1.7275,-1.7275,-1.7114,-1.7105,-1.6878,-1.6526,-1.6481,-1.6403,-1.6178,-1.6178,-1.6178,-1.6178,-1.6178,-1.5718,-1.5017,-1.5017,-1.4546,-1.3904,-1.3904,-1.3611,-1.3218,-1.2896,-1.2436,-1.1924,-1.1501,-1.1014,-1.0521,-1.0168,-0.9787,-0.9301,-0.8571,-0.7764,-0.6906,-0.6106,-0.5651,-0.5282,-0.4876,-0.441,-0.3954,-0.358,-0.2969,-0.2606,-0.2907,-0.2438,-0.2008,-0.2008,-0.0285,0.0765,0.0093,0.0,0.0159,0.0484,0.1176,0.179,0.2185,0.2827,0.3396,0.3801,0.4104,0.4308,0.4308,0.4641,0.501,0.5413,0.5744,0.6246,0.6982,0.6797,0.6896,0.7244,0.7559,0.7879,-0.4541,0.0,0.0,0.0,0.0,0.0,-0.9984,-1.1323,-1.2314,-1.217,-1.2186,-1.2246,-1.2246,-1.2542,-1.2929,-1.3208,-1.4172,-1.4949,-1.5156,-1.5183,-1.5202,-1.5319,-1.5337,-1.5292,-1.5186,-1.5186,-1.5115,0.0,-1.5017,-1.5017,-1.5017,-1.5017,-1.5052,-1.515,-1.5186,-1.5355,-1.5687,-1.6004,-1.6315,-1.6664,-1.702,-1.7246,-1.7293,-1.718,-1.6963,-1.6708,-1.6547,-1.6403,-1.6178,-1.6178,-1.6178,-1.6178,-1.6178,-1.5718,-1.5017,-1.5017,-1.4546,-1.3904,-1.3904,-1.3468,-1.2932,-1.2824,-1.2302,-1.163,-1.1237,-1.0847,-1.0434,-0.9953,-0.9507,-0.9027,-0.8169,-0.7608,-0.7027,-0.6237,-0.5742,-0.5291,-0.464,-0.3938,-0.3411,-0.3299,-0.2849,-0.2449,-0.229,-0.2131,-0.2008,-0.2008,-0.1523,-0.0872,-0.0093,0.031,0.0657,0.1115,0.1628,0.2221,0.2857,0.3365,0.3801,0.414,0.4241,0.4406,0.4641,0.4739,0.5108,0.5744,0.5845,0.6246,0.6982,0.7093,0.7322,0.7707,0.7953,0.8103,-0.4857,-0.5119,-0.5574,-0.6129,0.0,0.0,-0.978,-1.0957,-1.191,-1.198,-1.1721,-1.1548,-1.1682,-1.1816,-1.1976,-1.2214,-1.2908,-1.3569,-1.4138,-1.4354,-1.4501,-1.4579,-1.4693,-1.4736,-1.4561,-1.463,-1.4603,-1.4435,-1.4503,-1.4546,-1.4546,-1.4546,-1.4617,-1.4803,-1.4803,-1.4927,-1.5219,-1.5551,-1.5857,-1.6135,-1.6618,-1.6954,-1.715,-1.718,-1.7123,-1.6916,-1.6708,-1.65,-1.6337,-1.6216,-1.6178,-1.6178,-1.6178,-1.5718,-1.5017,-1.5017,-1.4546,-1.3904,-1.3904,-1.3432,-1.2789,-1.2789,-1.2259,-1.1534,-1.108,-1.0704,-1.031,-0.9759,-0.9166,-0.851,-0.8022,-0.7376,-0.67,-0.6034,-0.557,-0.509,-0.4361,-0.3716,-0.3227,-0.2982,-0.2602,-0.2262,-0.2048,-0.2008,-0.2008,-0.2008,-0.1513,-0.0654,0.0735,0.0784,0.0869,0.1318,0.193,0.2562,0.3164,0.3555,0.3936,0.4274,0.4308,0.444,0.4772,0.4977,0.5312,0.5878,0.6213,0.6715,0.7455,0.7393,0.7662,0.8185,0.8269,0.8302,-0.548,-0.5643,0.0,0.0,-0.7375,0.0,-0.945,-1.0335,-1.1203,-1.1864,-1.1463,-1.1117,-1.1538,-1.1492,-1.15,-1.1764,-1.1765,-1.2064,-1.3092,-1.3567,-1.378,-1.3797,-1.4079,-1.4113,-1.3745,-1.3922,-1.3883,-1.3542,-1.3723,-1.3847,-1.3872,-1.3872,-1.4022,-1.4403,-1.4439,-1.4581,-1.4866,-1.5147,-1.5404,-1.5597,-1.6163,-1.6587,-1.6779,-1.715,-1.7237,-1.702,-1.6813,-1.6643,-1.6462,-1.6264,-1.6178,-1.6178,-1.6178,-1.5718,-1.5017,-1.5017,-1.4546,-1.3904,-1.3904,-1.3432,-1.2789,-1.2789,-1.2259,-1.1521,-1.0996,-1.059,-1.0165,-0.9614,-0.8755,-0.7993,-0.7993,-0.7149,-0.6211,-0.5719,-0.5309,-0.4812,-0.404,-0.3615,-0.3224,-0.2675,-0.232,-0.2094,-0.2016,-0.202,-0.2008,-0.2008,-0.0864,0.0472,0.179,0.1312,0.1024,0.1459,0.2196,0.2829,0.3235,0.3641,0.3969,0.4274,0.4308,0.4473,0.4839,0.5211,0.558,0.5945,0.6681,0.7388,0.8089,0.776,0.7956,0.8584,0.8486,0.8492,-0.6965,-0.7512,-0.7896,-0.7479,0.0,0.0,-0.8671,-0.8862,-0.9617,-1.1073,-1.0759,-1.0514,-1.151,-1.1819,-1.1972,-1.2021,-1.1491,-1.1351,-1.2157,-1.233,-1.2452,-1.2624,-1.2674,-1.2708,-1.2612,-1.2876,-1.3038,-1.2969,-1.3285,-1.3539,-1.365,-1.3658,-1.3758,-1.4003,-1.4011,-1.4047,-1.4118,-1.4472,-1.4914,-1.5468,-1.5984,-1.6368,-1.6578,-1.6809,-1.6811,-1.6618,-1.6407,-1.6387,-1.6462,-1.6264,-1.6178,-1.6178,-1.6178,-1.5718,-1.5017,-1.5017,-1.4546,-1.3904,-1.3904,-1.3432,-1.2789,-1.2789,-1.2259,-1.1469,-1.0784,-1.0452,-1.013,-0.9265,-0.8509,-0.7993,-0.7993,-0.7195,-0.6275,-0.586,-0.5454,-0.4879,-0.3812,-0.3497,-0.3182,-0.243,-0.2233,-0.2178,-0.2169,-0.2061,-0.2008,-0.2008,-0.0864,0.0093,0.0408,0.1238,0.2078,0.2687,0.2957,0.3237,0.3648,0.3998,0.4241,0.4308,0.4308,0.461,0.5245,0.5346,0.5714,0.6384,0.7054,0.7588,0.7956,0.8256,0.8456,0.859,0.8562,0.8568,-0.8494,-0.9037,-0.9251,-0.841,0.0,0.0,0.0,-0.9477,-1.0256,-1.1649,-1.0595,-0.9917,-1.162,-1.138,-1.1176,-1.1987,-1.1416,-1.1042,-1.14,-1.1279,-1.1188,-1.1299,-1.1685,-1.1962,-1.1962,-1.2214,-1.2513,-1.2777,-1.3162,-1.3443,-1.3506,-1.3561,-1.365,-1.3739,-1.3855,-1.3904,-1.3904,-1.4118,-1.4496,-1.508,-1.5665,-1.6054,-1.6214,-1.6601,-1.6637,-1.6348,-1.6151,-1.6056,-1.604,-1.584,-1.5703,-1.5647,-1.6037,-1.5718,-1.5017,-1.5017,-1.4546,-1.3904,-1.3904,-1.3432,-1.2789,-1.2789,-1.2259,-1.1498,-1.0882,-1.0287,-0.9665,-0.9015,-0.8381,-0.786,-0.7964,-0.7031,-0.5997,-0.5855,-0.5364,-0.4693,-0.372,-0.3485,-0.3218,-0.2396,-0.2241,-0.2253,-0.2214,-0.2154,-0.1959,-0.1553,-0.0655,0.0,0.0,0.1274,0.2405,0.3064,0.3165,0.3338,0.3725,0.4088,0.4308,0.4308,0.4308,0.4644,0.5379,0.5413,0.5915,0.6991,0.7225,0.7655,0.8256,0.849,0.859,0.859,0.859,0.859,0.0,0.0,0.0,0.0,0.0,-1.105,0.0,0.0,0.0,-1.232,-1.0618,-0.962,0.0,0.0,-1.0535,-1.2068,0.0,0.0,0.0,-1.0462,0.0,-1.0179,-1.082,-1.1292,-1.1357,-1.1714,-1.2146,-1.2621,-1.3042,-1.3287,-1.3353,-1.3423,-1.3536,-1.3609,-1.3747,-1.3863,-1.3904,-1.3904,-1.4184,-1.4766,-1.5391,-1.5805,-1.5973,-1.6469,-1.651,-1.6195,-1.5917,-1.5751,-1.563,-1.5429,-1.5236,-1.5132,-1.5736,-1.5541,-1.491,-1.491,-1.4474,-1.3904,-1.3904,-1.3432,-1.2789,-1.2789,-1.2187,-1.1413,-1.0941,-1.0124,-0.9274,-0.8911,-0.8258,-0.7746,-0.7888,-0.6815,-0.5713,-0.5752,-0.5225,-0.4467,-0.368,-0.35,-0.3245,-0.2442,-0.2296,-0.2273,-0.2238,-0.2212,-0.1947,-0.1156,-0.0448,0.0,0.0,0.1279,0.2457,0.3127,0.3231,0.3408,0.3769,0.4111,0.4308,0.4308,0.4308,0.4644,0.5379,0.555,0.6183,0.7426,0.7321,0.7689,0.859,0.859,0.859,0.859,0.859,0.859,0.0,0.0,0.0,0.0,-1.1988,0.0,0.0,0.0,-1.0482,-1.1809,0.0,0.0,0.0,0.0,0.0,0.0,0.0,0.0,-1.1539,-1.0155,-0.9311,-0.9809,-0.9933,-1.0137,-1.0431,-1.1156,-1.1785,-1.2166,-1.261,-1.2962,-1.3116,-1.3149,-1.3303,-1.3601,-1.3625,-1.3714,-1.3896,-1.3904,-1.4269,-1.4981,-1.5475,-1.5845,-1.6176,-1.6226,-1.6242,-1.6156,-1.5623,-1.5566,-1.5861,-1.5639,-1.5438,-1.5245,-1.5185,-1.491,-1.4546,-1.4546,-1.4261,-1.3904,-1.3904,-1.3432,-1.2789,-1.2789,-1.2008,-1.0982,-1.0515,-0.9946,-0.9388,-0.8938,-0.8258,-0.7713,-0.7737,-0.6676,-0.5638,-0.5709,-0.5155,-0.442,-0.3673,-0.35,-0.3245,-0.2442,-0.2296,-0.2293,-0.2283,-0.2284,-0.2048,-0.1291,-0.0509,0.0,0.0,0.1279,0.2457,0.3127,0.3425,0.3725,0.4197,0.4269,0.4308,0.4308,0.4308,0.4644,0.5379,0.6016,0.6656,0.7221,0.7393,0.7822,0.859,0.859,0.859,0.859,0.859,0.859,0.0,0.0,0.0,0.0,0.0,0.0,-0.9935,0.0,-0.9995,0.0,0.0,0.0,0.0,0.0,0.0,0.0,-1.1274,0.0,0.0,0.0,-0.9241,-0.9424,0.0,0.0,-1.0282,-1.0568,-1.0868,-1.1216,-1.1937,-1.2514,-1.2783,-1.2978,-1.3165,-1.3319,-1.3496,-1.3642,-1.3714,-1.3855,-1.4261,-1.5017,-1.5467,-1.5873,-1.6186,-1.6217,-1.605,-1.5812,-1.5353,-1.5147,-1.519,-1.5114,-1.4972,-1.4742,-1.4602,-1.454,-1.451,-1.451,-1.4261,-1.3904,-1.3904,-1.3432,-1.2717,-1.2259,-1.1756,-1.1234,-1.0515,-1.0098,-0.9682,-0.9012,-0.8212,-0.7603,-0.7694,-0.6615,-0.556,-0.5634,-0.5115,-0.4402,-0.3601,-0.3482,-0.3245,-0.2442,-0.2296,-0.2296,-0.2296,-0.2296,-0.2179,-0.1869,-0.0069,0.1279,0.1279,0.1818,0.2524,0.3331,0.3396,0.3633,0.4241,0.4473,0.4507,0.4308,0.4711,0.508,0.5379,0.612,0.679,0.7359,0.7622,0.8023,0.859,0.859,0.859,0.859,0.859,0.8628,-1.0219,0.0,0.0,0.0,0.0,0.0,0.0,0.0,0.0,0.0,0.0,0.0,0.0,0.0,0.0,0.0,0.0,-0.9978,0.0,-0.9789,0.0,0.0,0.0,0.0,0.0,-0.9879,-0.9886,-1.0315,-1.1222,-1.194,-1.2427,-1.2775,-1.2994,-1.3092,-1.3352,-1.3504,-1.3609,-1.3731,-1.4211,-1.5017,-1.5467,-1.5947,-1.637,-1.6255,-1.605,-1.5744,-1.5237,-1.4933,-1.4781,-1.4781,-1.4676,-1.446,-1.4375,-1.4362,-1.4407,-1.4357,-1.4154,-1.3904,-1.3904,-1.3432,-1.2681,-1.1864,-1.1584,-1.1456,-1.0595,-1.0234,-0.9936,-0.9085,-0.8168,-0.7507,-0.7617,-0.6549,-0.5481,-0.556,-0.5057,-0.4322,-0.3569,-0.3423,-0.3232,-0.244,-0.2296,-0.2296,-0.2296,-0.2188,-0.2075,-0.1919,0.0278,0.1986,0.2189,0.2189,0.2558,0.3499,0.343,0.3566,0.4241,0.4607,0.4742,0.461,0.5178,0.5547,0.5547,0.615,0.679,0.7393,0.7655,0.8056,0.859,0.859,0.859,0.859,0.8622,0.8721,0.0,0.0,0.0,-0.9042,0.0,0.0,0.0,0.0,-1.0036,0.0,0.0,0.0,0.0,0.0,0.0,0.0,0.0,0.0,0.0,0.0,0.0,0.0,0.0,0.0,0.0,-0.9127,-0.9009,-0.9667,-1.0421,-1.1225,-1.2073,-1.2443,-1.2767,-1.3084,-1.3108,-1.3279,-1.3601,-1.3617,-1.4094,-1.5017,-1.5467,-1.6094,-1.6784,-1.6368,-1.6203,-1.6127,-1.5352,-1.4998,-1.4998,-1.4998,-1.4854,-1.47,-1.4692,-1.4481,-1.4184,-1.4005,-1.3904,-1.3904,-1.3904,-1.3432,-1.2681,-1.1864,-1.1584,-1.1476,-1.0701,-1.0301,-0.992,-0.9122,-0.8229,-0.7493,-0.7498,-0.646,-0.5403,-0.5478,-0.495,-0.4228,-0.3556,-0.3399,-0.3196,-0.2436,-0.2296,-0.2296,-0.2296,-0.1933,-0.1451,-0.0927,0.0276,0.138,0.212,0.2189,0.2558,0.3499,0.36,0.3768,0.4274,0.4607,0.4977,0.5346,0.5681,0.5878,0.5878,0.6284,0.6719,0.7187,0.7426,0.7856,0.859,0.859,0.859,0.859,0.8743,0.8798,0.0,0.0,-0.8654,-0.7736,0.0,0.0,0.0,0.0,0.0,0.0,0.0,0.0,0.0,0.0,0.0,0.0,0.0,0.0,0.0,0.0,0.0,0.0,0.0,0.0,0.0,0.0,-0.8078,-0.8549,-0.9287,-1.0208,-1.124,-1.1702,-1.22,-1.2743,-1.297,-1.3214,-1.3465,-1.3552,-1.4086,-1.5017,-1.5475,-1.6103,-1.6784,-1.6368,-1.6203,-1.6165,-1.5352,-1.5006,-1.5006,-1.5006,-1.4966,-1.4909,-1.4757,-1.4635,-1.4489,-1.4196,-1.401,-1.3833,-1.3325,-1.3003,-1.2681,-1.1864,-1.1584,-1.1476,-1.0707,-1.0369,-1.0034,-0.915,-0.8285,-0.7607,-0.7512,-0.6455,-0.542,-0.5413,-0.4913,-0.4202,-0.3475,-0.3354,-0.3186,-0.2446,-0.2284,-0.2296,-0.2296,-0.1751,-0.1086,-0.0389,0.0624,0.1399,0.1652,0.1986,0.249,0.3262,0.3329,0.36,0.4241,0.4607,0.5074,0.5681,0.5845,0.5912,0.5912,0.6284,0.679,0.7393,0.7459,0.7856,0.859,0.859,0.8628,0.8743,0.8834,0.8854,-0.5657,-0.617,0.0,-0.6284,-0.6476,0.0,-0.7176,0.0,0.0,0.0,0.0,0.0,0.0,0.0,0.0,0.0,0.0,0.0,0.0,-0.8413,0.0,0.0,0.0,0.0,0.0,0.0,-0.7107,-0.7695,-0.8253,-0.9074,-1.0224,-1.1027,-1.1667,-1.2241,-1.2716,-1.3124,-1.3402,-1.349,-1.4019,-1.5017,-1.5475,-1.5992,-1.6591,-1.633,-1.6127,-1.5935,-1.5275,-1.5006,-1.5006,-1.5006,-1.5006,-1.499,-1.4846,-1.4765,-1.4667,-1.431,-1.4058,-1.3797,-1.3075,-1.2789,-1.2681,-1.1864,-1.1584,-1.1476,-1.0707,-1.0399,-1.0094,-0.9161,-0.8311,-0.7684,-0.7517,-0.6552,-0.5547,-0.5413,-0.4944,-0.4302,-0.3465,-0.332,-0.3165,-0.2432,-0.2313,-0.2296,-0.2296,-0.1678,-0.1013,-0.0493,0.0558,0.1276,0.1282,0.1818,0.2457,0.3127,0.3194,0.3598,0.461,0.4943,0.5413,0.6083,0.6116,0.6116,0.6116,0.6351,0.6824,0.7493,0.7493,0.7856,0.859,0.8667,0.8727,0.8808,0.8903,0.8979]},{"header":{"parameterUnit":"m.s-1","parameterCategory":1,"la1":30.6,"la2":29.2853,"lo1":-89.7004,"lo2":-87.6739,"dy":0.0162,"dx":0.0183,"nx":112,"ny":82,"refTime":"2024-06-20T12:00:00:Z","depth":0,"parameterNumber":3,"parameterNumberName":"V-component_of_WINDS"},"data":[0.0,0.0,0.0,0.0,0.0,0.0,0.0,0.0,0.0,0.0,0.0,0.0,0.0,0.0,0.0,0.0,0.0,0.0,0.0,0.0,0.0,0.0,0.0,0.0,0.0,0.0,0.0,0.0,0.0,0.0,0.0,0.0,0.0,0.0,0.0,0.0,0.0,0.0,0.0,0.0,0.0,0.0,0.0,0.0,0.0,0.0,0.0,0.0,0.0,0.0,0.0,0.0,0.0,0.0,0.0,0.0,0.0,0.0,0.0,0.0,0.0,0.0,0.0,0.0,0.0,0.0,0.0,0.0,0.0,0.0,0.0,0.0,0.0,0.0,0.0,0.0,0.0,0.0,0.0,0.0,0.0,0.0,0.0,0.0,0.0,0.0,0.0,0.0,0.0,0.0,0.0,1.6248,1.9831,2.1843,2.1317,2.0592,1.8725,1.5475,0.0,0.0,0.0,0.0,0.0,0.0,0.0,0.0,0.0,0.0,0.0,0.0,0.0,0.0,0.0,0.0,0.0,0.0,0.0,0.0,0.0,0.0,0.0,0.0,0.0,0.0,0.0,0.0,0.0,0.0,0.0,0.0,0.0,0.0,0.0,0.0,0.0,0.0,0.0,0.0,0.0,0.0,0.0,0.0,0.0,0.0,0.0,0.0,0.0,0.0,0.0,0.0,0.0,0.0,0.0,0.0,0.0,0.0,0.0,0.0,0.0,0.0,0.0,0.0,0.0,0.0,0.0,0.0,0.0,0.0,0.0,0.0,0.0,0.0,0.0,0.0,0.0,0.0,0.0,0.0,0.0,0.0,0.0,0.0,0.0,0.0,0.0,0.0,0.0,0.0,0.0,0.0,0.0,0.0,0.0,0.0,0.0,0.0,0.0,0.0,0.0,0.0,0.0,0.0,1.4941,2.0146,2.1569,2.2141,2.2113,2.0993,1.9021,1.6118,0.0,0.0,0.0,0.0,0.0,0.0,0.0,0.0,0.0,0.0,0.0,0.0,0.0,0.0,0.0,0.0,0.0,0.0,0.0,0.0,0.0,0.0,0.0,0.0,0.0,0.0,0.0,0.0,0.0,0.0,0.0,0.0,0.0,0.0,0.0,0.0,0.0,0.0,0.0,0.0,0.0,0.0,0.0,0.0,0.0,0.0,0.0,0.0,0.0,0.0,0.0,0.0,0.0,0.0,0.0,0.0,0.0,0.0,0.0,0.0,0.0,0.0,0.0,0.0,0.0,0.0,0.0,0.0,0.0,0.0,0.0,0.0,0.0,0.0,0.0,0.0,0.0,0.0,0.0,0.0,0.0,0.0,0.0,0.0,0.0,0.0,0.0,0.0,0.0,0.0,0.0,0.0,0.0,0.0,0.0,0.0,0.0,0.0,0.0,0.0,0.0,0.0,0.0,1.4356,1.6919,2.1344,2.2401,2.2647,2.2326,2.0742,1.8723,1.632,1.4565,0.0,0.0,0.0,0.0,0.0,0.0,0.0,0.0,0.0,0.0,0.0,0.0,0.0,0.0,0.0,0.0,0.0,0.0,0.0,0.0,0.0,0.0,0.0,0.0,0.0,0.0,0.0,0.0,0.0,0.0,0.0,0.0,0.0,0.0,0.0,0.0,0.0,0.0,0.0,0.0,0.0,0.0,0.0,0.0,0.0,0.0,0.0,0.0,0.0,0.0,0.0,0.0,0.0,0.0,0.0,0.0,0.0,0.0,0.0,0.0,0.0,0.0,0.0,0.0,0.0,0.0,0.0,0.0,0.0,0.0,0.0,0.0,0.0,0.0,0.0,0.0,0.0,0.0,0.0,0.0,0.0,0.0,0.0,0.0,0.0,0.0,0.0,0.0,0.0,0.0,0.0,0.0,0.0,0.0,0.0,0.0,0.0,0.0,0.0,0.0,0.0,0.0,1.702,1.916,2.2105,2.3026,2.3181,2.2487,2.0208,1.8046,1.6293,1.3697,0.0,0.0,0.0,0.0,0.0,0.0,0.0,0.0,0.0,0.0,0.0,0.0,0.0,0.0,0.0,0.0,0.0,0.0,0.0,0.0,0.0,0.0,0.0,0.0,0.0,0.0,0.0,0.0,0.0,0.0,0.0,0.0,0.0,0.0,0.0,0.0,0.0,0.0,0.0,0.0,0.0,0.0,0.0,0.0,0.0,0.0,0.0,0.0,0.0,0.0,0.0,0.0,0.0,0.0,0.0,0.0,0.0,0.0,0.0,0.0,0.0,0.0,0.0,0.0,0.0,0.0,0.0,0.0,0.0,0.0,0.0,0.0,0.0,0.0,0.0,0.0,0.0,0.0,0.0,0.0,0.0,0.0,0.0,0.0,0.0,0.0,0.0,0.0,0.0,0.0,0.0,0.0,0.0,0.0,0.0,0.0,0.0,0.0,0.0,0.0,0.0,0.0,1.8425,2.1569,2.3489,2.3779,2.3597,2.2898,1.9458,1.7024,1.6263,1.2426,0.0,0.0,0.0,0.0,0.0,0.0,0.0,0.0,0.0,0.0,0.0,0.0,0.0,0.0,0.0,0.0,0.0,0.0,0.0,0.0,0.0,0.0,0.0,0.0,0.0,0.0,0.0,0.0,0.0,0.0,0.0,0.0,0.0,0.0,0.0,0.0,0.0,0.0,0.0,0.0,0.0,0.0,0.0,0.0,0.0,0.0,0.0,0.0,0.0,0.0,0.0,0.0,0.0,0.0,0.0,0.0,0.0,0.0,0.0,0.0,0.0,0.0,0.0,0.0,0.0,0.0,0.0,0.0,0.0,0.0,0.0,0.0,0.0,0.0,0.0,0.0,0.0,0.0,0.0,0.0,0.0,0.0,0.0,0.0,0.0,0.0,0.0,0.0,0.0,0.0,0.0,0.0,0.0,0.0,0.0,0.0,0.0,0.0,0.0,0.0,0.0,0.0,1.8009,2.0802,0.0,2.3958,2.3898,2.297,2.0446,1.7944,1.5736,0.0,0.0,0.0,0.0,0.0,0.0,0.0,0.0,0.0,0.0,0.0,0.0,0.0,0.0,0.0,0.0,0.0,0.0,0.0,0.0,0.0,0.0,0.0,0.0,0.0,0.0,0.0,0.0,0.0,0.0,0.0,0.0,0.0,0.0,0.0,0.0,0.0,0.0,0.0,0.0,0.0,0.0,0.0,0.0,0.0,0.0,0.0,0.0,0.0,0.0,0.0,0.0,0.0,0.0,0.0,0.0,0.0,0.0,0.0,0.0,0.0,0.0,0.0,0.0,0.0,0.0,0.0,0.0,0.0,0.0,0.0,0.0,0.0,0.0,0.0,0.0,0.0,0.0,0.0,0.0,0.0,0.0,0.0,0.0,0.0,0.0,0.0,0.0,0.0,0.0,0.0,0.0,0.0,0.0,0.0,0.0,0.0,0.0,0.0,0.0,0.0,0.0,1.583,1.8313,2.0754,0.0,2.406,2.3925,2.297,2.0926,1.8539,1.5848,0.0,0.0,0.0,0.0,0.0,0.0,0.0,0.0,0.0,0.0,0.0,0.0,0.0,0.0,0.0,0.0,0.0,0.0,0.0,0.0,0.0,0.0,0.0,0.0,0.0,0.0,0.0,0.0,0.0,0.0,0.0,0.0,0.0,0.0,0.0,0.0,0.0,0.0,0.0,0.0,0.0,0.0,0.0,0.0,0.0,0.0,0.0,0.0,0.0,0.0,0.0,0.0,0.0,0.0,0.0,0.0,0.0,0.0,0.0,0.0,0.0,0.0,0.0,0.0,0.0,0.0,0.0,0.0,0.0,0.0,0.0,0.0,0.0,0.0,0.0,0.0,0.0,0.0,0.0,0.0,0.0,0.0,0.0,0.0,0.0,0.0,0.0,0.0,0.0,0.0,0.0,0.0,0.0,0.0,0.0,0.0,0.0,0.0,0.0,0.0,0.0,0.0,1.7084,1.9627,2.1997,2.4243,2.4154,2.3647,2.298,2.0644,1.8502,0.0,0.0,0.0,0.0,0.0,0.0,0.0,0.0,0.0,0.0,0.0,0.0,0.0,0.0,0.0,0.0,0.0,0.0,0.0,0.0,0.0,0.0,0.0,0.0,0.0,0.0,0.0,0.0,0.0,0.0,0.0,0.0,0.0,0.0,0.0,0.0,0.0,0.0,0.0,0.0,0.0,0.0,0.0,0.0,0.0,0.0,0.0,0.0,0.0,0.0,0.0,0.0,0.0,0.0,0.0,0.0,0.0,0.0,0.0,0.0,0.0,0.0,0.0,0.0,0.0,0.0,0.0,0.0,0.0,0.0,0.0,0.0,0.0,0.0,0.0,0.0,0.0,0.0,0.0,0.0,0.0,0.0,0.0,0.0,0.0,0.0,0.0,0.0,0.0,0.0,0.0,0.0,0.0,0.0,0.0,0.0,0.0,0.0,0.0,0.0,0.0,0.0,0.0,1.7506,2.0509,2.2833,2.4081,2.4575,2.4433,2.3478,2.2293,1.9866,1.576,0.0,0.0,0.0,0.0,0.0,0.0,0.0,0.0,0.0,0.0,0.0,0.0,0.0,0.0,0.0,0.0,0.0,0.0,0.0,0.0,0.0,0.0,0.0,0.0,0.0,0.0,0.0,0.0,0.0,0.0,0.0,0.0,0.0,0.0,0.0,0.0,0.0,0.0,0.0,0.0,0.0,0.0,0.0,0.0,0.0,0.0,0.0,0.0,0.0,0.0,0.0,0.0,0.0,0.0,0.0,0.0,0.0,0.0,0.0,0.0,0.0,0.0,0.0,0.0,0.0,0.0,0.0,0.0,0.0,0.0,0.0,0.0,0.0,0.0,0.0,0.0,0.0,0.0,0.0,0.0,0.0,0.0,0.0,0.0,0.0,0.0,0.0,0.0,0.0,0.0,0.0,0.0,0.0,0.0,0.0,0.0,0.0,0.0,0.0,0.0,0.0,0.0,1.8187,2.0942,2.3051,2.4093,2.4336,2.4173,2.355,2.3101,2.1264,1.746,0.0,0.0,0.0,0.0,0.0,0.0,0.0,0.0,0.0,0.0,0.0,0.0,0.0,0.0,0.0,0.0,0.0,0.0,0.0,0.0,0.0,0.0,0.0,0.0,0.0,0.0,0.0,0.0,0.0,0.0,0.0,0.0,0.0,0.0,0.0,0.0,0.0,0.0,0.0,0.0,0.0,0.0,0.0,0.0,0.0,0.0,0.0,0.0,0.0,0.0,0.0,0.0,0.0,0.0,0.0,0.0,0.0,0.0,0.0,0.0,0.0,0.0,0.0,0.0,0.0,0.0,0.0,0.0,0.0,0.0,0.0,0.0,0.0,0.0,0.0,0.0,0.0,0.0,0.0,0.0,0.0,0.0,0.0,0.0,0.0,0.0,0.0,0.0,0.0,0.0,0.0,0.0,0.0,0.0,0.0,0.0,0.0,0.0,0.0,0.0,0.0,0.0,1.8984,2.1341,2.3209,2.4501,2.4028,2.3631,2.3609,2.3603,2.2795,2.0925,0.0,0.0,0.0,0.0,0.0,0.0,0.0,0.0,0.0,0.0,0.0,0.0,0.0,0.0,0.0,0.0,0.0,0.0,0.0,0.0,0.0,0.0,0.0,0.0,0.0,0.0,0.0,0.0,0.0,0.0,0.0,0.0,0.0,0.0,0.0,0.0,0.0,0.0,0.0,0.0,0.0,0.0,0.0,0.0,0.0,0.0,0.0,0.0,0.0,0.0,0.0,0.0,0.0,0.0,0.0,0.0,0.0,0.0,0.0,0.0,2.0986,0.0,0.0,0.0,0.0,0.0,0.0,0.0,0.0,0.0,0.0,0.0,0.0,0.0,0.0,0.0,0.0,0.0,0.0,0.0,0.0,0.0,0.0,0.0,0.0,0.0,0.0,0.0,0.0,0.0,0.0,0.0,0.0,0.0,0.0,0.0,0.0,0.0,0.0,0.0,0.0,0.0,1.9689,2.3437,2.604,2.6335,2.6113,2.5974,2.5957,2.5942,2.4842,2.2403,2.1443,0.0,0.0,0.0,0.0,0.0,0.0,0.0,0.0,0.0,0.0,0.0,0.0,0.0,0.0,0.0,0.0,0.0,0.0,0.0,0.0,0.0,0.0,0.0,0.0,0.0,0.0,0.0,0.0,0.0,0.0,0.0,0.0,0.0,0.0,0.0,0.0,0.0,0.0,0.0,0.0,0.0,0.0,0.0,0.0,0.0,0.0,0.0,0.0,0.0,0.0,0.0,0.0,0.0,0.0,0.0,0.0,0.0,0.0,0.0,0.0,2.1931,0.0,0.0,0.0,0.0,0.0,0.0,0.0,0.0,0.0,0.0,0.0,0.0,0.0,0.0,0.0,0.0,0.0,0.0,0.0,0.0,0.0,0.0,0.0,0.0,0.0,0.0,0.0,0.0,0.0,0.0,0.0,0.0,0.0,0.0,0.0,0.0,0.0,0.0,0.0,0.0,2.0501,2.4553,2.7274,2.7137,2.7095,2.7052,2.7052,2.6988,2.6335,2.4906,2.3722,0.0,0.0,0.0,0.0,0.0,0.0,0.0,0.0,0.0,0.0,0.0,0.0,0.0,0.0,0.0,0.0,0.0,0.0,0.0,0.0,0.0,0.0,0.0,0.0,0.0,0.0,0.0,0.0,0.0,0.0,0.0,0.0,0.0,0.0,0.0,0.0,0.0,0.0,0.0,0.0,0.0,0.0,0.0,0.0,0.0,0.0,0.0,0.0,0.0,0.0,0.0,0.0,0.0,3.1235,3.1702,3.1777,3.3979,3.4015,3.2204,2.8656,2.6451,2.526,2.3385,0.0,0.0,0.0,0.0,0.0,0.0,0.0,0.0,0.0,0.0,0.0,0.0,0.0,0.0,0.0,0.0,0.0,0.0,0.0,0.0,0.0,0.0,0.0,0.0,2.6251,2.6885,2.3638,0.0,0.0,0.0,0.0,0.0,0.0,0.0,0.0,0.0,0.0,0.0,2.2087,2.5802,2.8251,2.8012,2.7961,2.793,2.7909,2.7869,2.7753,2.7604,2.5958,2.443,0.0,0.0,0.0,0.0,0.0,0.0,0.0,0.0,0.0,0.0,0.0,0.0,0.0,0.0,0.0,0.0,0.0,0.0,0.0,0.0,0.0,0.0,0.0,0.0,0.0,0.0,0.0,0.0,0.0,0.0,0.0,0.0,2.2058,2.0764,0.0,0.0,0.0,0.0,0.0,0.0,0.0,0.0,0.0,0.0,0.0,0.0,0.0,3.0608,3.1682,3.4318,3.5657,3.5694,3.7586,3.8508,3.8496,3.8111,3.7785,3.7476,3.6932,0.0,3.0229,3.0851,0.0,0.0,0.0,0.0,0.0,0.0,0.0,0.0,0.0,0.0,0.0,0.0,0.0,0.0,0.0,0.0,0.0,0.0,0.0,0.0,0.0,0.0,2.9311,3.0626,3.1621,3.2556,0.0,2.7201,2.1459,2.1016,2.0298,0.0,0.0,0.0,0.0,0.0,0.0,0.0,2.5799,2.8645,3.0382,3.0362,3.0212,3.0056,3.0016,2.99,2.9761,2.9632,2.9199,2.7751,2.5144,2.3909,0.0,0.0,0.0,0.0,0.0,0.0,0.0,0.0,0.0,0.0,0.0,0.0,0.0,0.0,0.0,0.0,0.0,0.0,0.0,0.0,0.0,0.0,0.0,0.0,0.0,0.0,0.0,0.0,0.0,2.3063,2.5536,2.415,2.5583,2.5945,0.0,0.0,0.0,0.0,0.0,0.0,0.0,0.0,0.0,3.4339,3.4403,3.5545,3.7959,3.927,4.0136,4.0641,4.1551,4.1984,4.1982,4.1584,4.1421,4.1412,4.1402,4.0175,3.7901,3.5286,3.2365,2.9407,0.0,0.0,0.0,0.0,2.6679,2.6608,2.7494,2.7555,2.7174,2.644,0.0,0.0,0.0,0.0,0.0,0.0,0.0,0.0,0.0,0.0,3.1793,3.2843,3.3686,3.4462,3.514,3.2051,2.8688,0.0,2.5985,2.381,1.9222,0.0,0.0,0.0,0.0,2.7222,2.8776,3.1127,3.2576,3.2374,3.1925,3.1587,3.1484,3.0898,3.0497,3.0435,3.0215,2.9543,2.8247,2.6105,2.3615,0.0,0.0,0.0,0.0,0.0,0.0,0.0,0.0,0.0,0.0,0.0,0.0,0.0,0.0,0.0,0.0,0.0,0.0,0.0,0.0,0.0,0.0,0.0,0.0,0.0,0.0,0.0,0.0,2.6118,2.8632,2.8242,2.9865,3.036,0.0,0.0,0.0,0.0,0.0,0.0,3.3531,3.4816,3.6509,3.8633,3.871,4.0,4.2727,4.2729,4.3043,4.3709,4.3711,4.3711,4.3711,4.3708,4.3704,4.3701,4.3693,4.3682,4.3273,3.8945,3.5782,3.3574,3.3166,3.2589,3.1962,3.1855,3.148,3.118,3.237,3.248,3.1899,3.0784,3.0057,2.9262,2.7155,0.0,0.0,0.0,0.0,2.9116,3.0522,3.1755,3.2857,3.379,3.4505,3.5107,3.5725,3.557,3.4706,0.0,3.1419,2.9196,2.3894,0.0,0.0,0.0,0.0,3.0737,3.1655,3.3227,3.4169,3.3922,3.3308,3.2901,3.2757,3.1853,3.1274,3.1248,3.0826,3.0551,3.0499,2.8218,2.6459,2.5354,0.0,0.0,0.0,0.0,0.0,0.0,0.0,0.0,0.0,0.0,0.0,0.0,0.0,0.0,0.0,0.0,0.0,0.0,0.0,0.0,0.0,0.0,0.0,0.0,0.0,0.0,0.0,0.0,0.0,3.3543,3.5364,0.0,0.0,0.0,0.0,3.5011,3.75,3.9016,3.9088,4.1597,4.3134,4.3246,4.3348,4.3436,4.3629,4.3649,4.3657,4.3696,4.3702,4.3706,4.3709,4.371,4.3711,4.371,4.3709,4.3706,4.3615,4.2439,4.137,4.0422,3.9564,3.8695,3.7737,3.6595,3.5622,3.4848,3.4848,3.4848,3.4814,3.4992,3.3766,3.2217,3.2178,3.0936,0.0,0.0,3.0953,3.1137,3.2006,3.2179,3.2524,3.4011,3.4425,3.5067,3.7371,3.7157,3.6394,0.0,3.5718,3.4768,3.1873,0.0,3.1864,3.1243,3.153,3.2552,3.4603,3.4738,3.4662,3.4653,3.4321,3.41,3.4002,3.3205,3.2637,3.242,3.1558,3.0985,3.0794,3.0583,2.9035,2.6017,2.5721,0.0,0.0,0.0,0.0,0.0,0.0,0.0,0.0,0.0,0.0,0.0,0.0,0.0,0.0,0.0,0.0,0.0,0.0,0.0,0.0,0.0,0.0,0.0,0.0,0.0,0.0,0.0,0.0,3.6557,3.8277,0.0,3.7135,3.8124,3.8905,3.8865,4.1361,4.287,4.2903,4.4373,4.523,4.5285,4.5304,4.5319,4.5292,4.5302,4.5307,4.5308,4.5319,4.5329,4.5376,4.538,4.5385,4.5389,4.5351,4.5351,4.5271,4.3818,4.2972,4.265,4.2328,4.1664,4.082,4.0388,3.9262,3.8001,3.7983,3.7542,3.7073,3.7186,3.6674,3.5782,3.4687,3.4244,3.3998,3.3183,3.3349,3.3786,3.4035,3.4434,3.4868,3.5349,3.5496,3.6168,3.8555,3.8389,3.8209,3.9685,3.837,3.6258,3.3797,3.5014,3.5535,3.327,3.4697,3.6214,3.6825,3.6818,3.6693,3.6475,3.5914,3.5511,3.5333,3.4529,3.3963,3.3786,3.3303,3.276,3.2168,3.1967,3.1058,2.9322,2.9216,2.6263,0.0,0.0,0.0,0.0,0.0,0.0,0.0,0.0,0.0,0.0,0.0,0.0,0.0,0.0,0.0,0.0,0.0,0.0,0.0,0.0,0.0,0.0,0.0,0.0,0.0,0.0,3.9015,4.0113,4.1572,4.2099,4.11,4.2474,4.3421,4.338,4.5058,4.6054,4.6054,4.6618,4.6955,4.7021,4.7003,4.7024,4.7046,4.7057,4.7025,4.7028,4.7088,4.7101,4.7148,4.6843,4.6694,4.6703,4.6436,4.6284,4.6209,4.5039,4.4565,4.4389,4.3235,4.2383,4.1914,4.1909,4.0931,3.9619,3.9646,3.9044,3.8319,3.8572,3.8399,3.7854,3.6669,3.6664,3.6895,3.5659,3.5714,3.6159,3.61,3.6405,3.6746,3.6677,3.6678,3.7171,3.9034,3.8975,3.9082,4.1024,3.9893,3.8136,3.6556,3.7671,3.7875,3.5286,3.6961,3.8304,3.7719,3.7883,3.7967,3.7721,3.7202,3.6774,3.6629,3.4968,3.4278,3.507,3.3826,3.3196,3.3496,3.2141,3.105,3.0364,2.9298,2.621,2.0993,0.0,0.0,0.0,0.0,0.0,0.0,0.0,0.0,0.0,0.0,0.0,0.0,0.0,0.0,0.0,0.0,0.0,0.0,0.0,0.0,0.0,0.0,0.0,3.8465,3.9136,4.096,4.4308,4.5394,4.6229,4.7058,4.7891,4.8438,4.8548,4.8574,4.8574,4.8613,4.8642,4.8672,4.8743,4.8777,4.8769,4.8832,4.8798,4.8779,4.874,4.8779,4.8796,4.8757,4.7939,4.7557,4.7493,4.6724,4.6344,4.6352,4.6323,4.6288,4.5937,4.2566,4.1215,4.1192,4.1181,4.0572,3.9721,3.9738,3.9206,3.8594,3.9406,3.9061,3.8357,3.8254,3.8263,3.8227,3.8123,3.8092,3.809,3.8015,3.7969,3.7878,3.783,3.781,3.801,3.8784,3.8918,3.9094,3.9946,4.0448,4.0732,4.0622,3.9856,3.8853,3.7713,3.8368,0.0,3.7377,3.7939,3.8429,3.8323,3.8036,3.7872,3.7872,3.4611,3.3642,3.6203,3.3134,3.2284,3.4647,3.1305,2.9313,2.9084,2.6099,2.3822,2.2362,0.0,0.0,0.0,0.0,0.0,0.0,0.0,0.0,0.0,0.0,0.0,0.0,0.0,0.0,0.0,0.0,0.0,0.0,0.0,0.0,0.0,3.9643,4.2087,4.1912,4.3161,4.4865,4.7023,4.7492,4.7695,4.7967,4.8217,4.8687,4.9312,4.9956,5.059,5.121,5.1841,5.221,5.2204,5.2278,5.2039,5.1442,5.0819,5.0215,4.9631,4.9022,4.8733,4.872,4.8486,4.8388,4.8414,4.8223,4.7769,4.7123,4.6541,4.5925,4.531,4.4999,4.4091,4.2984,4.2975,4.2015,4.0733,4.0727,4.0518,4.0305,4.0537,4.0433,4.0127,3.9464,3.9239,3.9085,3.8423,3.8234,3.8227,3.8149,3.8099,3.8041,3.8036,3.7959,3.8342,3.9749,4.0015,4.037,4.181,4.211,4.1899,4.1035,4.0635,4.047,4.0563,4.0817,0.0,4.0362,3.9924,3.9346,3.8585,3.7834,3.737,3.7247,3.6309,3.6242,3.7449,3.6557,3.6024,3.6078,3.488,3.387,3.3129,2.9317,2.6878,0.0,0.0,0.0,0.0,0.0,0.0,0.0,0.0,0.0,0.0,0.0,0.0,0.0,0.0,0.0,0.0,0.0,0.0,0.0,0.0,0.0,0.0,4.2732,4.5055,4.6174,4.6883,4.7769,4.9069,4.9508,4.9894,5.0309,5.0383,5.0619,5.1183,5.1676,5.2194,5.2693,5.32,5.3499,5.3553,5.3617,5.343,5.3028,5.2516,5.2033,5.1579,5.1084,5.0831,5.0815,5.0464,5.0135,4.9818,4.9474,4.883,4.7995,4.753,4.7039,0.0,0.0,0.0,0.0,0.0,4.251,4.1596,4.124,4.1078,4.103,4.1024,4.1045,4.0943,4.0434,4.0255,4.0075,3.9572,3.9425,3.9424,3.9371,3.933,3.9276,3.9233,3.9206,3.9445,4.0395,4.0546,4.0869,4.2214,4.2393,0.0,4.2351,4.192,4.1548,4.1415,4.1715,4.1761,4.1154,4.091,4.0577,3.9978,3.9355,3.882,3.8329,3.7226,0.0,0.0,0.0,3.5985,3.5029,3.4718,0.0,0.0,0.0,0.0,0.0,0.0,0.0,0.0,2.4714,2.402,0.0,0.0,0.0,0.0,0.0,0.0,0.0,0.0,0.0,0.0,0.0,0.0,0.0,0.0,0.0,0.0,4.5419,4.7895,5.015,5.0164,5.0133,5.0712,5.1398,5.2182,5.3095,5.3269,5.3392,5.3557,5.3653,5.3773,5.385,0.0,0.0,0.0,0.0,5.4122,5.4238,5.4077,5.3996,5.4074,5.3864,5.3799,5.3766,5.2988,5.2264,5.155,5.0752,4.9917,4.9085,4.9099,4.8967,4.8485,4.5266,4.3944,4.375,4.2884,4.2567,4.2449,4.1662,0.0,0.0,4.1258,4.1169,4.1118,4.1108,4.1055,4.1042,4.112,4.1174,4.1184,4.126,4.1267,4.1182,4.1132,4.1116,4.11,4.1043,4.0978,4.1121,4.1932,4.2105,4.2559,4.3994,4.3357,4.2372,4.1417,4.197,4.2153,4.1142,4.1564,4.1924,4.1743,0.0,0.0,4.0222,3.7919,3.711,3.8575,3.6274,3.4421,3.3402,3.3215,3.1917,2.9291,2.9136,3.0252,3.2546,3.1742,3.223,3.3722,2.6954,2.5123,0.0,0.0,0.0,0.0,0.0,0.0,0.0,0.0,0.0,0.0,0.0,0.0,0.0,0.0,0.0,4.4718,4.754,4.9695,5.0192,5.1938,5.3021,5.2571,5.2653,5.2806,5.3026,5.3727,5.4439,5.5196,5.5928,5.6666,5.7361,5.7399,5.7448,5.7468,5.7506,5.7562,5.7667,5.6315,5.5676,5.5715,0.0,0.0,5.378,5.3625,5.3444,5.3312,5.3122,5.2214,5.0813,5.0817,5.0024,4.8617,4.6585,4.5386,4.4648,4.3789,4.3437,4.3437,4.3279,4.2731,4.2145,4.214,4.1665,4.1111,4.111,4.1104,0.0,4.1916,4.2134,4.2269,4.292,4.3086,4.3049,4.2989,4.2967,4.2983,4.2951,4.2901,4.2899,4.3093,4.3615,4.4119,4.4342,4.4088,4.3955,4.422,4.4425,4.4417,4.4102,4.3542,4.288,4.2024,4.1247,4.0656,4.0374,3.9841,3.9607,3.9785,3.8594,3.7698,3.7297,3.7273,3.6906,3.619,3.5578,3.5522,3.6015,3.5076,3.4767,3.5087,3.1911,3.0698,0.0,0.0,0.0,0.0,0.0,0.0,0.0,0.0,0.0,0.0,0.0,3.9179,4.127,0.0,4.5376,4.7475,4.9123,5.0583,5.1878,5.3168,5.3881,5.3523,5.391,5.4367,5.4824,5.5266,5.5927,5.6839,5.7385,5.7857,5.8281,5.8346,5.8335,5.8361,5.8392,5.8442,5.8558,5.773,5.7323,5.7374,5.6098,5.5557,5.5625,5.52,5.4762,5.4414,5.4414,5.3696,5.2526,5.2124,5.0943,4.9375,4.8512,4.7399,4.6161,4.5306,4.4722,4.4292,4.3864,4.3396,4.3045,4.3047,4.246,4.1756,4.1755,4.1441,4.1282,4.2139,4.2405,4.259,4.344,4.3655,4.3629,4.3575,4.3557,4.3535,4.354,4.3507,4.3595,4.4008,4.4419,4.4744,4.5082,4.5105,4.5107,4.5214,4.5244,4.5202,4.512,4.4624,4.4112,4.3609,4.3039,4.2483,4.2002,4.1411,4.1061,4.0976,4.0067,3.946,3.9278,3.8851,3.8575,3.8401,3.7968,3.7762,3.7762,3.6765,3.6315,3.627,3.4704,3.3859,0.0,0.0,0.0,0.0,0.0,0.0,0.0,3.6892,3.7891,3.9283,4.1031,4.2777,4.436,4.6087,4.7843,4.974,5.05,5.1521,5.3553,5.3985,5.4165,5.4358,5.5121,5.5899,5.6575,5.699,5.7487,5.8265,5.8519,5.8664,5.8664,5.8729,5.8781,5.8754,5.8765,5.8857,5.8954,5.88,5.8737,5.8828,5.7942,5.752,5.7439,5.6713,5.5976,5.5213,5.5034,5.4621,5.3944,5.2947,5.1771,5.0546,5.0373,4.9343,4.7884,4.7081,4.6227,4.5407,4.4666,4.4236,4.3965,4.3937,4.3354,4.2652,4.2655,4.2147,4.1796,4.2656,4.2928,4.3121,4.3975,4.42,4.4187,4.4136,4.4123,4.4103,4.4114,4.4053,4.4226,4.4943,4.5016,4.5162,4.5836,4.5914,4.5807,4.5516,4.5466,4.5424,4.5345,4.524,4.517,4.5159,4.5004,4.46,4.3844,4.2777,4.2136,4.2136,4.1243,4.0641,4.043,3.9667,3.9165,3.8986,3.8733,3.8577,3.8598,3.7799,3.7429,3.7393,3.6435,3.5666,3.4804,3.4634,3.6137,3.9153,3.8898,3.9027,0.0,4.2429,4.1647,4.4795,4.4925,4.4964,4.6626,4.8338,4.9629,4.9899,5.1826,5.3359,5.3512,5.4246,5.5034,5.5685,5.6136,5.6424,5.6507,5.7965,5.8962,5.9083,5.9869,6.0323,6.0323,6.0398,6.0441,6.0447,6.05,6.0558,6.0619,5.9848,5.9554,5.966,5.8771,5.7987,5.7306,5.7232,5.6753,5.5955,5.5208,5.4851,5.466,5.3064,5.2361,5.2158,5.1371,5.0501,4.9635,4.8803,4.7957,4.7209,4.7102,4.6091,4.4842,4.4845,4.4265,4.357,4.3531,4.3497,4.3582,4.4447,4.4724,4.4921,4.578,4.601,4.6005,4.5998,4.5945,4.5929,4.5926,4.5905,4.5923,4.6037,4.6008,4.5972,4.6065,4.602,4.5923,4.5696,4.5657,4.5611,4.5475,4.5405,4.5351,4.5383,4.523,4.507,4.484,4.3894,4.3322,4.3322,4.2364,4.1774,4.1631,4.0846,4.0295,4.0022,3.9327,3.8914,3.8848,3.87,3.8625,3.8581,3.7578,3.6518,4.1202,4.1291,4.1655,4.232,4.2992,4.3813,4.4801,4.4494,4.4533,4.6455,4.6524,4.6708,4.84,4.9223,5.0174,5.1699,5.2802,5.3799,5.475,5.5243,5.578,5.6563,5.7231,5.7696,5.7786,5.8542,5.9216,5.9674,6.0207,6.0466,6.0466,6.0572,6.0629,6.0629,6.0654,6.0703,6.0769,6.0423,6.0327,6.0436,5.9549,5.9016,5.8708,5.7687,5.6837,5.6078,5.5788,5.5359,5.4837,5.4152,5.3281,5.2421,5.2044,5.1408,5.0588,4.9798,4.8956,4.813,4.763,4.6969,4.6308,4.5853,4.512,4.4383,4.4391,4.4047,4.3822,4.4737,4.5016,4.5178,4.6047,4.6638,4.6992,4.6992,4.7342,4.7727,4.7724,4.7325,4.6962,4.6956,4.6538,4.6157,4.6149,4.6105,4.6042,4.5955,4.5858,4.5795,4.5695,4.5603,4.5525,4.5429,4.5331,4.5298,4.5181,4.4703,4.4425,4.4425,4.3479,4.2888,4.2791,4.1925,4.1144,4.0514,4.013,3.9637,3.9028,3.895,3.8884,3.8848,3.8375,3.7902,4.5476,4.5954,4.5993,4.4993,4.6068,4.704,4.5611,4.5749,4.6389,4.7285,4.7602,4.819,4.9619,5.0228,5.1168,5.3271,5.3811,5.4451,5.594,5.6137,5.6438,5.7296,5.7993,5.8564,5.8876,5.9102,5.9452,6.0023,6.0234,6.0313,6.0313,6.0425,6.0506,6.0526,6.0546,6.0591,6.066,6.066,6.0716,6.0827,6.0206,5.9832,5.9652,5.7931,5.6907,5.6369,5.6225,5.5792,5.5199,5.4978,5.415,5.3052,5.2783,5.2227,5.1411,5.0861,4.9956,4.8926,4.8303,4.7949,4.7596,4.6767,4.6072,4.5527,4.5308,4.4772,4.4431,4.5118,4.5283,4.5447,4.605,4.6844,4.7479,4.7483,4.8156,4.8786,4.8788,4.8281,4.7849,4.7846,4.7362,4.6834,4.6599,4.6524,4.6403,4.6154,4.6022,4.5908,4.5849,4.5781,4.5653,4.5503,4.5475,4.5429,4.536,4.5262,4.5197,4.5181,4.4463,4.3998,4.3932,4.3026,4.2203,4.1498,4.117,4.0534,3.9551,3.9496,3.9314,3.9058,3.8943,3.8899,4.5803,4.6412,4.7239,4.7119,4.7013,4.6892,4.6765,4.6742,4.7005,4.7896,4.8656,4.9384,5.0223,5.1748,5.3193,5.4046,5.494,5.5827,5.6671,5.6783,5.7112,5.7976,5.815,5.8551,5.9379,5.9782,5.9983,5.9983,6.0053,6.0099,6.0099,6.0173,6.0261,6.0384,6.0491,6.0558,6.0585,6.0585,6.0623,6.0697,6.0697,6.0272,5.9446,5.784,5.7128,5.7106,5.6348,5.5984,5.5912,5.5109,5.4764,5.4642,5.379,5.2968,5.2267,5.2228,5.1218,4.985,4.9811,4.9285,4.8405,4.7543,4.7242,4.7087,4.6316,4.6063,4.6042,4.6042,4.6058,4.6084,4.6198,4.6789,4.7418,4.7488,4.8166,4.8799,4.8808,4.8781,4.8748,4.8748,4.8749,4.8469,4.7609,4.7468,4.7163,4.6302,4.6142,4.6063,4.5926,4.5856,4.5769,4.5684,4.564,4.5578,4.5485,4.5424,4.5376,4.5403,4.5251,4.5121,4.5059,4.4151,4.3577,4.3435,4.2505,4.1575,4.0644,4.0637,4.023,3.9373,3.9242,3.9137,4.7155,4.7307,4.7101,4.6912,4.6764,4.6765,4.7349,4.7818,4.8392,4.9376,5.037,5.1169,5.1509,5.2924,5.4083,5.4417,5.541,5.6426,5.7351,5.7473,5.7801,5.8737,5.885,5.9009,5.9336,5.9607,0.0,5.9715,5.9893,6.0202,6.0733,6.0897,6.1248,6.185,6.1971,6.2051,6.2122,6.1596,6.1351,6.1429,6.0891,6.0194,5.9415,5.8934,5.8105,5.7122,5.6903,5.6464,5.5924,5.5634,5.5184,5.4657,5.4348,5.3722,5.2952,5.2398,5.1807,5.1202,5.0128,4.9611,4.9233,4.8389,4.7681,4.7168,4.6917,4.6427,4.5975,4.6035,4.602,4.6044,4.606,4.7177,4.8253,4.8308,4.9386,5.0462,5.0441,4.9989,4.9612,4.9659,4.921,4.871,4.8397,4.8355,4.806,4.7171,4.6529,4.6063,4.5983,4.5965,4.5909,4.5849,4.5771,4.5955,4.644,4.5903,4.5765,4.6373,4.5731,4.5301,4.5283,4.4908,4.4389,4.3696,4.3336,4.2692,4.1695,4.1644,4.1173,4.0321,4.0237,3.9885,4.8425,4.8626,4.8535,4.836,4.8221,4.8284,4.8855,4.9323,4.9797,5.0443,5.1037,5.1442,5.1556,5.2251,5.3195,5.4301,5.5362,5.6584,5.7992,5.843,5.8741,5.9082,5.9129,5.928,5.9637,5.9797,0.0,5.9998,6.0164,6.0627,6.1422,6.1595,6.195,6.2507,6.2641,6.2727,6.2795,6.2342,6.1976,6.1734,6.0955,6.0335,5.9804,5.9539,5.8844,5.7879,5.7637,5.7042,5.6272,5.6293,5.5763,5.4998,5.4998,5.4487,5.3719,5.3122,5.2754,5.2292,5.0701,5.0155,5.0015,4.9171,4.8498,4.7984,4.7696,4.6971,4.6319,4.6342,4.6141,4.5938,4.595,4.727,4.8629,4.8642,4.9958,5.1239,5.1265,5.0821,5.0491,5.0503,5.0072,4.9585,4.9273,4.8981,4.863,4.8057,4.7435,4.6835,4.6131,4.6059,4.6025,4.5974,4.589,4.608,4.6545,4.6318,4.6367,4.6904,4.6312,4.5927,4.5956,4.5503,4.4984,4.4337,4.4281,4.376,4.277,4.2722,4.224,4.1324,4.1011,4.0491,4.9524,5.0279,5.1259,5.1195,5.1137,5.1107,5.1107,5.1098,5.1172,5.1218,5.0835,5.0507,5.0633,5.0333,5.1026,5.3996,5.5151,5.6415,5.8631,5.9587,5.9814,5.9189,5.9097,5.9435,6.0431,6.0478,0.0,6.0783,0.0,6.1305,6.2125,6.2225,6.2351,6.2513,6.2568,6.2659,6.2739,6.2795,6.2458,6.1677,6.0986,6.0642,6.0572,5.9722,5.9339,5.9268,5.8492,5.7716,5.6948,5.6967,5.65,5.5736,5.5698,5.5224,5.4524,5.4439,5.3946,5.3104,5.1537,5.0958,5.0743,4.992,4.9619,4.9426,4.8615,4.7727,4.7032,4.7032,4.653,4.5958,4.5992,4.7265,4.8577,4.8576,4.9852,5.1125,5.1161,5.1249,5.1284,5.1287,5.1298,5.106,5.02,4.9384,4.8864,4.8864,4.8819,4.8173,4.6405,4.6173,4.6152,4.6124,4.6035,4.5991,4.5959,4.6629,4.7034,4.7071,4.6954,4.6926,4.6916,4.5975,4.5448,4.5304,4.524,4.4778,4.3872,4.3867,4.3348,4.2342,4.1586,4.1101,5.0553,5.0889,5.1147,5.1118,5.1032,5.0944,5.0944,5.1373,5.1942,5.2602,5.2186,5.2121,5.3671,5.3737,5.4284,5.6549,5.7453,5.83,5.9483,5.9324,5.9477,6.0586,6.0197,6.0424,6.1956,6.1566,0.0,0.0,6.193,6.2071,6.2862,6.2993,6.3322,6.4029,6.4091,6.418,6.4305,6.3856,6.2886,6.1477,6.1329,6.0974,6.0432,6.025,5.9875,5.9307,5.9095,5.8533,5.7772,5.7131,5.6715,5.6447,5.58,5.5422,5.5165,5.4534,5.4171,5.3809,5.2757,5.21,5.1524,5.0653,4.9927,4.936,4.9125,4.8428,4.776,4.776,4.7674,4.7593,4.7601,4.8477,4.9316,4.9392,5.0245,5.103,5.1091,5.1133,5.1167,5.1229,5.1252,5.1227,5.1018,5.0309,4.9787,4.9762,4.9219,4.8391,4.7277,4.7132,4.6874,4.6175,4.6067,4.6309,4.6901,4.6538,4.6797,4.8037,4.7463,4.7055,4.7055,4.6699,4.6197,4.5557,4.539,4.522,4.4919,4.4876,4.4396,4.3481,4.3219,4.2695,5.1428,5.1784,5.2062,5.2013,5.1952,5.1741,5.1211,5.1415,5.1564,5.1145,5.0267,5.0223,5.2258,5.2384,5.3279,5.6664,5.7817,5.8683,5.9749,6.0136,6.0418,6.0667,6.0938,6.1502,6.2561,6.2236,6.2363,0.0,6.2741,6.2784,6.3632,6.3756,6.3992,6.4492,6.4596,6.4698,6.4826,6.4132,6.3305,6.2395,6.1759,6.1263,6.0855,6.0554,6.0189,5.9797,0.0,5.93,5.8496,5.7992,5.7385,5.6658,5.6167,5.5745,5.5356,5.4897,5.4713,5.4562,5.3696,5.3168,5.2675,5.1425,5.0739,5.0274,4.9902,4.9163,4.8496,4.847,4.8258,4.8025,4.8049,4.8768,4.95,4.9564,5.0274,5.0945,5.1009,5.1023,5.1079,5.1139,5.1188,5.1239,5.1294,5.0933,5.0647,5.0633,5.0259,4.9647,4.8743,4.8326,4.7708,4.6826,4.6722,4.6732,4.6824,4.67,4.7001,4.7923,4.7795,4.7706,4.7653,4.7592,4.7142,4.6232,4.6102,4.586,4.539,4.5334,4.5053,4.4543,4.4108,4.358,5.2154,5.271,5.3266,5.3198,5.3214,5.2882,5.1573,5.1122,5.043,4.8593,4.7058,4.6843,4.9322,4.9402,5.0821,5.619,5.7519,5.844,6.0019,6.1288,6.1696,6.0656,6.1659,6.2569,6.3013,6.2875,6.3056,6.3835,6.3343,6.3392,6.4227,6.4364,6.4376,6.4376,6.452,6.4587,6.467,6.4042,6.3713,6.3639,6.2219,6.1499,6.1416,6.0638,6.0316,6.0349,6.0349,5.9922,5.9227,5.9113,5.8234,5.6866,5.6644,5.6103,5.544,5.5332,5.5288,5.5153,5.4408,5.4121,5.3874,5.227,5.1773,5.166,5.0805,4.9985,4.9367,4.919,4.8645,4.8127,4.8175,4.8813,4.9465,4.9528,5.0171,5.0803,5.0846,5.0929,5.0984,5.1085,5.1071,5.1145,5.1261,5.1293,5.1283,5.1284,5.1353,5.1103,5.0377,4.9529,4.8647,4.7778,4.7558,4.7182,4.6425,4.6927,4.7269,4.73,4.7958,4.8376,4.8431,4.8435,4.8029,4.7209,4.7135,4.6642,4.5695,4.5611,4.552,4.5385,4.4579,4.4149,5.2821,5.3088,5.3198,5.3214,5.3214,5.2882,5.1573,5.0222,4.904,4.8347,4.6147,4.5884,5.097,5.1108,5.2543,5.9006,5.9091,5.924,6.1622,6.1028,6.1213,6.3665,6.3033,6.3193,6.5297,6.4256,0.0,0.0,6.3722,6.3782,6.4142,6.4254,6.4324,6.4324,6.4376,6.4434,6.4453,6.4445,6.4086,6.3349,6.2609,6.186,6.1156,6.0471,6.0121,6.0136,6.0136,0.0,5.987,5.9222,5.8765,5.8346,5.6982,5.6335,5.6106,5.5421,5.5113,5.5019,5.489,5.4845,5.4555,5.2956,5.2418,5.2279,5.1466,5.1123,5.085,5.012,4.9864,4.9804,4.9816,5.0012,5.0221,5.0296,5.0469,5.0639,5.0659,5.0735,5.0851,5.0981,5.1047,5.1101,5.1139,5.1172,5.1257,5.1283,5.1312,5.1298,5.1209,5.0425,4.9529,4.8662,4.7945,4.7421,4.7293,4.6744,4.6707,4.7437,4.7495,4.7831,4.8538,4.8502,4.8399,4.8141,4.8164,4.7642,4.6677,4.663,4.6235,4.5495,4.5332,4.5175,5.251,5.2982,5.3355,5.3355,5.3355,5.2745,5.0354,4.8814,4.7231,4.4832,4.2905,4.2889,4.715,4.8203,5.0172,5.5423,5.5985,5.6781,5.9657,5.9749,6.0675,6.3799,6.4259,6.4593,6.5336,6.4705,6.4059,6.3717,6.3747,6.3888,6.4111,6.4234,6.4294,6.4294,6.4334,6.4346,6.4395,6.4539,6.4398,6.4029,6.3341,6.2593,6.1809,6.1063,6.0509,6.0091,6.0091,6.0091,6.0053,5.9673,5.9299,5.8805,5.8005,5.7146,5.6311,5.5893,5.5387,5.4941,5.4941,5.4912,5.4769,5.4052,5.3494,5.3035,5.2236,5.1639,5.115,5.077,5.0385,5.005,5.0082,5.0132,5.025,5.034,5.0478,5.0558,5.0571,5.0664,5.073,5.0882,5.0952,5.1016,5.1088,5.1127,5.1167,5.122,5.13,5.1292,5.1359,5.1019,5.0422,4.957,4.9098,4.866,4.8223,4.738,4.7042,4.7453,4.7443,4.7596,4.7962,4.8799,4.9019,4.8509,4.8879,4.8631,4.7689,4.7217,4.6787,4.6322,4.5787,4.5505,5.2109,5.2692,5.3259,5.3454,5.3491,5.2604,4.9187,4.7451,4.5413,4.1363,3.9694,3.9865,4.2962,4.4755,4.7167,5.1407,5.262,5.4267,5.7694,5.8774,6.0431,6.3755,6.5159,6.5729,6.5417,6.5082,0.0,6.3978,6.3902,6.3931,6.4111,6.4203,6.4264,6.4294,6.4314,6.4354,6.4395,6.4539,6.4643,6.4679,6.3938,6.3183,6.2424,6.1614,6.0819,6.0045,6.0045,6.0045,6.0045,6.0045,5.9665,5.9095,5.8904,5.7916,5.6497,5.6345,5.5693,5.492,5.492,5.4875,5.4829,5.4898,5.4457,5.3772,5.2997,5.2233,5.1571,5.1275,5.0713,5.0165,5.0029,4.9979,5.0038,5.0218,5.0384,5.0478,5.0532,5.0561,5.0611,5.0735,5.0846,5.0921,5.1026,5.1076,5.1116,5.1156,5.1249,5.1289,5.131,5.1362,5.1128,5.045,5.0194,4.9804,4.9137,4.8268,4.7706,4.7532,4.7499,4.7467,4.7408,4.8706,4.9248,4.8891,4.9466,4.9417,4.8716,4.8019,4.7468,4.7071,4.6261,4.574,5.2156,5.2326,5.2594,5.3306,5.3491,5.2604,4.9187,4.6561,4.3827,4.0356,3.8298,3.8276,4.1954,4.338,4.5801,5.1211,5.2173,5.3822,5.8436,5.9131,6.0864,6.543,6.5434,0.0,6.7184,6.6012,6.5126,6.5052,6.4438,6.41,6.4121,6.4094,6.4183,6.4294,6.4374,6.4385,6.4395,6.4539,6.4606,6.4615,6.3848,6.3061,6.2199,6.146,6.0668,5.9918,5.9918,5.9918,0.0,5.9918,5.988,5.9728,5.9008,5.8128,5.721,5.6489,5.5648,5.492,5.492,5.4913,5.4905,5.4913,5.4799,5.4564,5.3806,5.3518,5.3131,5.1616,5.1123,5.0903,5.012,4.994,5.0025,5.0169,5.0253,5.0356,5.0407,5.0511,5.0609,5.0635,5.076,5.0901,5.091,5.102,5.1092,5.1119,5.1177,5.1223,5.1289,5.1292,5.1286,5.1263,5.057,5.0077,5.0,4.9176,4.8388,4.7638,4.7543,4.7483,4.7501,4.7622,4.8362,4.9761,4.9859,4.9816,4.9678,4.9529,4.866,4.7111,4.6951,4.6382,5.0787,5.1657,5.2557,5.289,5.3335,5.2651,4.8661,4.6133,4.3688,4.0209,3.8105,3.7677,4.0218,4.1389,4.3047,4.6273,4.7222,4.965,5.5661,5.6495,5.8891,6.5438,6.5929,6.6209,0.0,0.0,6.6231,6.5271,6.4433,6.4,6.4111,6.4183,6.4244,6.4294,6.4334,6.4374,6.4395,6.4539,6.4634,6.4652,6.445,6.3614,6.2327,6.2029,6.1174,5.9893,5.9893,5.9893,0.0,5.9893,5.9893,5.9856,5.9552,5.8908,5.8074,5.724,5.6398,5.5602,5.5072,5.4883,5.4852,5.4898,5.486,5.4731,5.4511,5.4049,5.3444,5.2852,5.1995,5.1123,5.0789,5.0377,5.007,5.0169,5.0236,5.0327,5.035,5.0451,5.0553,5.0604,5.0716,5.0829,5.0882,5.0929,5.1023,5.1082,5.1561,5.1761,5.1298,5.1734,5.1929,5.145,5.11,5.0887,5.0895,5.0078,4.9451,4.9175,4.8612,4.805,4.7536,4.7959,4.8503,4.9186,4.9668,5.0137,5.0634,5.0044,4.9406,4.8692,4.7527,4.6762,4.9915,5.098,5.2056,5.2577,5.279,5.1898,4.8165,4.5668,4.3235,4.0152,3.8105,3.7444,3.9191,4.0004,4.1045,4.2976,4.4761,4.7909,5.3713,5.5258,5.8127,6.4387,0.0,6.6063,6.7005,6.7481,6.7041,6.5405,6.4946,6.4678,6.4537,6.4844,6.482,6.4332,6.4324,6.4364,6.4395,6.4539,6.4634,6.467,6.4772,6.4098,6.2723,6.2449,6.1587,6.0194,5.9966,5.9836,0.0,5.9836,5.989,5.9853,5.9877,5.9401,5.8642,5.7998,5.7126,5.6095,5.5489,5.5072,5.4837,5.4898,5.4875,5.4837,5.4898,5.4458,5.3891,5.3723,5.2509,5.1233,5.1233,5.0696,5.0126,5.0182,5.0236,5.0283,5.0283,5.0418,5.0516,5.0553,5.0659,5.0738,5.0846,5.0886,5.0937,5.1033,5.1596,5.18,5.1258,5.1777,5.1978,5.1434,5.138,5.137,5.1397,5.0857,5.039,5.0195,4.956,4.8807,4.7949,4.8176,4.8451,4.8722,4.9276,4.9977,5.0833,5.0393,5.0035,4.976,4.8423,4.7498,5.0027,5.0354,5.0841,5.2476,5.1798,5.0145,4.7928,4.4968,4.2108,3.9953,3.8105,3.7444,3.9191,3.9501,4.0352,4.2899,4.6475,5.0156,5.3639,5.6626,5.9475,6.2215,6.3696,6.4898,6.5822,6.7183,6.7278,6.5626,6.6274,0.0,6.5513,6.6322,6.6022,6.4332,6.4346,6.4395,6.4395,6.4539,6.4596,6.4606,6.4606,6.4199,6.3468,6.2589,6.1757,6.0954,6.016,5.9731,0.0,5.9748,5.9782,5.9799,5.9853,5.9401,5.8718,5.868,5.7619,5.6209,5.6171,5.5602,5.492,5.492,5.492,5.492,5.492,5.4882,5.4723,5.3927,5.2551,5.1315,5.1315,5.0736,5.0194,5.0194,5.0236,5.0283,5.0283,5.0418,5.0505,5.0505,5.0596,5.0715,5.0773,5.085,5.0917,5.1001,5.106,5.1122,5.1083,5.1175,5.123,5.1277,5.1281,5.1327,5.1395,5.1398,5.1051,5.0234,5.0114,4.9718,4.8937,4.8008,4.7902,4.8797,4.8725,4.9146,5.0002,5.0736,5.0652,4.9801,4.9695,4.8666,4.6366,4.7394,4.8284,4.8263,4.8748,4.8516,4.5731,4.3857,4.2266,4.0726,3.8992,3.8331,4.0078,4.039,4.1682,4.5679,4.7327,5.0023,5.5517,5.8068,6.06,6.3816,6.6503,6.8119,0.0,0.0,6.7776,6.7251,6.6961,6.666,6.6397,6.666,6.6285,6.5148,6.5141,6.4898,6.4344,6.4433,6.4444,6.4444,6.4568,6.4162,6.335,6.3086,6.2218,6.0905,6.0702,6.0294,5.9748,5.9841,5.9882,5.989,5.9877,5.9742,5.9439,5.8908,5.8377,5.7733,5.6588,5.6019,5.5678,5.511,5.4883,5.4829,5.4829,5.4829,5.464,5.3808,5.3261,5.2689,5.1574,5.1153,5.0894,5.0334,5.0236,5.0283,5.0283,5.0418,5.0505,5.0505,5.0609,5.0721,5.0803,5.0804,5.0854,5.0994,5.1524,5.1732,5.1155,5.1661,5.1908,5.1351,5.132,5.1317,5.138,5.1384,5.1276,5.1053,5.1015,5.0623,4.9757,4.9427,4.9136,4.8812,4.9306,4.97,5.0012,5.0734,5.0639,4.9734,4.9664,4.8646,4.3866,4.5407,4.6399,4.6203,4.654,4.6429,4.449,4.2748,4.1355,4.09,3.9417,3.8718,4.0465,4.0816,4.1956,4.5475,4.7919,5.0917,5.5275,5.8694,6.184,6.4646,6.7115,0.0,0.0,6.872,6.834,6.8039,6.7814,6.7551,6.7261,6.7551,6.7176,6.6011,6.5674,6.511,6.4294,6.4354,6.4346,6.4346,6.4452,6.4219,6.3757,6.3455,6.2615,6.1414,6.1126,6.0521,0.0,5.9832,5.9874,5.9844,5.9877,5.9893,5.9856,5.9325,5.8946,5.8491,5.7118,5.6413,5.5973,5.514,5.4814,5.4744,5.4713,5.4728,5.4646,5.414,5.3823,5.3456,5.2472,5.2053,5.1649,5.0824,5.0696,5.0668,5.0324,5.0401,5.0505,5.0505,5.0594,5.0702,5.0803,5.0821,5.0859,5.0968,5.1457,5.166,5.1156,5.163,5.1802,5.1326,5.1254,5.129,5.1396,5.1409,5.1385,5.1402,5.1406,5.1171,5.0622,5.0257,4.985,4.9295,4.9442,4.9683,4.9995,5.0763,5.0813,5.0223,4.983,4.9034,0.0,4.3952,4.4859,4.5535,4.4791,4.3833,4.3773,4.1496,0.0,4.0465,3.934,3.8757,4.0542,4.089,4.1503,4.349,4.8591,5.2615,5.3588,5.8828,0.0,0.0,6.6097,0.0,6.8842,6.9116,6.8892,6.8152,6.8779,6.8854,6.8114,6.8779,6.8479,6.6923,6.6049,6.5185,6.4294,6.4294,6.4294,6.4304,6.4304,6.4413,6.4558,6.3757,6.3019,0.0,6.1446,6.0571,5.97,5.9794,5.9791,5.9799,5.9899,5.9893,5.9893,5.9893,5.943,5.8635,5.7793,5.6866,5.5955,5.5086,5.4736,5.4673,5.4546,5.4587,5.4705,5.4767,5.4277,5.3715,5.3801,5.3256,5.2467,5.1674,5.1504,5.1255,5.0461,5.0373,5.0489,5.0495,5.0589,5.0697,5.0794,5.0773,5.0804,5.0882,5.1001,5.109,5.1097,5.1156,5.1181,5.1201,5.1208,5.1248,5.1366,5.1397,5.1381,5.1397,5.1405,5.1406,5.1406,5.0614,5.0168,5.0089,4.9258,4.9218,5.0071,5.0821,5.1166,5.1065,5.0217,4.9729,3.7294,0.0,4.0686,4.0212,4.0367,4.0442,0.0,3.9035,3.8563,3.8757,3.8486,3.8911,4.1274,4.1699,4.3255,4.7881,5.1242,5.3904,5.5686,6.045,0.0,6.6367,6.794,6.8931,6.8997,6.9116,6.9117,6.893,6.908,6.9117,6.893,6.9117,6.8742,6.7739,6.6923,6.5796,6.4294,6.4294,6.4334,6.4366,6.4366,6.4434,6.4596,6.4407,6.3851,6.3086,6.2251,6.1437,6.0626,6.0085,5.9899,5.9861,5.9885,5.9893,5.9893,5.9893,5.9731,5.94,5.8538,5.761,5.663,5.5203,5.4697,5.4681,5.4665,5.4705,5.476,5.472,5.4663,5.4465,5.3881,5.3604,5.3318,5.2444,5.1807,5.1377,5.1249,5.0756,5.0379,5.0418,5.0521,5.0624,5.0654,5.0696,5.0751,5.088,5.0937,5.099,5.109,5.1098,5.1152,5.1175,5.1198,5.1234,5.1329,5.1367,5.1401,5.1391,5.1399,5.1404,5.1406,5.1206,5.0767,5.0098,4.9868,5.0174,5.0986,5.1142,5.1167,5.1098,5.0819,5.0325,3.4426,3.7042,3.9474,3.9396,4.0048,4.0503,4.0036,3.934,3.8914,3.9301,3.9069,3.9456,4.1583,4.2667,4.4436,4.8218,5.1989,5.5721,5.9424,6.2809,6.5441,6.6919,6.8631,6.9504,0.0,6.9116,6.9192,6.9192,6.9192,6.9192,6.9192,6.9192,6.8838,6.8113,6.7297,6.6244,6.4966,6.4552,6.4403,6.4473,6.4473,6.4568,6.4633,6.4633,6.4236,6.3441,6.2624,6.1818,6.0993,6.021,5.9893,5.9893,5.9893,5.9869,5.9866,5.9866,5.9807,5.958,5.8799,5.764,5.6458,5.5557,5.4983,5.4689,5.4689,5.4736,5.4783,5.4744,5.4799,5.4754,5.4375,5.4267,5.4076,5.3241,5.2759,5.2415,5.2075,5.1439,5.0912,5.097,5.0774,5.0599,5.062,5.0668,5.0724,5.0842,5.0862,5.0917,5.1001,5.1055,5.1118,5.1142,5.1161,5.1203,5.1275,5.1339,5.1373,5.1415,5.1389,5.1399,5.1404,5.1406,5.1009,5.0134,5.0508,5.0707,5.0719,5.1055,5.1206,5.108,5.1053,5.0763,3.3426,3.6685,3.9798,4.0304,4.1138,4.1816,4.1816,4.0736,3.9926,4.0661,4.0313,4.0468,4.2434,4.4094,4.5824,4.7882,5.2538,5.78,6.3144,6.4954,6.6048,6.691,6.8573,0.0,6.9023,6.9116,6.9192,6.9192,6.9192,6.9192,6.9192,6.9192,6.8946,6.8395,6.7406,6.6598,6.5923,6.4924,6.4473,6.4624,6.4624,6.468,6.4734,6.4734,6.4392,6.3743,6.2947,0.0,6.1258,6.0424,6.0007,5.9893,5.9877,5.9857,5.9782,5.9782,5.9723,5.9511,5.8728,5.7543,5.6317,5.6026,5.5452,5.4893,5.4758,5.4767,5.4814,5.4814,5.4814,5.4829,5.4898,5.492,5.4731,5.4063,5.3855,5.3622,5.295,5.2253,5.1773,5.1844,5.1256,5.0776,5.0788,5.0726,5.071,5.0773,5.0841,5.089,5.0906,5.1016,5.1085,5.111,5.1127,5.1177,5.1265,5.1279,5.1348,5.1392,5.1417,5.1392,5.14,5.1405,5.1052,5.0323,5.1023,5.1001,5.0196,5.0928,5.1234,5.1136,5.1091,5.1075,3.5399,3.8452,4.0296,3.8923,3.9807,4.0968,4.0968,4.0774,4.0623,4.0774,4.1238,4.2589,4.5726,4.7154,4.8987,5.2602,5.6108,5.9741,6.3672,0.0,6.6003,6.6602,0.0,6.9078,6.9016,6.9116,6.9192,6.9192,6.9192,6.9192,6.9192,6.9192,6.9209,6.9234,6.7717,6.6932,6.6966,6.537,6.4624,6.4689,6.4689,6.4743,6.4862,6.4862,6.4795,6.4652,0.0,6.2947,6.2113,6.125,6.05,5.9885,5.9841,5.9799,5.9782,5.9782,5.9723,5.9502,5.8698,5.8253,5.78,5.6423,5.5909,5.5661,5.5049,5.489,5.4898,5.4898,5.4898,5.4905,5.4913,5.492,5.4897,5.4812,5.4271,5.3788,5.3803,5.3124,5.2545,5.262,5.2037,5.1541,5.1513,5.107,5.0712,5.0807,5.0791,5.088,5.0983,5.1034,5.1114,5.1082,5.1156,5.1203,5.122,5.1277,5.1317,5.1417,5.1404,5.1391,5.1406,5.1406,5.1325,5.1181,5.1336,5.1318,5.1114,5.1234,5.1275,5.1193,5.1124,5.1101,3.413,3.7115,3.9527,4.0026,4.2539,4.4914,4.4914,4.4527,4.4333,4.4797,4.5181,4.6071,4.8121,4.9808,5.2309,5.6784,5.9046,6.1096,6.3538,6.5039,6.6106,0.0,0.0,6.9105,6.9105,6.916,6.9192,6.9192,6.9192,6.9192,6.9192,6.9192,6.9246,6.9384,6.7844,6.7086,6.7193,6.5586,6.4781,6.4826,6.4826,6.4844,6.4888,6.4888,6.4888,6.4842,0.0,6.3402,6.2938,6.1616,6.0833,6.0446,5.9899,5.9668,5.9668,5.9668,5.9714,5.9647,5.9269,5.8896,5.8454,5.7699,5.6836,5.6049,5.5701,5.5261,5.4928,5.4934,5.4912,5.4928,5.4934,5.4949,5.4963,5.5042,5.4759,5.4521,5.463,5.4027,5.3467,5.3535,5.2958,5.2313,5.1847,5.1557,5.1265,5.0806,5.0821,5.0884,5.0921,5.1005,5.1062,5.1094,5.1139,5.1183,5.1266,5.1273,5.1312,5.1386,5.1416,5.1395,5.1404,5.1406,5.1403,5.139,5.1419,5.1361,5.1364,5.1339,5.1029,5.0549,5.0986,5.061,3.3931,3.6662,3.9454,4.2318,4.5684,4.8373,4.8534,4.8217,4.8136,4.8981,4.9207,4.9617,5.0888,5.32,5.6228,6.0134,6.15,6.2444,6.3552,6.5133,6.6341,6.6739,6.8227,6.9192,6.9192,6.9192,6.9192,6.9192,6.9192,6.9192,6.9192,6.9192,6.9246,6.9384,6.8063,6.7285,6.7165,6.5821,6.5089,6.4888,6.4888,6.4888,6.4888,6.4888,6.4888,6.485,6.4197,6.3772,6.348,6.2124,6.1324,6.092,6.0208,5.9813,5.9642,5.9642,5.974,5.9816,5.9816,5.9449,5.8946,5.8756,5.7695,5.6444,5.627,5.5595,5.4927,5.5007,5.4985,5.4949,5.5014,5.5028,5.505,5.5127,5.5109,5.513,5.5217,5.4817,5.4415,5.4482,5.3908,5.3184,5.2525,5.2348,5.2039,5.1175,5.1125,5.1149,5.096,5.0977,5.1037,5.1074,5.1142,5.1188,5.13,5.1292,5.1366,5.14,5.158,5.1592,5.1401,5.1601,5.1599,5.1397,5.1384,5.1402,5.1414,5.1315,5.0965,5.032,5.0905,5.0339,3.771,3.9744,4.1482,4.5599,4.7362,4.8292,4.8915,4.9641,5.0402,5.1201,5.1503,5.2392,5.4813,5.8316,6.1182,6.232,6.3396,6.4138,6.4222,6.5687,6.6767,6.6821,6.8227,6.9192,6.9192,6.9192,6.9192,6.9192,6.9192,6.9192,6.9192,6.9192,6.9246,6.9384,6.8518,6.7741,6.7096,6.6324,6.5594,6.4888,6.4888,6.4888,6.4888,6.4888,6.4888,6.4888,6.485,6.4305,6.3515,6.3354,6.2356,6.0916,6.0832,6.0385,5.9774,5.9774,5.9841,5.9885,5.9885,5.9847,5.9704,5.8946,5.8074,5.7172,5.6489,5.5676,5.5007,5.5085,5.5106,5.5099,5.5106,5.5106,5.5127,5.5163,5.5183,5.5217,5.5345,5.5332,5.5318,5.5384,5.4809,5.4274,5.4236,5.3711,5.3004,5.2201,5.2101,5.1862,5.1157,5.1073,5.1074,5.1083,5.1198,5.1302,5.1305,5.135,5.1371,5.1413,5.2158,5.2251,5.1445,5.2187,5.2225,5.143,5.138,5.1402,5.1414,5.134,5.1258,5.1091,5.1114,5.0587,3.5503,3.8483,4.1373,4.3833,4.7818,5.1214,5.1502,5.222,5.3201,5.4503,5.4823,5.5477,5.7432,5.9835,6.1726,6.2335,6.3518,6.4364,6.4304,6.5721,6.681,6.681,6.8227,6.9192,6.9192,6.9192,6.9192,6.9192,6.9192,6.9192,6.9192,6.9192,6.9214,6.9257,6.8504,6.7728,6.6977,6.6247,6.5493,6.4708,6.4826,6.4888,6.4888,6.4888,6.4853,6.4761,6.4761,6.4556,6.4162,6.3633,6.3048,6.2379,6.1338,6.0475,5.9828,5.9849,5.9861,5.9893,5.9893,5.9893,5.9864,5.957,5.8941,5.8122,5.7331,5.6516,5.5777,5.532,5.515,5.515,5.515,5.515,5.5177,5.5288,5.5314,5.5339,5.5425,5.5479,5.5526,5.5626,5.5434,5.5117,5.4612,5.4351,5.3924,5.3149,5.3046,5.2796,5.201,5.1925,5.173,5.1278,5.1261,5.131,5.1352,5.1407,5.1617,5.2178,5.2533,5.2537,5.2226,5.2536,5.2529,5.2209,5.1687,5.1395,5.1414,5.1314,5.1002,5.0474,5.0939,5.0372,3.5219,3.8319,4.1703,4.3987,4.8413,5.2494,5.3535,5.4173,5.4994,5.6626,5.7417,5.8145,5.9351,6.0832,6.201,6.2352,6.3538,6.4376,6.4344,6.5742,6.681,6.681,6.8227,6.9192,6.9192,6.9192,6.9192,6.9192,6.9192,6.9192,6.9192,6.9192,6.9192,6.9192,6.8704,6.8069,6.7242,6.6515,6.5745,6.4963,6.4831,6.4799,6.4799,6.4799,6.4763,6.467,6.467,6.4624,6.4558,6.3992,6.3483,6.2868,6.1533,6.0518,5.9841,5.9869,5.9893,5.9893,5.9893,5.991,5.9942,5.9998,5.9467,5.8737,5.821,5.747,5.6654,5.5852,5.5663,5.56,5.5332,5.5249,5.5282,5.5389,5.5413,5.5431,5.5541,5.556,5.5665,5.5724,5.5792,5.5702,5.5137,5.5092,5.488,5.4057,5.4008,5.376,5.2959,5.2827,5.256,5.1771,5.1736,5.1772,5.1802,5.2045,5.2486,5.3084,5.3359,5.3398,5.3124,5.3352,5.3264,5.2712,5.2107,5.1659,5.1414,5.1348,5.0996,5.0396,5.0903,5.0375,3.7941,4.0014,4.2919,4.7144,4.937,5.1376,5.4562,5.513,5.5493,5.7165,5.8934,6.0251,6.0463,6.1633,6.2603,6.2603,6.3619,6.4395,6.4395,6.5783,6.681,6.681,6.8227,6.9192,6.9192,6.9192,6.9192,6.9192,6.9192,6.9192,6.9192,6.9192,6.9192,6.9192,6.9192,6.8817,6.8002,6.728,6.6503,6.5685,6.4963,6.4596,6.4596,6.4596,6.4596,6.4596,6.4596,6.4596,6.4596,6.4596,6.3671,6.2135,6.1332,6.0568,5.9893,5.9893,5.9893,5.9893,5.9893,5.995,6.0013,6.0013,5.9498,5.8934,5.8968,5.8425,5.7645,5.6841,5.6646,5.6505,5.5657,5.5421,5.5401,5.5505,5.5485,5.5502,5.5604,5.5665,5.5724,5.5782,5.5914,5.5993,5.5999,5.6046,5.5835,5.5017,5.4984,5.4747,5.3924,5.3828,5.3526,5.2712,5.2668,5.2729,5.2703,5.3501,5.4018,5.4022,5.4804,5.4918,5.4055,5.4836,5.4479,5.2743,5.2719,5.2273,5.1412,5.132,5.1275,5.1206,5.1111,5.0622,3.8063,4.0844,4.406,4.5867,4.9742,5.3232,5.3491,5.4371,5.559,5.7187,5.8934,6.0208,6.0272,6.1575,6.2665,6.2611,6.3743,6.4568,6.4415,6.5843,6.6845,6.6821,6.8227,6.9192,6.9192,6.9192,6.9192,6.9192,6.9192,6.9192,6.9192,6.9192,6.9192,6.9192,6.9192,6.8817,6.8002,6.7207,6.6401,6.5537,6.474,6.4462,6.4596,6.4596,6.4558,6.4444,6.4568,6.4558,6.4453,6.4605,6.4073,6.3093,6.2298,6.149,6.0689,6.0121,5.9893,5.9902,5.9958,5.9998,6.0037,6.0182,6.0044,5.9776,5.9237,5.8915,5.8554,5.7786,5.7175,5.6645,5.6506,5.5986,5.5564,5.5587,5.5587,5.5615,5.5719,5.5756,5.5792,5.5919,5.5984,5.6003,5.605,5.6118,5.6104,5.5919,5.6424,5.6747,5.6583,5.6033,5.5365,5.4503,5.4436,5.4216,5.3648,5.3855,5.4252,5.4881,5.5156,5.5192,5.4913,5.5144,5.5017,5.4487,5.3891,5.3169,5.2233,5.2216,5.1857,5.1147,5.111,5.094,3.9847,4.2702,4.5812,4.7587,5.0663,5.3386,5.3753,5.5057,5.6397,5.7308,5.8897,6.0084,6.0084,6.1438,6.2555,6.2545,6.3743,6.467,6.4539,6.5621,6.652,6.6808,6.7948,6.8854,6.9192,6.9192,6.9192,6.9192,6.9192,6.9192,6.9192,6.9192,6.9192,6.9192,6.9192,6.8967,6.8479,6.7374,6.6548,6.6011,6.4858,6.4364,6.4481,6.4481,6.4443,6.4384,6.4539,6.4587,6.4539,6.4698,6.4305,6.3553,6.306,6.2159,6.1031,6.0576,6.0183,5.995,5.9998,6.0052,6.0122,6.0257,6.0308,6.023,5.9745,5.9626,5.9501,5.8712,5.8151,5.7638,5.7063,5.6538,5.611,5.5764,5.5687,5.5714,5.5802,5.5875,5.5914,5.5989,5.6003,5.6054,5.6118,5.6181,5.6233,5.6307,5.7064,5.7666,5.7719,5.7324,5.6802,5.6273,5.6241,5.5902,5.5102,5.5341,5.562,5.582,5.582,5.5815,5.5764,5.5799,5.5593,5.5222,5.4701,5.4013,5.311,5.3093,5.258,5.1644,5.1641,5.1396,4.2436,4.4938,4.767,5.0846,5.171,5.2437,5.4925,5.6574,5.7588,5.7529,5.8774,5.9893,5.9893,6.1288,6.2416,6.2416,6.3719,6.4725,6.4716,6.5275,6.5978,6.6711,6.7437,6.8238,6.9015,6.908,6.9117,6.9192,6.9192,6.9192,6.9192,6.9203,6.9203,6.9203,6.9203,6.9203,6.9203,6.7599,6.681,6.6773,6.5083,6.4294,6.4294,6.4294,6.4304,6.4334,6.453,6.4633,6.4734,6.4853,6.4425,6.3705,6.3629,6.269,6.1296,6.1144,6.0663,6.0089,6.0021,6.0122,6.0286,6.0294,6.0352,6.0415,6.0422,6.0432,6.0333,5.9542,5.937,5.904,5.7559,5.7132,5.6904,5.611,5.5879,5.5812,5.5895,5.5947,5.5998,5.6003,5.6054,5.6114,5.6192,5.6275,5.631,5.6427,5.7164,5.7803,5.8022,5.8053,5.8032,5.8033,5.8046,5.7709,5.6904,5.7531,5.7654,5.6873,5.6755,5.667,5.6607,5.6527,5.6131,5.5334,5.5303,5.4882,5.4,5.3955,5.3447,5.2594,5.2534,5.2097,4.1782,4.4427,4.7303,4.9286,5.1173,5.3223,5.5753,5.7007,5.761,5.7588,5.8813,5.9893,5.9893,6.1288,6.2416,6.2416,6.3763,6.4835,6.4725,6.5426,6.5965,6.6029,6.6684,6.7451,6.8278,6.828,6.8517,6.9155,6.9192,6.9192,6.9192,6.9289,6.9342,6.9342,6.9342,6.9342,6.9342,6.7652,6.681,6.6773,6.5083,6.4294,6.4294,6.4294,6.4384,6.4539,6.4624,6.4734,6.4862,6.488,6.4775,6.4538,6.3856,6.3364,6.2917,6.1591,6.1088,6.0933,6.0311,6.0167,6.0301,6.0366,6.0401,6.0429,6.0439,6.0504,6.0468,6.0393,5.9899,5.9326,5.9078,5.8077,5.7074,5.6937,5.6382,5.59,5.5947,5.5998,5.6008,5.6054,5.6126,5.6188,5.6275,5.6272,5.6556,5.7291,5.7602,5.8299,5.9658,5.9823,5.9831,5.9841,5.9853,5.9471,5.8655,5.8746,5.875,5.8554,5.7923,5.7558,5.7505,5.6879,5.6394,5.6234,5.6172,5.5712,5.4847,5.4775,5.4302,5.3427,5.3381,5.3226,4.1886,4.4893,4.8048,5.0411,5.1905,5.346,5.6021,5.7156,5.7744,5.815,5.9132,5.9893,5.9893,6.1288,6.2416,6.2416,6.3818,6.4871,6.4826,6.5113,6.552,6.5833,6.6189,6.6686,6.7525,6.7926,6.8309,6.8761,6.9175,6.9401,6.9401,6.9464,6.9505,6.9505,6.9505,6.9505,6.9505,6.7786,6.6927,6.6927,6.5233,6.4443,6.4443,6.4384,6.4452,6.4606,6.467,6.4761,6.4888,6.4888,6.4888,6.4842,6.4387,6.397,6.3486,6.2703,6.1942,6.13,6.089,6.0592,6.0359,6.0401,6.0398,6.0432,6.0473,6.0533,6.0604,6.0673,6.0408,5.9988,5.9689,5.8962,5.8156,5.7395,5.6579,5.5957,5.6029,5.6063,5.6062,5.6126,5.6188,5.6275,5.6272,5.6319,5.6526,5.7057,5.7625,5.831,5.9235,6.0339,6.1014,6.1028,6.1032,6.0687,5.9799,5.9726,5.9531,5.9136,5.8655,5.8247,5.7838,5.7361,5.6912,5.6443,5.6433,5.621,5.5727,5.5672,5.5213,5.4307,5.4255,5.4016,4.1767,4.5471,4.9125,5.222,5.29,5.3499,5.6212,5.7298,5.7984,5.8896,5.9527,5.991,5.9893,6.1288,6.2416,6.2416,6.3818,6.4888,6.4888,6.4779,6.4999,6.5709,6.5691,6.5936,6.6842,6.7511,6.7917,6.8067,6.8908,6.9398,6.9398,6.9532,6.9617,6.9617,6.9617,6.9617,6.9617,6.7926,6.7077,6.7086,6.5388,6.4596,6.4596,6.4482,6.4501,6.4634,6.4698,6.4817,6.4888,6.4888,6.4888,6.4888,6.4888,6.4463,6.3827,6.3816,6.2949,6.1819,6.1568,6.1115,6.0568,6.0453,6.0464,6.0486,6.0493,6.0591,6.0697,6.071,6.0752,6.0662,6.0019,5.977,5.9364,5.7993,5.6925,5.6218,5.614,5.6129,5.6122,5.6195,5.6288,5.6329,5.6317,5.6368,5.6455,5.649,5.7287,5.7928,5.7909,5.9876,6.1374,6.1663,6.1702,6.1397,6.0703,6.0625,6.0309,5.9587,5.9419,5.901,5.8278,5.8106,5.7578,5.6656,5.6539,5.6478,5.6389,5.6383,5.5972,5.5196,5.5168,5.4728,4.0033,4.4892,4.9716,5.2346,5.29,5.369,5.6969,5.7718,5.8137,5.9619,5.9946,5.9974,5.991,6.1288,6.2416,6.2416,6.3818,6.4888,6.4888,6.4871,6.4909,6.5013,6.4942,6.518,6.6078,6.6144,6.6435,6.719,6.803,6.8482,6.8482,6.9252,6.9689,6.9689,6.9689,6.9689,6.9689,6.7966,6.7077,6.7086,6.5388,6.4596,6.4606,6.4643,6.4679,6.4698,6.4826,6.4871,6.4888,6.4888,6.4888,6.4888,6.4888,6.485,6.467,6.4044,6.3718,6.338,6.1987,6.1459,6.1325,6.0644,6.0464,6.0493,6.0552,6.0629,6.0703,6.0757,6.0816,6.0872,6.0811,6.0295,5.9732,5.9591,5.8355,5.7026,5.6268,5.6133,5.6195,5.6278,5.6319,5.6376,5.6381,5.6457,5.649,5.6501,5.6641,5.674,5.6796,5.836,6.0047,6.1545,6.171,6.1638,6.1523,6.1521,6.1471,6.1371,6.0656,6.0166,5.9972,5.9227,5.8427,5.7527,5.6785,5.642,5.6389,5.6325,5.62,5.6057,5.6015,5.5932,4.1295,4.5589,4.9262,5.2264,5.29,5.369,5.7122,5.7866,5.8262,5.9779,6.0068,6.0007,5.9918,6.1288,6.2416,6.2416,6.3818,6.4888,6.4888,6.4888,6.4888,6.4888,6.4853,6.4978,6.5347,6.5727,6.6115,6.6494,6.7335,6.7789,6.7789,6.8632,6.9067,6.9067,6.9559,6.9796,6.9796,6.8575,6.7714,6.726,6.6011,6.5444,6.5444,6.4997,6.4761,6.4716,6.4844,6.4888,6.4888,6.4888,6.4888,6.4888,6.4888,6.4888,6.4868,6.4673,6.4291,6.3799,6.3223,6.2373,6.1562,6.1221,6.0862,6.0552,6.0623,6.0691,6.0757,6.0854,6.0888,6.0933,6.098,6.0755,6.0321,5.975,5.9237,5.8362,5.6556,5.617,5.6223,5.6335,5.6394,5.6395,5.6448,5.6468,5.6488,5.6512,5.6509,5.6522,5.6602,5.892,6.0845,6.1637,6.1717,6.1719,6.1716,6.1709,6.1696,6.171,6.1304,6.0856,6.0317,5.9915,5.9315,5.8437,5.7566,5.6884,5.6389,5.6319,5.6281,5.6268,5.6209,5.6157,4.1212,4.4748,4.7626,5.1205,5.2296,5.3459,5.7098,5.7913,5.8349,5.9846,6.0106,6.0053,5.995,6.1258,6.2416,6.2416,6.3818,6.4888,6.4888,6.4888,6.4888,6.4888,6.4888,6.4888,6.4888,6.5448,6.5798,6.5798,6.6594,6.7087,6.7087,6.7845,6.83,6.83,6.8944,6.9247,6.9247,6.8603,6.7996,6.739,6.6746,6.6329,6.6101,6.5495,6.5042,6.4752,6.4853,6.4888,6.4888,6.4888,6.4888,6.4888,6.4888,6.4897,6.4941,6.5111,6.4797,6.4257,6.4222,6.3358,6.2257,6.2098,6.1515,6.0904,6.1018,6.0926,6.0798,6.0894,6.0922,6.0955,6.0977,6.1022,6.0858,6.0039,5.9925,5.9382,5.7056,5.6382,5.6268,5.6386,5.6427,5.6453,5.6505,5.6519,5.6494,5.6507,5.6503,5.6524,5.6577,5.9205,6.1088,6.125,6.1523,6.1717,6.171,6.17,6.1684,6.1694,6.1638,6.1305,6.0659,6.0642,6.0202,5.9338,5.8691,5.7811,5.67,5.6436,5.6278,5.6265,5.6209,5.6153,3.7456,4.0826,4.4342,4.8546,5.0661,5.2843,5.7039,5.794,5.8363,5.9958,6.0182,6.0068,6.0021,6.1299,6.2416,6.2416,6.3818,6.4888,6.4888,6.4888,6.4888,6.4888,6.4888,6.4888,6.4888,6.4926,6.4955,6.4955,6.5722,6.6168,6.6168,6.6973,6.7466,6.7466,6.7504,6.7542,6.7542,6.7504,6.7428,6.739,6.7352,6.6897,6.6092,6.6054,6.56,6.488,6.488,6.4888,6.4888,6.4888,6.4888,6.4888,6.4888,6.4941,6.4998,6.5136,6.5218,6.5137,6.4436,6.4122,6.3945,6.3176,6.2403,6.1748,6.1895,6.1387,6.0798,6.0894,6.0949,6.1003,6.0987,6.1075,6.1177,6.1104,6.0591,5.9625,5.791,5.6942,5.6391,5.6383,5.6464,5.6486,5.6509,5.651,5.6486,5.6517,5.6569,5.6618,5.6601,5.8121,5.9448,6.0039,6.1053,6.1714,6.1709,6.1694,6.167,6.16,6.1617,6.1593,6.1532,6.1529,6.1128,6.0243,6.0141,5.9232,5.7556,5.6708,5.6253,5.6226,5.6183,5.6133,3.6024,3.9322,4.2859,4.5328,4.793,5.0856,5.4543,5.6584,5.8206,5.9936,6.0264,6.0182,6.0068,6.134,6.2416,6.2416,6.3818,6.4888,6.4888,6.4888,6.4888,6.4888,6.4888,6.4888,6.4888,6.4888,6.4888,6.4888,6.5183,6.5334,6.5334,6.6139,6.6556,6.6556,6.7125,6.7655,6.8186,6.8186,6.8451,6.8991,6.8451,6.7996,6.7655,6.6594,6.5941,6.5637,6.5107,6.4888,6.4888,6.4888,6.4888,6.4888,6.4888,6.4941,6.5006,6.5136,6.5256,6.5259,6.5039,6.4648,6.4202,6.3974,6.3359,6.274,6.2803,6.2678,6.2358,6.1869,6.1774,6.1721,6.1191,6.1137,6.1199,6.1259,6.0568,5.9782,5.9356,5.8184,5.7242,5.7227,5.6827,5.6496,5.6503,5.6519,5.6493,5.6577,5.658,5.6599,5.6601,5.8398,5.9765,5.9999,6.1011,6.1707,6.1694,6.1716,6.1654,6.1617,6.1606,6.1593,6.161,6.1607,6.1439,6.1061,6.0492,5.961,5.8417,5.7512,5.7024,5.6959,5.6385,5.6105,3.3995,3.6971,4.046,4.347,4.5533,4.8312,5.4052,5.5839,5.7082,5.9774,6.0308,6.0272,6.0182,6.1201,6.2159,6.2391,6.3579,6.4576,6.485,6.4888,6.4888,6.4888,6.4888,6.4897,6.4932,6.4932,6.495,6.5022,6.4984,6.4984,6.4984,6.5516,6.5764,6.5729,6.6298,6.6971,6.7769,6.8034,6.8603,6.9437,6.9171,6.8868,6.8565,6.7466,6.6632,6.6063,6.5524,6.5154,6.4888,6.4888,6.4888,6.4888,6.4888,6.4967,6.5086,6.5191,6.528,6.5337,6.5398,6.5084,6.4705,6.4782,6.4275,6.3655,6.3718,6.3593,6.3272,6.2789,6.2694,6.2601,6.2133,6.1849,6.1608,6.138,6.0832,6.0418,6.0597,5.9304,5.8048,5.7797,5.7317,5.6828,5.656,5.6532,5.6546,5.6603,5.7066,5.7226,5.668,5.8164,5.9414,5.9684,6.0655,6.1388,6.1681,6.1663,6.1639,6.1603,6.1595,6.1584,6.1607,6.1561,6.1544,6.1515,6.0903,6.0319,5.9685,5.8514,5.7892,5.7812,5.7222,5.6906,0.0,0.0,0.0,4.2892,4.3487,4.527,5.5445,5.5702,5.4995,5.9356,6.0275,6.0301,6.0301,6.0883,6.1636,6.2363,6.3099,6.3865,6.4737,6.485,6.4888,6.4897,6.4897,6.4932,6.4989,6.4998,6.5069,6.5207,6.5207,6.5207,6.5207,6.5207,6.5128,6.4998,6.4998,6.5364,6.611,6.6944,6.7769,6.8612,6.9446,6.9446,6.8641,6.8603,6.7693,6.613,6.6101,6.5637,6.4888,6.4888,6.4888,6.4888,6.4888,6.5001,6.5207,6.5207,6.5274,6.5413,6.5413,6.5435,6.5516,6.558,6.5112,6.4532,6.4609,6.4099,6.3509,6.3527,6.3587,6.366,6.3762,6.3236,6.2432,6.1651,6.1499,6.1531,6.1526,6.0229,5.8852,5.8015,5.7853,5.7519,5.6644,5.6549,5.6605,5.6605,5.7968,5.8432,5.6797,5.7344,5.8203,5.9099,5.991,6.0755,6.1602,6.1654,6.1586,6.1601,6.1582,6.1607,6.1607,6.1544,6.1515,6.1481,6.1411,6.1362,6.1283,5.9653,5.8816,5.8734,5.8655,5.8613,3.2181,0.0,0.0,0.0,0.0,0.0,4.6719,5.0424,5.3604,5.6197,5.8749,6.0531,6.0531,6.063,6.0988,6.1807,6.2475,6.3177,6.4051,6.4166,6.4402,6.5057,6.5133,6.5103,6.5128,6.5128,6.5144,0.0,6.5207,6.5207,6.5207,6.5207,6.5199,6.5136,6.5128,6.553,6.6294,6.65,6.7309,6.8751,6.8905,6.9171,6.9522,6.8906,6.8034,6.7011,6.6367,6.5637,6.4888,6.4888,6.4888,6.4888,6.4888,6.5001,6.5207,6.5207,6.5274,6.5413,6.5413,6.5465,6.5573,6.5594,6.5575,6.5538,6.5607,6.5475,6.5186,6.4668,6.4577,6.4488,6.3933,6.3688,6.3519,6.3326,6.2863,6.2432,6.2445,6.1632,6.0646,5.9831,5.8642,5.7526,5.6711,5.66,5.6605,5.6605,5.6972,5.7103,5.664,5.6796,5.7379,5.8427,5.9665,6.0741,6.1574,6.1627,6.1601,6.1619,6.1612,6.1561,6.1544,6.1497,6.1468,6.1411,6.1402,6.1362,6.1283,6.0209,5.963,5.9542,5.8919,5.8583,3.4425,3.6281,3.8742,3.8697,0.0,0.0,4.5404,4.8544,5.1332,5.46,5.729,5.9236,5.9926,5.9741,5.9868,6.1056,6.1552,6.2169,6.3283,6.3435,6.3602,6.4105,6.4119,6.4149,6.4189,6.4494,6.47,6.4778,6.5083,6.5274,6.5274,6.5274,6.5258,6.5256,6.5256,6.5468,6.5922,6.6206,6.7016,6.8356,6.8561,6.9123,6.992,6.9389,6.8679,6.7845,6.7011,6.6177,6.5372,6.504,6.4888,6.4888,6.4888,6.5001,6.5207,6.5207,6.5274,6.5413,6.5413,6.5472,6.5601,6.5601,6.5742,6.5833,6.5554,6.5498,6.5324,6.4579,6.4705,6.4913,6.4464,6.4423,6.4418,6.4131,6.3663,6.335,6.3366,6.3015,6.2221,6.0708,5.9592,5.8394,5.6877,5.6605,5.6605,5.6605,5.6581,5.7105,5.855,5.7495,5.6868,5.7524,5.8953,6.018,6.1012,6.1421,6.1593,6.161,6.1607,6.1559,6.1495,6.1518,6.149,6.1399,6.1366,6.1313,6.1267,6.0763,6.0493,6.0385,5.9546,5.9304,3.765,3.8771,0.0,0.0,4.0784,0.0,4.7507,4.8361,4.8889,5.3105,5.5109,5.6534,5.8004,5.7774,5.7813,5.9313,5.9831,6.0648,6.2431,6.2649,6.2643,6.2719,6.2696,6.2689,6.281,6.3451,6.394,6.4053,6.4733,6.5146,6.5261,6.5261,6.5268,6.5305,6.5298,6.5266,6.5202,6.5939,6.6721,6.7559,6.8309,6.9091,6.9889,6.992,6.9455,6.8583,6.7749,6.6906,6.6025,6.5229,6.4888,6.4888,6.4888,6.5001,6.5207,6.5207,6.5274,6.5413,6.5413,6.5472,6.5601,6.5601,6.5742,6.5756,6.5054,6.4804,6.4635,6.385,6.4329,6.5097,6.5097,6.5274,6.5252,6.4552,6.4312,6.4273,6.4326,6.4273,6.3512,6.127,6.0737,5.9963,5.7738,5.6956,5.6605,5.6605,5.6595,5.7693,6.0755,5.8657,5.6866,5.6895,5.8318,5.9581,6.046,6.1181,6.1591,6.161,6.1607,6.1556,6.1489,6.1498,6.1466,6.1392,6.1317,6.1275,6.1186,6.1268,6.1204,6.1079,6.0383,6.0422,4.0935,4.2466,4.4778,4.2551,0.0,0.0,4.1686,4.5194,4.835,4.6231,4.8909,5.1676,5.1783,5.2234,5.264,5.2989,5.4944,5.7723,6.1465,6.1989,6.2243,6.2926,6.2995,6.2989,6.3048,6.3114,6.32,6.3214,6.3348,6.3694,6.4389,6.4428,6.4726,6.5352,6.5391,6.5383,6.5368,6.545,6.5912,6.6666,6.7388,6.818,6.9053,6.9681,6.952,6.8722,6.7849,6.6969,6.6025,6.5229,6.4888,6.4888,6.4888,6.5001,6.5207,6.5207,6.5274,6.5413,6.5413,6.5472,6.5601,6.5601,6.5742,6.5884,6.5762,6.5301,6.4641,6.3902,6.4362,6.5097,6.5097,6.5701,6.6305,6.6147,6.5633,6.5169,6.524,6.471,6.4061,6.3625,6.2968,6.2384,6.211,5.9026,5.6605,5.6605,5.6595,5.6836,5.7498,5.819,5.8596,5.861,5.9536,6.0499,6.1298,6.1511,6.1612,6.1607,6.1607,6.1585,6.1495,6.1487,6.1453,6.1388,6.1314,6.125,6.1204,6.1164,6.1137,6.1118,6.0925,6.0963,4.3952,4.492,4.6909,4.5797,0.0,0.0,0.0,4.4949,4.65,4.6613,4.7304,4.8608,5.0837,5.0291,4.9896,5.1033,5.3563,5.6151,5.831,5.9407,6.018,6.0596,6.1,6.1185,6.1185,6.1932,6.255,6.2975,6.2935,6.3075,6.3541,6.3969,6.4389,6.481,6.5184,6.5413,6.5413,6.5368,6.5725,6.6475,6.7182,6.8014,6.8859,6.965,6.9802,6.9429,6.8593,6.7692,6.6812,6.5977,6.5407,6.5019,6.4924,6.5001,6.5207,6.5207,6.5274,6.5413,6.5413,6.5472,6.5601,6.5601,6.5742,6.5839,6.5469,6.4497,6.3487,6.3149,6.3394,6.4011,6.4864,6.5522,6.6056,6.65,6.6307,6.6083,6.6145,6.5806,6.5507,6.5542,6.5196,6.4531,6.3399,6.1681,5.9851,5.8104,5.7145,5.7226,5.8906,5.9869,6.0382,6.0352,6.0386,6.0533,6.0902,6.1348,6.1607,6.1607,6.1607,6.1583,6.1484,6.1481,6.1434,6.1361,6.1334,6.1242,6.1164,6.1132,6.1118,6.1118,6.1118,6.1118,0.0,0.0,0.0,0.0,0.0,4.5916,0.0,0.0,0.0,4.7531,4.6338,4.5997,0.0,0.0,4.7278,4.9085,0.0,0.0,0.0,5.5268,0.0,5.8099,5.8738,5.9126,5.9114,6.0438,6.1587,6.2209,6.2362,6.251,6.2655,6.3319,6.3854,6.4198,6.4848,6.5222,6.5413,6.5413,6.5673,6.6265,6.7165,6.7952,6.8674,6.9601,7.0114,7.0147,6.9289,6.8566,6.7872,6.6996,6.6159,6.5381,6.5077,6.5044,6.5232,6.5232,6.529,6.5413,6.5413,6.5472,6.5601,6.5601,6.5755,6.5775,6.4944,6.3693,6.2519,6.2414,6.2464,6.2805,6.4244,6.4838,6.5297,6.6157,6.6396,6.6491,6.6734,6.6783,6.6796,6.6791,6.6796,6.6133,6.4101,6.4337,6.372,6.0575,5.867,5.8594,6.1328,6.1705,6.167,6.16,6.1008,6.0607,6.0547,6.119,6.1607,6.1607,6.1607,6.1583,6.1484,6.1508,6.1408,6.131,6.1283,6.1238,6.1118,6.1118,6.1118,6.1118,6.1118,6.1118,0.0,0.0,0.0,0.0,5.1795,0.0,0.0,0.0,4.6209,4.2491,0.0,0.0,0.0,0.0,0.0,0.0,0.0,0.0,4.7043,4.8958,5.2303,5.7648,5.838,5.8424,5.8412,5.9113,5.9588,5.9631,6.0297,6.0981,6.1707,6.186,6.2586,6.416,6.4275,6.4695,6.5375,6.5413,6.5375,6.5376,6.6865,6.7621,6.7704,6.9418,7.0176,7.0156,6.9396,6.8968,6.8701,6.791,6.7034,6.6197,6.5449,6.5232,6.5274,6.5274,6.5337,6.5413,6.5413,6.5472,6.5601,6.5601,6.5788,6.5848,6.5014,6.4155,6.3292,6.2607,6.2464,6.2534,6.2728,6.3517,6.4441,6.5258,6.55,6.5789,6.6617,6.6783,6.6796,6.6791,6.6796,6.6718,6.6406,6.6445,6.5866,6.3971,6.2224,6.125,6.164,6.1705,6.167,6.16,6.1506,6.145,6.1458,6.1532,6.1607,6.1607,6.1607,6.1583,6.1484,6.1425,6.1398,6.1295,6.1314,6.1221,6.1118,6.1118,6.1118,6.1118,6.1118,6.1118,0.0,0.0,0.0,0.0,0.0,0.0,4.7248,0.0,4.5317,0.0,0.0,0.0,0.0,0.0,0.0,0.0,4.3888,0.0,0.0,0.0,4.9258,5.3274,0.0,0.0,5.5819,5.7196,5.7935,5.7868,5.9,5.9838,6.0141,6.1058,6.1936,6.2662,6.3663,6.4351,6.4695,6.5184,6.5337,6.5207,6.6827,6.7575,6.7581,6.938,7.022,7.0234,6.9976,6.9581,6.9052,6.8709,6.806,6.7191,6.6381,6.5755,6.5282,6.5282,6.5337,6.5413,6.5413,6.5472,6.5615,6.5742,6.5833,6.5806,6.5014,6.4211,6.3366,6.2636,6.2116,6.1918,6.2379,6.2934,6.3546,6.4402,6.4994,6.5516,6.5956,6.6432,6.6796,6.6791,6.6796,6.6796,6.6796,6.6796,6.6566,6.5872,6.3437,6.1705,6.1705,6.1692,6.1667,6.1629,6.1586,6.1612,6.1612,6.1556,6.1554,6.1607,6.1578,6.1548,6.1484,6.1454,6.1383,6.1318,6.1246,6.1195,6.1118,6.1118,6.1118,6.1118,6.1118,6.1389,5.5989,0.0,0.0,0.0,0.0,0.0,0.0,0.0,0.0,0.0,0.0,0.0,0.0,0.0,0.0,0.0,0.0,4.432,0.0,4.4042,0.0,0.0,0.0,0.0,0.0,5.4463,5.5533,5.617,5.723,5.8202,5.9098,6.0262,6.1134,6.1593,6.2815,6.3701,6.4198,6.4771,6.5108,6.5207,6.6827,6.7557,6.7536,6.9371,7.022,7.0289,7.0361,7.0067,6.954,6.954,6.9043,6.8211,6.763,6.6674,6.5664,6.5436,6.536,6.5413,6.5413,6.5472,6.5622,6.5814,6.5904,6.5807,6.5278,6.4387,6.3406,6.2902,6.2043,6.1418,6.2034,6.2313,6.2651,6.3546,6.4254,6.4856,6.5371,6.6005,6.6523,6.6752,6.6796,6.6796,6.6796,6.6839,6.6725,6.6378,6.3671,6.1687,6.1719,6.1719,6.1666,6.1619,6.1584,6.1615,6.1612,6.1546,6.1536,6.1585,6.1501,6.1469,6.1469,6.1411,6.1383,6.1314,6.1242,6.1191,6.1118,6.1118,6.1118,6.1118,6.135,6.181,0.0,0.0,0.0,5.3142,0.0,0.0,0.0,0.0,4.8384,0.0,0.0,0.0,0.0,0.0,0.0,0.0,0.0,0.0,0.0,0.0,0.0,0.0,0.0,0.0,0.0,5.0788,5.1919,5.4302,5.4401,5.5796,5.9012,5.9175,5.9904,6.1554,6.1669,6.2471,6.416,6.4236,6.4573,6.5207,6.6827,6.7522,6.7475,6.9344,7.0185,7.0203,7.0336,7.0372,7.0372,7.0372,6.9884,6.9158,6.912,6.8126,6.6552,6.5712,6.5413,6.5413,6.5413,6.5472,6.5622,6.5814,6.5904,6.5923,6.5934,6.4811,6.3527,6.3646,6.2507,6.1301,6.134,6.1458,6.1756,6.2612,6.2891,6.3453,6.5137,6.5537,6.5782,6.6635,6.6796,6.6796,6.6796,6.6847,6.6507,6.5345,6.3163,6.1703,6.1682,6.1719,6.1666,6.1619,6.1614,6.1603,6.161,6.1546,6.1518,6.1487,6.1457,6.1399,6.1399,6.1398,6.1352,6.1299,6.131,6.1217,6.1118,6.1118,6.1118,6.1118,6.1964,6.2351,0.0,0.0,5.9688,5.6386,0.0,0.0,0.0,0.0,0.0,0.0,0.0,0.0,0.0,0.0,0.0,0.0,0.0,0.0,0.0,0.0,0.0,0.0,0.0,0.0,0.0,0.0,5.0293,5.1086,5.3179,5.5078,5.6669,5.833,5.9464,5.995,6.1019,6.2166,6.335,6.3931,6.4535,6.5207,6.6865,6.756,6.7475,6.9344,7.0185,7.0194,7.0336,7.0411,7.0411,7.0411,7.022,6.9952,6.9425,6.8852,6.8165,6.6789,6.591,6.5429,6.5494,6.5559,6.5622,6.5814,6.5904,6.5923,6.5973,6.5236,6.426,6.384,6.2933,6.1956,6.1457,6.1419,6.1559,6.1873,6.2424,6.3063,6.3655,6.4679,6.5587,6.5931,6.6445,6.6796,6.6796,6.6852,6.6358,6.4803,6.3551,6.2562,6.1814,6.1687,6.1668,6.1593,6.159,6.1614,6.1612,6.1546,6.147,6.1457,6.1402,6.1396,6.1396,6.1398,6.1383,6.1314,6.1306,6.1217,6.1118,6.1118,6.1389,6.1964,6.2859,6.325,6.0831,6.0938,0.0,5.7666,5.5758,0.0,5.1061,0.0,0.0,0.0,0.0,0.0,0.0,0.0,0.0,0.0,0.0,0.0,0.0,3.8146,0.0,0.0,0.0,0.0,0.0,0.0,4.7202,4.893,5.0502,5.2463,5.4995,5.7228,5.8655,5.9177,6.0474,6.1745,6.2884,6.3465,6.423,6.5207,6.6865,6.7587,6.7482,6.9353,7.0203,7.0246,7.0353,7.0411,7.0411,7.0411,7.0411,7.0334,6.9846,6.9464,6.9005,6.7324,6.6139,6.5436,6.5544,6.5601,6.5622,6.5814,6.5904,6.5923,6.5973,6.5429,6.4646,6.3917,6.3127,6.2301,6.1495,6.137,6.1469,6.1481,6.1951,6.2508,6.2834,6.4015,6.5157,6.5541,6.6249,6.6796,6.6796,6.6854,6.632,6.4568,6.3982,6.3229,6.1862,6.1692,6.167,6.16,6.1597,6.1575,6.1585,6.152,6.1481,6.1418,6.1415,6.1415,6.1415,6.1391,6.138,6.1301,6.1301,6.1217,6.1118,6.1423,6.1848,6.2428,6.3598,6.414]}]]